GFSSW_sfc_dewp_000.txt.gz
Dewpoint
58 58 58 59 58 59 59 59 59 59 58 59 58 58 57 56 57 53 29 35 40 71 70 50 50 50 53 46 48 45 28 26 29 32 44 49 47 53 52 56 60 59 55 62 64
58 58 58 58 58 59 59 59 58 59 58 58 58 57 56 56 48 31 50 63 68 72 41 38 41 47 41 39 42 34 24 27 35 36 43 47 48 52 53 57 61 61 63 65 64
57 57 57 58 58 58 58 58 58 58 57 57 57 56 56 55 38 14 67 66 71 68 32 28 44 41 30 27 32 27 26 40 44 44 46 47 49 50 50 50 58 61 63 63 62
56 56 57 56 56 57 57 58 57 57 56 56 56 55 55 51 11 29 67 69 71 49 33 29 40 30 24 23 25 29 44 44 49 48 45 45 48 55 55 57 61 62 63 63 62
55 56 56 56 56 57 57 57 56 56 56 56 55 54 53 34 20 48 70 66 50 42 26 37 35 26 22 23 26 38 47 49 49 46 46 44 49 56 59 61 63 63 64 63 62
55 56 56 56 56 56 57 56 56 56 55 55 54 54 46 22 33 50 51 38 40 33 23 39 26 24 21 22 26 43 47 47 45 42 42 43 48 49 61 62 62 63 63 63 63
55 55 56 56 55 55 55 55 56 55 54 54 54 53 39 19 45 46 51 28 26 23 26 35 29 22 20 33 40 47 46 49 45 47 42 41 44 52 61 62 61 61 63 63 64
55 55 55 55 55 55 55 55 56 55 54 55 57 53 27 33 47 38 33 31 31 36 35 36 29 21 22 37 43 39 39 39 44 47 45 49 44 54 57 58 59 60 62 63 64
55 55 55 55 55 55 54 55 56 56 56 57 57 51 32 51 42 35 30 26 31 36 36 29 24 21 31 27 29 35 30 31 40 47 46 45 44 52 54 54 56 59 60 62 63
54 54 54 54 54 54 53 55 58 59 57 56 55 46 36 28 32 31 32 26 31 31 29 26 21 18 19 22 20 24 25 29 33 42 46 42 46 49 52 51 53 56 58 60 60
54 53 53 53 53 53 51 53 49 48 51 37 35 32 27 29 33 29 31 27 27 24 20 24 21 18 17 20 17 17 20 27 31 37 41 42 48 47 49 51 49 50 57 57 58
54 53 53 53 53 52 51 42 43 43 37 34 37 37 37 27 25 27 32 24 23 17 16 19 18 17 17 19 18 17 18 21 35 40 42 47 48 50 50 47 50 50 55 56 58
53 53 53 52 52 51 35 30 44 44 37 32 34 32 30 30 19 21 28 23 19 16 16 11 11 20 20 19 19 20 19 21 28 44 43 47 47 53 52 53 52 54 55 57 59
53 53 52 51 44 33 26 45 38 44 31 25 24 27 29 21 16 19 24 19 17 15 16 19 19 19 18 19 20 21 24 23 27 42 32 44 29 51 52 54 54 53 57 57 59
53 53 51 50 41 26 36 33 41 39 20 18 23 28 24 19 19 23 26 22 17 18 21 20 18 19 19 18 22 27 34 33 35 40 39 45 37 34 50 51 52 53 54 55 58
52 52 51 45 45 35 30 37 44 28 17 19 19 22 20 18 18 24 25 24 20 20 21 20 20 20 19 21 22 37 39 39 37 31 30 28 33 25 34 48 48 52 54 56 57
51 50 50 44 19 35 37 43 34 21 21 17 13 17 17 15 16 20 23 22 18 21 21 21 20 21 23 25 30 30 27 22 22 22 20 31 30 29 30 46 46 48 54 57 57
49 49 48 43 40 34 26 33 33 21 18 23 12 13 14 14 13 18 21 19 19 18 16 18 20 20 22 21 24 24 20 17 21 15 15 35 24 29 42 44 44 49 52 56 57
49 37 38 42 44 42 29 29 28 22 28 25 16 13 14 13 12 17 20 18 18 18 19 17 17 20 21 23 23 24 23 18 19 19 16 18 29 36 42 44 46 51 53 56 56
45 35 26 41 46 32 29 29 29 30 31 26 23 14 14 14 15 16 19 19 17 17 18 20 21 19 23 25 27 27 24 20 19 23 23 19 21 25 34 35 44 48 52 56 55
40 18 39 44 41 21 26 28 28 26 28 27 25 22 15 13 15 16 17 17 17 16 18 17 22 25 26 25 20 25 24 26 23 24 21 19 21 31 31 34 37 47 53 56 55
38 14 42 42 27 26 26 30 36 26 25 24 27 25 22 15 17 16 16 18 16 17 18 20 20 22 22 26 28 23 24 26 25 33 25 24 20 31 32 34 37 42 52 55 57
36 26 42 41 27 32 34 32 29 24 24 23 26 26 25 24 24 18 19 19 21 20 22 23 20 20 23 26 29 27 28 26 25 26 31 24 24 39 38 41 43 43 50 56 59
42 30 37 39 40 36 33 31 28 27 26 26 27 28 28 27 30 27 25 31 31 27 51 38 23 26 15 24 22 27 26 28 24 26 28 27 29 31 36 39 41 46 51 55 58
43 39 42 33 36 36 35 32 30 28 29 31 29 27 30 29 27 27 27 32 33 45 36 30 33 28 22 19 20 22 25 27 28 28 28 27 31 35 37 38 43 42 46 54 56
40 39 40 40 39 35 34 34 29 29 33 28 31 33 34 33 34 28 28 32 31 36 37 38 35 34 26 24 23 21 22 26 28 27 31 30 31 31 33 36 36 38 43 50 55
40 41 40 37 37 34 35 36 34 35 35 35 38 38 32 38 41 41 40 40 37 39 38 39 36 38 29 29 28 27 28 29 30 33 32 28 32 34 34 36 39 45 46 48 52

GFSSW_sfc_dewp_003.txt.gz
Dewpoint
58 58 58 58 58 58 59 59 59 59 59 59 59 59 59 58 58 52 35 41 44 69 69 42 49 48 51 48 41 38 33 22 29 31 38 41 44 48 51 50 51 53 53 58 60
58 58 58 58 58 59 59 59 59 59 59 58 58 58 58 57 49 36 56 70 72 72 40 37 36 39 42 37 33 31 26 25 30 33 37 41 45 48 52 56 54 55 56 59 60
57 57 57 58 58 58 58 58 58 58 58 58 58 58 57 56 40 24 67 69 71 69 35 29 32 39 37 29 28 26 23 30 33 35 38 40 40 42 42 53 54 57 58 59 60
56 56 57 56 56 57 57 58 57 57 57 57 57 57 56 51 20 37 69 70 71 48 35 22 32 36 30 25 25 29 32 35 35 36 38 37 42 47 54 55 57 57 58 59 59
55 56 56 56 56 56 57 57 56 57 57 57 57 56 52 37 27 46 68 65 48 44 29 23 32 33 25 23 22 33 35 36 36 37 36 39 46 53 56 56 57 58 58 58 58
55 56 56 56 56 56 56 56 56 57 57 56 56 55 47 29 25 39 39 31 23 32 23 25 35 28 24 22 27 35 37 35 36 36 38 42 45 54 57 57 58 59 59 59 58
56 56 56 56 55 55 55 55 56 57 56 55 55 52 36 24 35 38 39 18 20 22 16 31 30 23 24 23 31 34 35 36 36 37 35 38 41 51 58 58 58 59 59 60 61
55 55 55 55 55 55 55 54 56 56 55 55 56 51 38 24 38 36 37 16 22 20 18 34 27 22 22 28 34 32 32 32 37 37 41 52 44 52 55 57 57 58 60 61 62
55 55 55 55 55 54 54 54 58 57 57 57 57 53 38 50 39 31 26 13 16 22 33 30 25 22 23 26 31 30 28 31 35 36 46 50 44 50 50 51 54 56 58 58 59
54 54 54 54 54 53 53 54 59 58 57 54 49 45 38 27 30 25 21 17 17 26 32 25 21 20 22 22 23 27 27 28 32 34 34 41 41 48 48 46 51 53 55 56 57
54 54 54 54 53 53 50 52 52 53 50 37 35 26 23 24 27 25 22 18 19 26 26 25 19 18 18 21 21 24 23 26 27 32 34 35 40 46 48 46 47 50 54 54 54
54 54 54 53 53 52 50 42 39 41 36 29 28 32 28 27 21 20 23 18 21 21 20 23 20 19 16 17 19 17 19 24 27 31 32 34 41 42 46 47 46 47 51 51 52
53 53 53 52 52 50 38 37 34 40 36 25 24 28 30 24 18 17 16 17 20 18 15 17 19 20 16 16 17 18 16 17 23 28 30 37 37 44 43 45 47 46 48 49 52
53 53 52 51 43 34 24 38 40 40 34 22 24 25 26 24 20 19 17 16 17 16 13 14 10 14 13 16 17 18 17 17 18 27 27 29 27 44 46 43 43 46 47 47 50
53 53 51 51 41 22 28 28 34 40 24 16 20 22 24 18 18 17 18 18 16 13 14 14 12 16 17 17 17 22 19 19 20 22 27 31 29 42 42 47 45 43 46 49 50
52 52 51 38 45 36 32 24 39 31 20 15 21 21 20 16 13 14 14 18 17 14 14 16 20 18 17 17 18 26 26 26 26 24 24 30 34 29 44 48 48 47 44 47 49
51 50 50 44 19 27 33 34 35 26 17 15 17 18 18 11 14 14 16 19 17 20 19 20 17 16 17 18 22 24 23 23 23 23 23 25 23 31 28 35 34 43 47 47 48
50 49 48 44 35 34 28 26 31 25 19 15 10 14 14 12 14 15 16 18 21 18 17 19 16 16 20 20 21 22 21 20 24 19 18 26 25 23 23 33 39 41 44 48 51
49 36 34 34 41 32 26 23 27 26 19 15 12 12 13 11 13 19 18 16 19 18 20 20 18 17 18 19 21 23 20 18 16 20 18 20 26 26 35 34 38 39 42 49 51
45 35 25 32 42 31 25 27 26 23 28 26 24 13 14 13 12 16 20 20 18 17 18 21 22 18 16 18 20 24 21 18 18 23 23 20 22 22 34 32 32 36 41 46 52
46 25 29 36 40 27 22 26 27 25 26 27 26 20 12 12 13 13 18 18 17 16 17 16 20 21 20 21 21 20 22 24 21 25 22 20 23 29 30 31 31 34 38 46 51
35 21 38 41 28 27 21 24 29 24 25 27 27 27 20 13 14 13 14 18 16 17 16 17 17 20 19 20 18 19 22 23 24 30 25 24 23 27 28 28 32 35 38 45 54
36 25 33 37 22 24 25 20 24 27 25 25 25 27 25 19 20 15 15 13 15 16 20 19 17 19 21 20 20 20 21 21 22 23 35 28 27 35 32 34 36 38 38 47 54
38 26 19 34 28 31 29 25 29 29 27 24 26 29 28 26 22 19 14 14 16 15 52 33 19 23 14 22 23 24 20 21 20 25 26 28 29 35 34 36 38 39 42 44 52
40 31 41 29 25 31 34 30 28 28 27 27 27 26 29 29 24 23 19 22 24 40 29 23 28 25 20 16 18 20 20 19 24 26 26 27 31 32 34 36 39 38 40 43 50
34 35 38 35 40 37 36 35 29 28 30 27 27 24 29 35 39 27 27 29 29 31 29 31 29 29 24 19 15 16 18 20 22 23 24 24 28 32 32 34 35 36 37 39 44
37 37 37 38 32 31 29 31 32 33 32 32 35 34 31 38 40 40 38 37 37 36 34 36 30 32 28 24 22 21 21 21 23 25 27 27 32 36 35 35 37 41 40 42 42

GFSSW_sfc_dewp_006.txt.gz
Dewpoint
58 58 58 58 58 58 59 59 59 59 60 60 60 59 60 59 58 51 35 41 50 71 70 43 37 43 42 44 46 52 40 32 32 34 41 43 42 42 45 48 51 53 54 57 57
57 58 57 58 58 58 58 59 58 58 58 59 59 58 59 59 48 36 49 69 71 71 38 29 30 32 37 39 35 30 31 31 34 34 47 51 46 45 47 49 49 50 56 57 57
56 57 57 57 57 58 58 58 58 57 58 58 58 58 59 56 42 27 61 69 72 66 29 28 29 31 35 34 29 27 25 28 36 39 49 48 51 57 60 49 51 52 55 57 58
55 56 56 56 56 56 57 57 57 57 57 58 57 58 58 51 27 35 71 71 72 37 31 32 24 31 35 26 24 27 33 32 31 43 40 38 50 54 57 57 54 53 56 57 57
55 56 56 56 56 56 57 57 56 56 58 58 58 57 53 38 31 46 70 68 39 31 28 29 21 34 32 23 21 31 33 32 37 38 38 43 47 53 49 54 53 53 56 57 57
56 56 56 56 56 56 56 56 56 56 58 58 57 56 46 33 24 38 31 32 24 27 27 25 24 33 27 21 23 32 33 32 34 33 39 42 46 50 53 54 54 54 55 56 56
55 56 56 56 56 55 56 55 55 56 58 57 56 51 43 25 26 31 28 22 22 24 24 20 26 31 26 21 33 33 31 33 32 37 39 39 45 50 54 55 55 56 56 56 57
55 55 55 55 56 55 55 55 54 57 57 56 57 49 40 32 27 31 28 19 13 18 19 19 33 27 23 23 29 30 31 29 35 42 41 42 45 51 53 54 55 56 56 57 59
54 54 55 55 55 54 54 54 55 59 58 57 54 47 40 42 24 33 28 14 9 15 18 20 33 25 22 22 30 29 28 33 36 40 39 41 44 50 51 51 52 54 55 57 58
54 54 54 54 54 54 53 54 56 59 58 53 49 45 44 35 22 29 27 11 16 15 18 31 30 23 20 22 27 27 30 33 35 37 41 40 42 47 47 48 50 51 53 55 56
54 53 53 54 53 53 50 35 51 53 51 41 33 28 28 33 26 22 22 10 11 14 24 31 24 20 18 23 26 27 26 32 33 41 42 41 42 44 43 46 49 51 52 52 53
53 53 53 53 52 52 50 30 35 34 34 34 35 33 29 22 22 17 16 14 13 17 23 25 20 19 18 21 20 20 22 24 30 32 35 43 43 44 43 44 48 50 52 52 53
53 53 53 52 51 49 36 37 34 32 34 31 29 24 27 24 22 17 15 13 13 18 21 21 20 19 17 16 17 20 17 19 26 29 29 31 41 47 44 44 45 47 51 51 52
53 53 52 51 42 33 27 30 37 34 31 24 22 25 24 25 22 16 17 16 15 18 19 19 19 18 18 15 15 18 17 16 17 25 24 31 28 46 44 42 44 44 46 48 51
53 52 51 51 42 30 22 22 27 34 23 17 16 20 22 25 20 13 16 13 16 17 17 15 15 17 19 17 16 17 16 16 16 17 20 23 27 41 43 41 41 42 44 46 49
52 51 51 40 44 41 36 30 29 32 21 15 17 17 20 22 18 16 15 13 15 15 15 14 12 10 12 13 15 16 24 19 18 18 20 22 27 37 44 47 43 42 43 46 47
51 50 49 44 27 18 23 29 28 29 22 16 16 15 18 20 15 17 16 14 14 18 16 13 11 13 14 15 17 18 23 24 23 22 21 23 25 37 40 40 45 55 56 45 47
49 49 47 40 39 36 30 25 30 29 24 16 14 16 16 17 13 13 15 12 16 14 12 12 12 16 15 17 18 19 22 22 28 21 20 27 28 35 34 41 47 50 50 45 46
49 38 29 39 40 33 24 26 26 26 26 16 16 13 15 14 9 12 14 10 15 15 19 15 18 17 15 17 19 22 22 19 20 19 17 22 28 27 30 29 28 34 33 46 45
46 39 30 23 37 32 20 26 23 20 22 23 22 17 14 12 9 14 14 13 14 17 18 20 23 16 15 18 18 20 22 20 20 27 25 20 23 25 38 33 32 31 32 39 48
46 36 24 21 36 26 16 22 22 19 22 25 26 25 12 12 10 13 15 14 13 17 19 18 22 20 18 19 18 19 20 21 18 21 22 21 27 36 41 38 32 32 35 36 39
36 24 26 33 32 23 16 21 26 16 24 25 26 26 27 23 12 11 16 18 14 16 17 19 18 22 19 18 17 17 22 26 25 31 29 30 25 30 32 31 31 34 34 40 45
37 29 27 33 25 22 22 20 20 16 23 24 22 24 26 27 23 13 13 13 17 18 22 22 22 21 22 17 19 19 20 19 21 23 36 27 29 39 31 33 36 36 38 50 53
40 26 21 29 28 24 22 24 21 17 20 26 23 23 22 26 26 21 13 11 16 17 51 33 18 28 15 24 22 24 19 17 16 27 26 27 36 35 35 38 45 42 45 46 55
42 31 36 30 22 25 26 27 27 19 23 29 28 25 26 29 25 22 17 13 12 38 25 22 34 23 17 15 15 18 19 18 20 26 27 31 36 43 42 39 40 40 42 44 51
39 34 34 33 37 37 28 29 32 24 25 26 27 25 26 29 36 38 37 35 23 23 22 25 31 26 22 18 16 15 15 21 21 19 20 23 31 40 41 43 39 36 38 45 47
39 36 36 36 33 31 31 32 32 31 27 28 28 32 30 38 40 39 36 35 35 35 31 35 27 34 27 22 22 21 20 17 21 25 25 31 36 41 41 38 37 41 41 46 48

GFSSW_sfc_dewp_009.txt.gz
Dewpoint
58 58 58 58 58 58 58 58 58 59 58 59 58 58 59 60 58 55 44 43 50 67 71 44 41 43 44 45 53 52 50 45 50 47 43 47 42 47 52 53 55 55 57 59 65
57 57 57 57 58 58 58 58 58 58 58 58 58 58 59 59 52 40 51 68 67 73 39 28 29 30 34 38 44 52 48 37 47 45 47 51 53 56 51 52 54 55 56 60 62
56 56 57 57 57 57 58 58 57 57 57 58 59 59 59 58 49 34 67 64 69 69 36 23 25 27 28 31 40 49 42 42 42 44 51 52 52 55 56 49 53 55 56 57 61
55 55 56 56 56 56 57 57 56 56 57 58 59 59 59 53 29 29 72 71 68 50 32 25 29 27 26 30 29 32 38 42 45 49 51 50 53 46 52 54 56 56 57 57 57
54 55 55 56 56 56 56 57 56 56 56 58 59 58 54 44 36 43 70 70 52 34 23 24 30 26 23 34 24 32 33 38 42 45 51 52 50 50 50 51 56 56 57 58 57
55 55 56 56 56 56 56 56 56 56 56 59 58 57 49 35 32 33 40 43 29 24 22 24 29 23 25 31 29 35 31 38 38 43 48 51 50 50 51 52 54 55 56 57 57
55 55 55 56 56 55 56 56 55 55 56 58 57 52 45 31 27 41 31 29 27 22 21 24 28 22 23 29 34 35 32 33 38 41 47 49 50 52 53 52 53 55 56 56 57
55 54 55 55 55 55 55 55 54 55 56 58 57 52 41 34 36 31 30 27 24 22 22 25 25 21 25 27 33 31 31 31 39 41 46 49 49 53 54 53 53 54 55 56 58
54 54 54 54 54 54 54 54 54 56 58 58 55 50 45 46 36 31 30 22 13 13 20 21 19 24 30 25 26 30 30 36 38 40 40 45 49 52 54 54 55 55 56 57 59
54 54 54 54 54 53 53 53 54 58 59 56 49 45 46 41 27 25 31 25 12 11 14 17 21 28 27 23 26 28 28 37 37 39 38 41 48 50 52 54 54 55 57 59 59
54 53 53 53 52 52 50 42 45 53 52 46 40 38 32 36 32 22 27 25 8 11 15 18 27 28 26 22 21 30 30 36 37 37 40 41 47 49 49 49 50 53 55 56 58
53 53 53 52 52 51 50 38 27 29 31 31 37 41 38 38 30 24 26 22 11 16 16 19 28 29 28 24 23 23 33 36 37 40 41 41 43 45 51 50 50 52 52 54 55
53 53 52 52 51 50 42 37 37 37 34 31 32 32 29 31 27 21 20 18 10 13 13 18 28 29 25 20 19 21 22 29 36 41 40 43 45 51 51 50 50 52 52 53 57
52 52 52 51 44 37 25 26 30 28 29 27 28 31 29 28 22 22 16 16 14 11 13 20 25 24 20 18 19 18 22 19 23 37 37 42 41 48 49 46 48 50 51 52 55
52 52 51 51 44 40 27 34 34 31 28 27 27 23 27 26 24 20 15 14 13 12 16 21 22 20 19 18 18 16 21 18 18 21 27 32 28 43 46 44 44 47 51 51 54
52 52 51 44 45 44 41 34 31 29 29 24 20 20 24 22 24 22 15 16 18 15 17 20 20 18 19 20 20 21 18 22 17 18 19 22 27 42 44 43 41 45 48 49 53
51 50 49 46 33 24 32 29 30 26 27 23 16 18 19 22 22 22 15 14 14 12 16 17 16 14 13 16 17 17 28 25 24 20 19 20 21 38 43 42 42 47 48 48 51
49 49 49 45 45 41 37 28 29 27 25 25 23 16 17 20 22 19 14 14 14 13 18 17 14 14 11 12 14 17 22 28 24 24 22 24 24 33 43 45 45 47 46 44 48
49 44 36 40 43 36 33 24 26 28 25 23 24 22 18 18 20 16 17 14 12 11 12 14 17 16 16 16 18 19 23 23 22 25 22 27 29 37 42 42 45 47 46 43 44
47 44 40 30 42 36 32 26 25 24 24 23 20 22 24 17 17 13 14 17 14 14 14 18 19 16 16 16 16 22 24 24 23 24 23 23 34 33 35 36 37 49 47 47 48
46 39 35 31 40 34 22 21 22 22 23 22 22 20 23 25 16 13 12 16 15 12 14 15 18 18 17 15 18 23 22 27 25 26 22 25 31 40 39 37 34 32 41 45 49
41 32 31 25 33 35 28 20 25 18 20 20 21 20 25 29 28 13 12 15 14 11 12 16 22 22 15 20 19 20 20 28 30 25 30 31 32 34 39 38 38 39 41 40 45
40 34 32 31 30 31 29 19 15 16 18 20 20 19 25 27 31 30 19 17 15 13 13 18 19 19 25 17 18 17 18 23 30 25 24 31 31 40 36 35 38 39 43 45 44
41 37 37 36 32 30 29 27 22 20 19 20 21 27 28 26 27 29 28 23 16 14 43 37 23 27 21 24 20 19 19 22 19 22 22 29 35 40 41 45 43 42 40 48 49
43 38 37 34 34 34 36 34 24 24 23 23 21 30 30 30 30 31 32 38 22 34 33 25 27 27 24 21 18 21 21 20 20 22 27 29 38 38 38 40 39 38 36 39 45
42 37 35 31 35 36 36 35 33 23 31 37 34 29 30 35 42 41 40 40 41 29 22 24 32 29 24 24 18 17 19 23 24 21 21 24 35 38 39 43 43 39 39 40 43
42 43 37 33 29 32 32 30 31 25 42 40 40 33 30 40 40 39 38 38 35 41 35 32 35 31 24 25 24 24 25 24 25 24 25 24 35 44 44 43 44 42 39 40 44

GFSSW_sfc_dewp_012.txt.gz
Dewpoint
56 56 57 57 57 57 57 58 58 58 58 58 58 59 59 59 59 56 40 41 48 71 69 45 54 48 44 48 54 54 48 46 45 45 43 45 50 54 57 61 60 60 62 65 66
56 56 56 56 56 57 57 57 57 57 57 58 58 59 59 60 54 45 53 65 68 73 41 33 27 33 40 40 47 50 48 46 47 47 48 49 51 52 55 57 57 59 63 66 66
55 55 56 56 56 56 56 57 57 57 57 57 58 59 60 58 47 35 68 64 72 68 33 29 25 25 28 35 41 49 45 45 46 48 52 52 53 55 54 54 56 59 63 65 66
54 54 55 55 55 56 56 56 56 56 56 57 58 60 59 54 12 29 70 72 73 49 36 26 26 28 27 25 37 44 47 45 46 53 51 50 53 47 55 55 57 63 65 66 65
54 54 54 55 55 55 56 56 56 56 56 57 59 59 53 43 35 43 72 72 59 38 30 24 28 31 28 26 37 43 46 47 50 50 50 50 48 50 53 56 56 60 62 64 64
54 55 55 55 55 56 56 56 56 55 55 56 59 58 47 29 27 34 46 46 37 28 24 23 25 31 25 23 28 43 43 46 50 51 50 47 49 49 54 56 56 56 58 59 62
54 55 55 55 55 54 55 55 54 54 55 56 58 54 47 24 27 30 36 36 29 25 21 22 23 28 25 21 31 42 42 47 50 52 51 52 51 50 53 56 55 56 57 57 58
54 55 55 55 55 55 54 54 54 55 56 57 58 54 35 38 40 35 29 30 28 27 22 20 28 27 23 24 26 35 38 39 44 50 52 52 51 52 54 54 55 56 56 57 58
54 54 54 54 54 54 53 53 54 56 56 59 54 51 40 51 40 35 31 28 25 23 20 20 25 21 21 25 23 30 30 38 41 45 49 51 51 52 52 53 54 55 55 56 57
54 53 53 53 53 53 53 53 52 57 58 57 52 42 38 36 39 32 30 26 15 14 15 14 17 20 28 25 22 28 35 38 38 40 46 50 51 52 52 52 53 54 55 56 57
53 53 53 53 52 52 50 45 27 43 53 44 39 37 34 36 37 27 26 22 13 11 10 15 16 16 21 27 25 29 37 36 37 39 48 49 50 52 53 53 53 54 55 56 57
53 53 53 52 52 51 49 34 22 34 33 34 41 42 39 38 39 33 24 26 11 8 14 14 17 21 29 30 27 24 33 36 38 39 39 49 50 51 53 54 55 55 57 57 59
52 52 52 52 51 49 43 39 37 31 32 31 32 30 30 37 38 33 22 25 11 10 14 14 17 26 29 29 28 23 34 34 36 39 41 47 47 49 52 52 51 55 57 58 60
53 53 52 51 37 43 30 26 34 33 27 26 29 31 32 32 30 31 26 23 12 8 14 15 17 23 28 28 27 19 26 33 38 38 38 42 41 46 47 47 48 51 54 56 61
53 52 51 50 45 44 27 36 32 32 25 28 28 32 30 29 27 23 22 19 16 11 13 13 17 17 22 26 25 20 22 20 38 37 36 41 41 43 47 44 46 48 51 53 61
52 52 51 46 45 46 43 41 30 26 26 31 27 25 24 26 26 24 17 16 18 14 14 13 22 22 21 23 22 21 18 23 23 24 28 37 36 34 46 44 44 47 51 52 59
51 50 49 46 37 35 36 26 26 25 28 25 20 23 19 23 24 22 14 12 13 13 13 14 12 19 21 18 20 18 17 15 18 19 16 20 38 37 46 45 45 45 51 52 56
50 49 49 47 47 43 37 21 25 27 22 25 23 23 22 21 21 23 14 12 13 15 13 16 12 16 18 15 14 15 16 20 17 21 18 23 21 22 43 46 46 45 51 52 55
50 46 43 45 45 42 29 19 21 26 28 25 24 22 24 20 24 22 17 13 13 14 12 17 16 20 17 16 14 13 20 22 22 33 22 24 27 36 41 44 43 46 49 50 54
46 43 43 40 42 34 25 19 21 24 23 22 22 24 21 21 20 21 20 16 14 15 13 13 12 15 15 16 17 13 19 19 21 18 17 23 27 31 42 43 43 44 45 46 52
42 39 38 43 37 31 20 18 17 15 16 22 23 21 20 20 19 19 19 17 15 14 14 12 17 13 21 15 14 21 21 20 21 23 19 20 28 35 38 43 44 46 45 46 48
41 28 34 38 33 32 27 19 26 12 14 16 19 20 19 20 19 18 17 15 17 14 13 14 14 11 11 18 16 20 21 22 21 19 26 27 29 36 38 41 44 46 48 49 49
38 39 37 31 28 30 31 28 26 22 19 14 15 17 18 18 19 22 27 22 18 15 14 15 14 12 14 15 19 17 20 25 25 26 24 23 27 38 36 36 38 39 42 47 51
40 37 37 36 33 32 32 31 28 29 22 19 16 16 17 19 26 26 25 27 23 17 41 32 16 13 12 17 20 17 18 22 24 22 23 26 32 37 37 38 40 41 43 47 50
42 40 35 32 32 28 32 35 34 31 31 33 25 26 32 22 29 38 38 38 36 32 31 16 14 24 21 18 22 18 16 20 20 21 20 21 32 37 40 39 40 40 43 46 47
42 38 38 33 31 32 31 33 30 29 34 32 36 38 37 32 38 36 38 37 36 35 24 23 18 22 16 18 20 15 18 19 22 23 29 30 32 39 39 40 39 38 39 40 43
41 42 40 35 33 34 34 31 27 27 40 41 41 40 35 34 34 37 38 37 37 34 33 20 23 24 16 21 21 22 22 23 25 34 27 29 32 41 41 39 40 39 38 39 40

GFSSW_sfc_dewp_015.txt.gz
Dewpoint
55 55 56 56 56 57 57 57 57 57 57 58 58 58 58 60 59 55 40 41 46 70 70 47 48 46 43 48 53 53 43 43 43 43 47 52 56 60 61 61 59 61 63 65 68
55 55 55 55 55 56 56 57 57 57 57 57 58 58 59 60 55 46 53 65 67 73 41 35 25 33 34 43 50 50 45 44 45 46 48 50 56 57 57 59 60 61 63 65 67
54 54 54 55 55 55 56 56 56 56 56 57 57 58 60 58 44 33 64 64 69 69 36 29 25 25 26 36 48 50 46 46 46 49 48 52 53 55 58 57 60 62 63 65 66
54 54 54 55 55 55 55 55 55 55 56 56 57 59 60 54 11 20 70 73 69 60 33 27 24 26 29 29 34 48 45 45 46 52 51 51 53 54 57 56 61 64 65 65 66
54 54 54 54 54 54 55 55 55 55 55 56 57 59 52 37 30 40 70 71 64 43 32 23 27 30 28 25 32 40 44 45 49 51 51 50 50 54 55 58 61 65 66 65 66
54 55 55 54 54 54 55 55 55 54 55 55 57 59 45 25 24 33 50 61 52 37 30 24 21 29 28 24 32 44 46 47 50 49 50 50 52 54 56 62 63 64 65 65 66
54 54 54 55 54 54 54 55 54 54 55 56 57 55 46 28 27 30 38 42 35 34 23 25 23 23 28 25 31 45 46 50 50 50 46 51 51 54 56 62 62 64 64 65 65
54 54 54 54 54 54 54 54 54 54 57 56 58 53 33 36 42 41 31 26 28 27 25 21 24 24 26 25 38 43 44 46 50 51 50 52 50 55 55 56 59 60 62 63 63
54 54 54 54 54 53 53 53 54 58 57 58 53 48 37 46 45 43 31 27 26 26 27 21 22 21 22 23 31 34 43 43 47 50 51 52 50 53 55 54 54 56 59 58 60
53 53 53 53 53 52 52 53 52 55 58 56 53 44 35 28 38 34 34 29 26 19 19 15 18 17 26 23 23 38 40 44 46 49 49 51 50 52 54 54 54 55 56 56 57
53 53 53 53 52 52 50 41 23 34 51 42 37 36 34 36 37 36 30 24 11 12 12 14 14 16 17 24 25 30 37 43 46 46 50 50 51 51 54 54 54 55 55 56 56
53 53 53 53 52 51 47 26 28 32 28 30 36 37 36 38 36 33 28 23 15 8 11 12 13 15 18 27 25 24 37 39 40 46 49 50 51 50 52 53 54 54 55 55 56
53 53 53 52 51 46 37 32 34 32 29 29 30 29 30 39 36 35 30 24 16 9 11 10 12 20 25 29 28 24 27 36 37 43 48 49 49 51 53 53 52 53 54 55 57
53 53 52 50 36 44 36 31 35 33 27 26 29 29 31 35 33 36 31 23 18 16 12 12 14 19 27 27 28 26 26 33 38 39 40 48 44 47 51 52 53 54 55 55 57
53 52 51 49 45 43 28 37 34 31 23 25 28 31 30 27 27 28 29 24 19 11 13 12 14 17 22 26 27 26 25 25 37 37 41 43 41 44 49 48 51 53 54 56 57
52 52 51 46 45 45 44 41 31 25 25 29 29 27 28 28 27 23 24 23 23 12 14 10 17 17 16 20 26 29 21 22 29 35 36 42 39 38 46 48 49 51 51 56 57
51 50 50 46 38 38 36 25 23 23 26 24 22 23 21 25 21 23 18 16 19 17 10 13 11 14 23 21 23 20 17 16 23 31 33 33 39 38 44 48 48 49 49 54 57
49 49 48 47 46 43 30 18 23 23 22 23 22 21 22 23 23 24 16 18 17 15 15 10 7 11 16 19 19 18 18 19 13 19 23 25 36 38 41 44 48 48 48 52 55
49 44 44 44 46 41 23 15 19 25 28 25 22 22 22 22 21 23 17 15 16 14 12 14 14 18 17 16 19 19 16 18 16 30 22 25 27 28 40 38 45 46 45 50 53
45 41 42 44 44 32 20 15 17 25 23 23 22 23 22 21 20 19 23 19 13 15 14 14 12 14 14 18 17 15 18 17 20 17 20 21 24 25 28 40 44 46 44 50 52
40 34 31 45 37 27 12 12 12 13 10 21 23 21 21 20 19 20 19 20 20 15 15 14 13 13 17 16 14 20 16 19 20 22 18 18 23 31 31 41 45 45 45 48 52
40 18 32 39 30 28 23 21 24 14 14 14 18 18 19 22 18 18 19 20 22 17 13 14 13 11 11 16 17 15 17 17 15 16 23 22 22 33 38 43 44 44 46 50 52
38 37 41 32 23 28 31 30 26 21 19 20 15 15 15 17 18 18 21 22 26 24 15 15 12 10 11 13 19 17 21 21 21 25 27 24 26 37 37 40 45 45 48 47 49
39 35 36 36 33 30 30 31 32 31 26 23 19 18 20 19 18 19 24 26 31 22 43 30 13 10 9 12 16 18 19 25 21 21 21 25 24 36 35 37 41 44 47 48 48
40 39 36 32 32 30 30 32 33 30 30 32 31 31 27 31 29 30 30 34 38 43 37 15 12 14 11 11 18 17 18 22 21 19 20 20 29 34 35 36 39 41 44 48 49
41 39 40 38 33 30 32 31 30 29 28 35 32 30 36 32 31 31 33 36 36 36 30 20 14 20 17 16 14 14 17 19 21 25 24 24 31 36 36 40 39 40 43 46 49
40 41 41 39 33 32 33 31 31 31 31 30 41 40 35 34 35 35 35 38 41 37 35 19 18 16 13 18 19 20 19 19 24 27 27 27 28 39 39 40 39 40 43 45 47

GFSSW_sfc_dewp_018.txt.gz
Dewpoint
55 55 55 55 56 56 56 57 57 57 57 57 57 58 58 59 59 54 35 41 46 67 72 56 54 50 47 47 53 51 42 41 45 48 49 57 59 59 62 60 60 62 63 66 68
55 55 55 55 55 55 56 56 56 56 56 57 57 58 59 60 54 46 51 65 67 72 39 34 25 34 36 43 50 48 42 41 45 46 52 53 58 59 59 58 61 62 66 68 69
54 54 54 54 55 55 55 55 55 55 56 56 56 57 60 59 37 22 61 65 69 66 36 35 23 24 27 35 47 50 43 46 46 46 53 53 57 57 57 58 60 62 65 68 68
54 54 54 54 54 55 55 55 55 55 55 55 56 57 60 53 20 25 71 71 70 57 32 27 22 24 27 26 38 45 48 46 48 50 51 54 55 57 59 57 61 63 66 67 67
53 53 53 54 54 54 54 54 55 54 55 55 56 57 52 34 31 30 67 71 66 49 31 24 21 28 27 27 31 39 43 46 52 50 52 53 52 56 58 59 62 63 65 66 66
53 53 53 53 53 53 54 55 55 54 54 55 56 57 45 27 29 32 60 59 53 37 31 23 26 30 29 27 35 43 45 50 50 50 50 51 53 55 57 62 63 63 64 65 66
53 53 53 53 53 53 54 54 53 54 55 57 56 56 46 27 29 37 43 50 47 31 29 27 26 27 27 27 28 47 48 50 49 48 49 52 51 52 59 62 63 64 64 65 66
54 53 53 53 53 54 54 54 53 54 58 57 58 53 31 36 41 43 36 30 38 31 26 27 25 22 24 27 43 46 47 44 50 47 50 50 48 54 61 62 63 64 64 65 66
53 53 54 54 54 53 53 53 54 57 57 58 52 46 36 47 38 42 34 25 28 26 27 21 22 21 23 33 40 39 43 44 48 49 49 51 49 55 61 61 62 63 64 64 65
53 53 53 53 53 53 52 53 52 53 57 56 53 45 39 30 35 36 35 28 25 25 22 20 20 21 24 31 38 40 44 44 47 48 50 50 50 54 57 60 60 61 63 63 63
53 53 53 53 52 52 50 37 29 33 46 36 37 39 33 33 37 36 31 23 13 17 18 15 16 17 21 20 34 39 44 43 45 48 49 50 50 53 54 55 56 57 58 61 60
53 53 53 52 51 51 46 25 31 31 23 27 30 30 32 37 32 32 30 26 19 10 15 16 14 18 22 25 31 40 41 43 44 46 48 50 50 52 54 54 54 55 55 57 57
53 52 52 50 50 44 39 27 34 35 23 24 27 28 28 34 30 31 31 23 19 14 11 13 13 19 22 26 26 31 37 37 41 47 49 50 49 50 53 54 55 55 55 56 56
52 52 51 49 35 44 36 35 35 33 25 26 26 29 34 35 32 35 34 26 16 17 11 10 14 17 23 26 27 24 28 37 41 43 41 47 39 48 50 52 53 53 54 55 56
51 52 50 48 44 41 29 40 36 31 19 23 25 30 31 27 26 32 32 25 21 16 13 12 13 16 23 24 28 26 28 33 40 42 43 46 40 42 51 50 51 52 53 54 55
51 51 50 45 44 44 44 41 31 25 23 26 30 26 28 28 25 28 28 27 24 16 15 17 16 16 15 26 28 26 21 26 32 38 36 42 41 39 48 50 50 52 53 54 55
49 49 49 46 38 40 36 25 19 21 26 22 22 22 22 25 25 22 23 22 23 18 12 15 10 16 20 20 26 20 21 19 28 32 33 37 42 40 42 49 50 50 52 55 56
48 49 47 47 46 44 28 12 18 21 21 23 22 22 17 24 24 24 21 22 22 20 17 8 8 10 15 19 19 21 20 21 16 23 30 36 40 41 44 43 48 50 51 53 55
48 43 42 44 47 41 15 6 12 23 26 25 21 23 22 21 21 23 20 21 20 16 17 13 10 16 14 19 17 17 18 21 19 22 20 26 28 31 35 36 43 46 50 51 53
45 41 39 45 44 31 7 12 8 23 24 22 19 22 20 21 19 18 21 20 17 16 15 15 12 13 14 17 21 17 20 17 19 16 21 22 25 27 34 36 37 43 48 50 52
39 28 26 45 36 25 5 4 5 16 16 17 21 20 22 20 19 19 18 21 21 18 16 15 14 13 15 14 12 17 17 19 20 20 16 16 22 29 30 32 36 39 46 48 50
39 13 34 40 29 26 20 18 24 14 11 11 15 13 16 19 19 18 19 19 22 17 14 15 14 13 12 16 17 17 16 17 17 16 22 20 19 30 32 34 43 46 47 48 50
37 36 40 35 26 27 30 31 26 19 15 18 15 17 13 14 15 18 19 21 21 21 20 16 12 11 11 11 19 15 19 17 19 20 24 19 21 32 38 39 43 46 48 49 52
39 33 36 34 31 29 27 28 31 34 25 23 19 17 18 17 18 17 20 28 28 29 50 41 13 12 11 12 14 19 20 21 17 19 19 25 22 26 37 38 42 47 48 50 53
41 37 38 35 33 35 30 30 31 32 30 31 31 23 23 24 23 21 21 22 28 45 38 18 14 13 14 14 17 17 18 23 20 20 19 20 27 26 33 37 40 46 50 50 50
40 38 39 39 37 31 33 29 31 30 30 28 30 31 32 29 29 26 28 30 30 37 34 25 15 15 14 13 15 13 14 23 23 24 24 26 27 32 36 41 43 45 48 50 50
39 40 40 36 36 31 28 30 31 32 32 30 30 32 39 39 33 32 34 39 41 37 38 26 17 17 14 17 15 15 13 16 23 26 25 26 26 36 39 40 41 44 46 48 50

GFSSW_sfc_dewp_021.txt.gz
Dewpoint
55 55 55 55 55 56 56 56 56 56 56 57 57 58 59 59 58 53 36 37 45 67 70 64 58 63 60 58 54 50 42 44 47 48 48 56 56 60 61 60 59 61 61 62 67
54 55 55 55 55 55 55 56 56 56 56 56 57 57 58 60 53 42 51 63 67 71 49 45 41 51 52 44 51 49 41 42 47 50 50 56 56 58 59 57 59 62 64 66 66
54 54 54 54 55 55 55 55 55 55 55 56 56 57 58 58 38 23 68 67 68 69 33 30 24 33 32 42 48 48 41 43 45 50 52 55 57 58 56 55 58 62 64 65 65
53 53 54 54 54 54 55 54 55 55 55 55 56 56 58 53 22 18 70 68 69 56 33 30 22 24 29 34 40 42 47 44 45 51 53 55 56 55 55 55 58 63 64 65 65
53 53 53 54 54 54 54 54 55 54 55 55 56 56 52 32 29 31 67 70 64 46 31 27 21 24 27 32 30 36 41 46 47 50 52 55 54 53 54 59 61 63 65 65 65
53 53 53 53 53 54 55 55 55 54 55 55 56 56 43 25 28 39 55 58 54 40 30 26 21 28 28 28 31 39 44 50 49 51 53 51 54 54 56 61 62 63 64 64 65
53 53 53 53 53 53 55 55 54 54 55 57 57 54 40 25 29 33 41 47 48 36 29 25 25 29 29 26 36 46 47 50 49 51 51 52 53 53 57 60 61 62 63 64 65
53 53 53 53 53 54 54 54 53 54 56 58 58 54 32 35 38 39 39 33 42 32 29 29 24 22 24 35 46 45 44 42 49 49 52 49 45 53 59 59 59 60 62 63 64
53 52 53 54 54 54 53 53 54 57 57 58 54 46 34 49 39 40 39 28 40 34 29 23 26 20 23 38 42 44 38 41 47 49 51 50 47 51 58 58 59 60 61 62 64
53 53 53 53 53 52 52 52 52 55 57 56 53 45 40 33 33 36 38 29 28 28 26 21 22 16 24 32 29 38 40 42 45 48 50 49 49 53 58 58 59 60 60 62 64
53 53 52 52 51 51 50 36 33 35 43 39 36 39 35 32 35 34 32 23 24 26 21 21 15 12 20 34 33 38 39 40 46 48 48 48 49 52 57 58 58 60 61 61 63
52 52 52 51 51 51 42 23 30 29 20 20 22 28 29 33 26 32 31 28 21 20 19 19 14 16 19 27 36 40 39 39 45 49 47 47 47 51 55 58 58 59 60 61 63
52 51 51 50 50 43 38 30 34 31 19 18 22 21 22 26 22 22 31 28 25 20 15 15 13 18 20 22 24 39 39 41 40 46 49 47 45 49 53 55 57 58 58 59 61
52 51 51 48 38 41 30 36 36 33 23 24 25 27 31 30 26 24 29 29 22 24 15 13 13 14 19 20 24 27 39 42 42 43 40 47 38 47 50 53 55 55 56 56 58
51 51 50 48 44 38 30 39 35 33 17 22 24 29 33 29 26 28 31 30 28 23 20 21 13 17 14 19 26 26 35 38 41 42 42 45 42 41 51 51 52 54 55 55 56
51 50 49 46 45 43 42 39 33 25 19 23 29 27 28 28 26 31 30 30 28 25 18 22 15 15 17 20 26 29 31 36 40 39 38 39 41 35 45 50 50 52 54 55 55
49 48 48 45 37 39 37 24 18 19 24 21 23 21 20 25 26 26 28 27 26 26 24 22 19 17 17 19 28 27 28 28 30 35 29 35 42 40 41 46 47 49 52 54 55
47 48 47 46 46 45 33 12 17 17 19 22 21 21 19 22 24 23 27 23 28 27 24 22 18 18 17 16 22 26 23 24 28 26 26 36 38 39 44 44 47 50 51 53 54
48 44 42 42 46 43 19 -2 5 17 23 19 19 18 18 21 21 23 24 21 24 27 24 23 21 14 15 18 25 26 25 23 23 25 26 29 37 37 41 41 43 45 48 52 54
43 42 35 44 46 34 9 7 3 19 24 23 21 21 20 20 19 20 22 24 24 25 27 23 21 15 11 17 21 22 23 20 23 27 23 23 28 24 36 39 42 43 45 49 53
42 29 36 45 38 25 5 -0 1 8 20 17 20 19 20 19 19 18 17 20 20 23 26 24 19 17 18 15 14 19 20 23 22 24 24 22 22 35 37 40 38 38 43 45 50
39 14 40 42 31 23 16 16 23 11 6 14 17 19 21 19 18 18 17 21 22 19 21 24 23 21 15 15 16 12 18 22 22 29 24 23 21 30 35 36 38 40 41 46 51
35 35 38 38 27 27 30 29 29 13 14 10 8 14 16 16 19 18 17 17 20 19 25 22 21 21 22 19 19 17 17 17 19 19 33 20 21 37 37 40 41 41 45 51 54
37 31 36 35 33 30 31 28 28 30 30 14 16 18 17 16 21 19 20 20 22 19 50 34 26 26 18 23 20 19 17 18 16 20 20 23 24 28 32 40 44 47 49 51 55
37 36 40 36 34 36 33 29 26 25 31 30 29 19 21 22 22 21 25 23 24 37 37 38 36 32 29 23 20 17 14 15 20 22 21 20 28 30 35 37 45 48 50 53 54
36 37 37 36 37 35 33 27 28 31 32 29 31 30 31 31 32 25 28 29 28 34 32 35 33 33 30 28 21 18 17 15 17 16 22 19 29 34 37 41 42 46 47 52 54
38 38 37 31 31 31 28 27 29 31 31 32 31 31 31 35 38 38 37 34 34 37 43 41 31 29 25 26 21 20 20 19 21 22 24 24 30 37 37 40 44 49 50 52 55

GFSSW_sfc_dewp_024.txt.gz
Dewpoint
55 55 55 55 56 56 56 56 56 56 56 57 57 58 59 59 58 52 36 46 48 75 72 57 59 58 61 56 55 50 40 37 38 36 44 50 51 55 56 57 56 57 54 59 62
54 54 54 55 55 55 55 56 56 56 56 56 57 57 58 59 48 34 51 64 72 73 57 54 52 56 54 52 49 46 39 36 40 40 43 49 49 54 54 55 56 58 57 61 62
54 54 54 54 54 55 55 55 55 55 55 56 56 57 58 57 37 21 64 69 70 71 45 46 42 51 44 39 46 45 41 39 41 43 44 49 50 52 51 51 54 58 59 61 61
53 54 54 54 54 55 55 55 55 55 55 56 56 57 58 51 17 22 67 68 70 56 36 33 24 34 25 31 42 42 41 37 40 46 44 48 49 49 50 48 53 58 60 60 60
53 53 53 54 54 54 55 55 55 55 55 55 56 57 52 35 25 32 68 68 52 38 30 25 23 20 19 29 38 41 37 39 39 45 46 48 49 47 50 56 53 58 60 60 60
53 53 54 54 54 55 55 55 55 54 55 55 56 57 46 24 22 30 43 47 44 36 27 23 18 17 20 27 35 38 37 40 40 44 48 48 50 48 51 58 55 58 59 59 59
52 53 53 54 53 54 55 55 53 54 55 56 57 53 38 23 26 29 31 33 39 34 25 20 20 16 22 27 31 35 37 43 43 47 48 48 49 51 53 57 56 58 59 58 59
52 52 52 52 53 54 54 53 53 55 57 58 59 50 32 30 32 33 32 32 35 37 28 22 23 22 24 30 35 33 33 36 45 48 49 48 44 50 54 56 56 57 58 58 60
53 52 52 53 53 53 52 52 54 58 57 58 53 47 29 46 38 37 36 31 33 31 30 22 25 18 23 29 31 33 31 33 45 47 49 47 43 50 54 55 56 56 56 57 60
53 53 52 52 52 52 51 53 54 57 57 55 52 44 38 31 34 34 38 31 33 27 26 22 22 18 18 25 28 32 32 30 38 45 48 46 45 49 54 54 54 56 56 57 58
53 53 52 52 51 50 47 31 40 43 49 34 33 34 30 30 33 34 33 27 26 24 15 16 15 15 18 24 29 30 32 31 35 44 46 44 45 47 53 53 53 54 56 56 58
52 52 52 51 50 50 43 21 25 24 18 16 17 19 27 28 25 31 32 24 25 16 14 15 14 17 19 21 25 28 31 31 37 45 45 43 45 47 49 54 53 53 55 57 57
52 52 51 51 50 43 32 29 31 24 20 15 16 16 17 20 23 23 31 26 23 19 15 14 9 15 16 20 25 30 31 32 35 44 45 42 42 44 45 50 55 54 54 56 58
52 51 51 49 39 32 28 34 31 27 18 19 21 24 26 23 22 22 29 26 23 20 18 14 8 12 14 16 24 29 31 32 35 40 38 43 33 39 43 47 51 54 53 53 57
51 51 50 49 38 31 29 31 29 30 14 21 23 28 29 26 24 22 22 27 22 20 20 16 12 13 15 13 22 26 28 32 34 38 37 40 39 38 42 44 47 51 52 51 52
51 50 49 40 40 36 34 31 32 24 16 17 25 25 27 27 25 28 21 27 25 21 22 17 17 10 11 11 14 24 27 31 32 33 33 35 37 35 38 46 44 47 51 51 50
50 48 47 42 28 34 34 20 15 13 20 16 20 23 19 21 25 26 23 23 22 25 24 20 16 12 10 10 13 21 26 30 30 30 30 34 34 37 35 35 40 40 47 51 51
48 47 45 39 41 40 33 8 14 10 13 20 19 19 18 17 21 23 23 19 21 21 19 19 15 16 12 11 14 18 24 26 30 26 28 34 32 33 39 38 37 37 41 47 51
47 34 33 38 42 40 23 2 7 11 12 11 18 20 19 19 18 22 23 19 18 21 22 19 18 15 14 12 13 19 23 25 25 27 25 26 33 34 34 36 36 37 38 44 49
40 34 31 38 44 39 16 8 5 1 7 15 13 15 19 19 19 19 22 21 18 18 23 22 22 16 15 15 12 17 22 23 25 29 27 25 29 29 35 34 33 32 35 40 45
37 27 38 44 42 33 18 6 1 -2 5 12 14 15 16 16 19 17 18 21 20 18 24 22 23 20 18 17 13 14 20 24 24 25 25 24 24 30 32 33 30 28 31 33 38
33 21 39 40 28 22 16 15 20 -1 -1 4 11 13 14 16 18 19 18 19 20 22 21 25 24 22 16 13 13 13 21 25 25 31 27 26 24 27 31 30 30 30 30 30 36
31 24 30 35 19 15 19 16 17 14 5 1 1 9 10 15 21 19 19 18 17 21 27 27 26 25 21 10 12 13 17 18 24 24 33 26 26 31 30 33 34 34 36 39 50
31 21 26 36 31 29 26 27 25 19 20 12 9 7 8 14 18 21 17 16 15 16 51 34 28 29 20 21 16 17 13 15 16 23 25 25 29 30 29 31 33 34 36 38 46
32 25 36 23 29 35 35 33 28 25 24 25 24 13 11 13 14 15 17 17 22 38 27 23 29 28 25 21 19 18 14 11 14 18 20 23 26 30 31 31 33 32 32 35 49
34 31 34 31 29 26 25 24 27 26 27 29 27 21 15 17 18 17 16 21 21 22 26 33 34 35 30 25 22 20 19 17 14 14 16 17 23 27 29 31 32 31 31 37 46
37 35 32 29 22 22 20 21 22 30 31 29 31 32 32 29 32 33 31 30 23 27 30 31 31 35 31 29 27 25 24 22 22 19 16 18 24 25 26 29 33 40 37 39 40

GFSSW_sfc_dewp_027.txt.gz
Dewpoint
55 55 55 55 56 56 56 56 56 57 57 57 57 58 58 59 58 52 39 46 51 76 74 56 55 55 55 56 53 48 44 38 31 35 38 42 42 47 50 51 51 52 56 59 61
55 55 55 55 55 55 56 56 56 56 56 57 57 57 58 59 46 33 56 69 75 75 58 51 48 50 48 51 49 46 45 37 36 37 40 40 41 46 47 50 51 51 56 60 61
54 54 55 55 55 55 55 56 56 56 56 56 57 57 58 57 39 26 67 71 74 73 44 44 44 45 44 44 44 42 47 40 36 38 41 41 40 45 46 46 50 52 56 59 60
54 54 54 54 54 54 55 55 55 55 56 56 56 57 58 47 25 40 68 70 73 57 47 40 37 42 40 38 39 41 42 35 38 37 40 40 39 40 44 44 49 53 57 58 58
53 53 53 53 53 54 55 55 55 55 55 55 56 57 52 33 26 44 69 67 53 47 46 34 34 31 35 28 34 40 38 35 36 38 39 42 40 39 42 45 48 53 57 57 57
53 53 53 53 53 54 54 55 55 54 54 55 56 57 44 26 21 36 34 48 38 36 31 28 25 26 24 26 31 38 37 35 36 38 40 40 42 42 46 48 49 54 55 55 55
53 54 54 54 53 52 53 54 53 53 55 57 57 54 35 28 20 22 33 32 31 33 25 22 20 19 23 22 28 35 35 37 36 37 39 42 42 41 48 49 50 53 54 54 55
53 53 54 54 53 53 53 53 53 54 57 59 58 51 31 27 27 22 24 23 26 32 26 22 19 19 21 23 29 32 34 33 36 36 42 42 41 46 51 49 48 51 53 54 55
53 53 53 53 53 52 51 52 53 56 59 58 55 47 32 43 28 24 23 23 26 26 30 23 17 18 21 21 27 30 30 31 35 37 43 42 52 45 50 49 48 50 52 53 55
53 53 53 52 52 51 51 52 53 57 58 54 50 42 35 27 29 31 32 29 24 24 26 23 17 16 21 22 25 31 30 30 38 35 42 41 44 46 49 49 47 49 50 53 53
52 52 52 51 51 50 48 32 38 47 47 37 35 29 26 26 31 28 31 27 24 23 18 18 13 16 22 25 28 31 31 31 34 33 40 41 41 44 49 49 48 47 50 50 52
52 52 52 51 50 49 46 25 21 20 17 16 19 21 29 26 25 27 30 23 24 20 17 15 13 15 22 22 26 28 30 30 29 36 38 40 40 41 47 50 49 48 49 49 50
52 52 51 51 49 45 21 28 26 20 16 13 12 12 14 17 21 21 28 21 20 19 13 9 8 11 19 21 24 26 29 30 27 39 39 38 39 40 42 47 50 49 49 50 50
52 51 51 49 40 27 24 30 25 21 17 13 15 13 13 15 15 20 25 22 18 18 12 9 8 10 16 20 23 24 28 28 27 38 35 37 33 40 40 42 46 49 50 47 50
52 51 50 48 38 30 23 23 21 25 16 19 19 21 18 18 19 17 20 26 20 18 17 12 7 10 14 17 22 25 26 29 29 33 37 33 32 35 38 39 40 46 50 49 49
51 51 50 37 36 33 28 26 22 20 17 17 21 22 23 19 20 21 18 24 23 21 17 15 12 9 9 15 19 23 26 29 29 28 31 35 36 33 39 40 40 43 47 50 48
50 50 47 40 28 28 26 21 12 13 18 17 18 19 22 22 22 24 19 20 21 22 21 18 15 8 8 13 17 20 23 24 25 25 26 36 35 43 35 38 39 38 41 47 50
49 47 43 35 36 35 31 16 15 14 15 14 15 19 18 17 20 22 20 17 21 20 17 17 15 14 11 12 16 19 21 23 28 23 23 29 32 32 36 36 38 37 36 42 49
47 34 30 29 34 33 27 8 12 15 14 13 15 16 19 14 14 20 23 18 17 20 21 19 19 16 13 12 10 17 20 20 22 24 23 25 30 32 36 34 36 37 35 35 44
42 37 29 30 38 35 25 18 12 10 9 9 14 16 17 16 16 17 20 21 17 18 19 21 21 18 12 12 7 11 16 19 22 28 28 24 28 30 36 35 35 35 33 32 36
41 23 34 35 37 34 25 18 16 12 9 8 11 15 15 17 16 18 16 19 18 18 18 17 21 20 19 16 13 8 11 18 19 23 24 24 26 31 36 36 34 33 33 31 31
33 24 34 35 29 26 23 23 25 17 12 6 7 11 17 15 15 18 18 18 17 18 18 19 19 21 20 17 14 12 13 15 25 30 25 25 23 27 29 32 32 32 31 30 32
33 29 25 27 20 15 21 18 17 15 15 13 5 7 11 16 20 17 18 17 18 21 22 21 20 22 23 18 18 17 15 8 13 21 33 26 25 31 30 31 32 32 32 35 35
35 26 22 27 27 20 18 21 21 21 15 16 15 11 8 11 17 19 17 16 18 18 53 34 21 26 20 25 19 20 15 12 8 19 25 25 29 29 30 33 34 33 34 34 37
36 28 30 29 22 32 31 31 30 32 31 26 21 17 12 12 12 14 15 19 17 36 26 25 29 25 22 22 21 14 12 10 13 17 20 24 27 30 31 32 35 35 35 36 35
40 36 33 30 29 28 27 23 17 17 26 30 27 23 20 17 16 14 14 20 22 21 22 26 29 31 28 23 23 21 11 10 10 12 16 18 23 29 31 32 35 33 33 34 35
41 42 38 31 27 25 22 26 19 22 29 31 33 38 37 31 31 31 28 18 20 25 28 28 26 29 27 25 24 22 22 19 18 16 15 16 23 26 27 30 34 43 37 37 37

GFSSW_sfc_dewp_030.txt.gz
Dewpoint
55 55 55 55 56 55 56 56 56 56 57 57 58 58 59 59 58 47 42 43 48 74 73 51 55 54 52 53 54 54 51 41 37 34 35 41 39 48 49 47 56 54 55 59 58
55 55 54 54 54 54 55 56 56 56 56 57 57 58 58 59 45 31 44 69 74 74 48 45 48 48 46 47 51 58 54 46 45 38 36 38 40 43 45 46 50 53 55 56 58
54 54 54 54 54 54 54 55 55 56 56 56 56 57 58 56 35 28 71 74 74 69 35 39 45 43 43 43 44 53 51 47 48 39 38 37 40 42 44 45 47 53 55 56 56
54 54 54 54 54 53 53 54 54 54 55 55 56 57 58 49 24 31 69 74 74 50 36 35 39 40 40 39 44 52 55 50 39 39 37 36 37 42 43 45 49 54 56 57 55
53 53 54 54 54 54 54 54 54 54 54 55 56 57 51 34 30 35 71 70 55 44 37 36 35 37 36 38 36 50 51 49 36 35 37 39 36 36 41 45 49 54 57 57 56
52 53 54 54 54 54 54 54 54 54 54 55 56 57 45 22 24 33 37 45 33 37 36 38 34 33 33 34 31 29 41 39 34 35 38 39 37 35 40 44 49 53 55 55 55
53 53 53 53 53 53 54 54 54 53 54 56 59 53 35 25 26 36 31 35 35 34 30 30 33 28 31 26 26 26 34 35 35 34 36 37 39 37 42 43 48 51 54 54 55
53 53 53 53 53 53 53 52 53 53 55 58 59 50 32 21 25 26 21 27 31 30 28 25 23 22 22 24 23 22 29 34 34 33 36 36 45 39 44 40 47 50 51 53 54
53 53 53 53 53 52 52 52 53 54 57 58 55 50 34 42 29 25 22 21 22 20 29 24 20 17 19 20 20 23 27 31 34 34 36 38 51 50 49 40 45 48 49 51 53
53 53 53 53 52 51 51 51 53 54 57 53 50 45 42 28 28 25 21 18 18 21 23 24 21 16 15 19 19 22 27 29 36 36 35 48 52 50 47 44 42 45 49 51 51
53 52 52 52 51 50 47 40 36 41 46 42 36 29 22 32 26 28 22 19 22 23 18 22 18 17 16 20 22 22 27 28 36 45 34 44 49 54 49 45 43 43 47 48 50
52 52 52 52 51 49 46 31 23 21 17 15 19 30 35 28 26 26 26 27 25 20 19 18 17 14 16 19 23 24 26 30 36 45 42 37 49 53 50 45 45 45 45 47 49
52 52 52 51 50 45 27 21 27 22 15 13 11 10 20 31 26 23 24 24 21 19 18 16 13 10 12 17 23 23 26 29 32 38 36 35 35 39 44 46 45 45 47 47 48
52 52 51 50 41 32 27 26 20 18 15 14 11 10 9 14 17 23 24 25 17 19 19 16 12 10 8 15 21 22 24 26 31 34 33 35 31 41 40 46 45 44 44 46 48
52 51 50 50 39 35 29 25 22 19 15 16 13 14 10 9 12 12 19 25 20 16 17 17 12 9 8 10 18 22 24 25 26 31 36 39 36 38 43 42 44 43 45 45 48
51 51 50 40 36 36 32 25 22 16 16 17 18 17 12 9 9 15 13 19 24 18 16 16 13 8 6 6 13 20 22 24 25 26 30 38 35 38 40 43 45 43 42 49 46
51 50 48 42 33 28 29 24 14 13 19 17 18 19 17 11 10 18 15 15 18 23 20 17 15 11 6 7 11 15 20 23 24 25 24 32 38 41 40 42 44 43 44 48 50
49 47 45 40 37 37 32 21 18 17 15 16 15 18 18 18 14 13 20 15 16 20 18 17 15 13 11 9 10 13 16 23 27 24 25 28 29 39 43 43 46 47 45 45 48
48 39 36 29 32 33 28 18 17 19 18 15 15 15 18 18 19 18 20 18 15 19 22 19 17 15 13 10 8 11 16 16 21 23 23 25 29 32 38 40 45 44 40 42 45
42 39 37 35 29 31 26 24 21 17 16 15 15 17 17 17 18 17 21 22 16 15 20 20 20 16 14 13 9 9 14 14 17 26 27 24 30 31 42 42 41 41 39 42 42
41 33 29 29 31 32 27 24 23 23 22 18 17 14 12 16 18 18 15 19 20 15 16 17 22 19 19 18 14 10 9 12 15 21 23 25 27 33 38 44 42 40 40 39 35
35 28 28 33 27 27 24 25 29 25 26 22 20 16 13 11 16 17 18 17 17 19 18 17 18 22 17 18 16 12 15 14 16 29 23 24 25 26 42 40 41 39 40 39 39
34 30 29 26 22 20 23 19 19 21 22 23 21 20 16 12 17 16 19 17 17 17 21 23 19 22 20 16 18 16 14 8 8 11 29 23 24 31 36 39 40 38 38 43 46
37 27 24 24 25 21 27 30 25 20 18 21 24 24 20 17 16 19 17 17 17 18 54 32 20 26 18 23 20 22 17 15 10 14 18 23 27 30 36 40 41 41 41 42 50
38 29 28 29 27 31 36 35 32 28 28 29 28 27 31 29 14 12 13 15 17 38 25 24 28 25 21 17 18 19 17 14 17 20 20 19 29 30 33 40 40 50 45 46 49
38 32 34 31 29 24 26 26 26 27 32 27 30 31 35 34 36 35 34 28 22 21 22 27 30 28 25 17 17 19 19 17 18 17 18 19 20 27 33 35 44 38 41 45 47
40 44 43 34 27 23 18 22 30 31 32 29 35 35 33 31 35 35 33 32 29 26 30 31 26 33 28 24 21 20 24 22 18 19 19 20 26 30 31 36 41 45 41 46 45

GFSSW_sfc_dewp_033.txt.gz
Dewpoint
55 55 55 55 55 54 54 55 55 55 56 56 57 58 58 59 58 50 46 44 52 72 74 62 62 59 60 64 62 60 57 53 45 37 38 46 47 51 55 56 58 57 61 62 64
54 54 54 55 55 54 54 54 54 55 55 56 56 57 58 59 52 38 45 61 65 73 56 49 47 51 50 49 58 58 55 50 45 45 39 48 49 50 54 55 57 57 60 62 63
53 53 53 53 54 54 54 55 54 54 54 55 56 56 58 57 47 27 71 63 66 72 45 38 36 44 45 46 57 56 53 48 45 46 44 40 43 46 51 53 54 57 58 61 61
52 52 52 52 53 53 54 54 55 54 54 54 55 56 58 54 22 30 73 74 73 61 45 30 28 34 40 41 52 50 53 48 47 47 46 39 40 44 46 51 56 57 59 60 58
53 53 53 53 53 54 54 54 55 55 54 54 55 56 53 43 34 34 70 72 64 54 41 34 29 34 37 39 49 48 46 42 44 45 45 38 42 43 45 54 56 55 55 57 57
54 54 54 54 54 54 54 54 54 54 53 54 55 57 52 27 19 20 50 56 47 43 36 33 33 35 35 35 44 49 47 41 42 47 41 36 37 44 48 54 55 55 55 56 55
54 54 54 54 54 54 54 54 54 53 53 54 56 55 45 27 23 36 40 43 44 37 33 32 34 36 34 32 32 32 45 43 40 39 39 38 35 40 48 53 55 56 56 56 56
54 54 53 53 53 53 53 53 53 53 54 55 58 53 42 29 30 27 24 32 39 34 33 32 32 30 29 24 22 24 22 22 37 34 39 40 45 40 43 52 54 55 56 56 57
53 53 53 53 52 52 52 52 53 54 55 58 56 52 43 45 34 28 24 23 26 34 31 29 25 24 22 20 19 20 19 21 36 36 37 45 47 45 48 48 52 53 54 54 55
53 53 52 52 52 51 51 51 52 54 55 55 51 48 48 33 31 29 26 24 24 25 20 23 25 21 17 16 16 18 20 21 34 37 43 45 47 43 48 46 49 51 52 52 53
53 52 52 52 51 50 48 42 34 40 46 46 42 39 28 31 34 29 26 22 18 17 17 22 22 20 18 15 17 19 21 21 32 41 46 47 46 43 43 45 45 49 50 51 52
52 52 52 52 51 49 48 40 26 24 22 20 18 26 37 37 35 28 24 18 17 15 18 21 19 21 20 19 16 18 19 21 41 41 40 46 45 46 46 45 47 46 49 49 51
52 52 52 51 49 47 32 29 26 21 17 14 14 13 13 20 27 29 23 17 17 18 21 19 19 20 19 16 16 17 18 22 40 41 43 40 45 47 41 45 47 47 48 49 50
52 52 51 51 42 37 33 33 29 22 16 15 13 12 11 13 20 29 25 24 25 23 22 20 18 18 17 13 15 16 20 24 38 38 39 40 42 47 46 46 47 47 44 46 49
52 52 51 50 43 40 35 34 29 24 16 20 15 13 11 9 18 24 30 23 23 21 19 18 19 17 14 13 11 15 22 24 23 38 38 37 39 45 49 48 47 45 44 44 47
52 51 50 43 39 39 36 32 29 19 16 18 14 10 8 7 10 13 25 23 25 22 17 18 20 17 14 12 9 12 18 20 22 26 36 34 41 38 39 46 46 45 44 45 45
51 50 48 45 38 33 38 33 18 14 20 19 16 15 9 8 7 8 15 17 18 21 20 17 16 16 16 10 9 8 8 15 19 21 24 37 36 38 38 42 46 45 44 45 47
50 48 46 42 42 42 39 28 20 20 17 19 18 18 15 14 9 8 8 13 16 18 21 20 15 15 16 10 7 6 5 12 19 21 22 27 36 37 40 42 44 45 45 45 47
49 40 38 38 38 40 34 25 20 22 21 20 20 18 18 18 16 10 9 12 13 15 16 20 19 19 15 15 7 12 7 10 14 20 24 24 26 38 39 43 46 42 42 45 45
44 39 38 39 38 36 31 27 25 24 24 23 21 21 18 17 17 17 12 13 16 15 15 18 22 20 18 15 13 6 13 8 10 11 18 20 25 32 39 43 44 43 45 46 48
42 35 33 31 31 31 26 26 26 26 26 24 23 22 22 20 18 16 15 17 16 18 15 14 16 20 20 15 11 13 8 11 13 14 15 20 22 30 39 43 45 45 44 44 45
37 31 31 32 27 28 26 27 31 26 26 25 26 25 25 24 22 19 15 14 19 20 16 16 16 17 18 21 15 13 9 10 13 18 21 15 17 28 36 43 43 44 43 44 45
35 33 34 31 24 24 26 24 22 20 25 27 24 23 24 23 23 22 21 19 15 14 21 18 16 15 17 17 18 13 13 9 7 13 14 20 19 22 28 42 44 45 43 44 43
39 29 28 31 29 27 29 31 32 32 28 28 30 29 29 23 26 26 25 22 15 13 49 43 16 14 14 17 22 22 15 14 8 7 8 10 12 23 35 40 40 41 38 40 47
42 31 29 29 30 30 36 36 32 29 29 31 32 31 33 34 33 31 34 35 33 38 31 21 22 19 16 20 20 18 20 15 12 11 10 8 13 19 22 40 42 42 39 38 44
39 34 34 33 31 27 28 22 27 28 30 31 29 36 32 36 34 31 31 33 33 33 32 31 30 29 25 20 16 16 17 17 14 13 13 14 18 27 27 42 43 43 36 42 44
45 45 41 34 31 26 24 25 27 29 31 30 30 35 34 30 34 35 30 31 33 34 34 31 29 31 22 25 25 24 16 16 21 19 18 16 18 25 25 34 37 42 40 32 36

GFSSW_sfc_dewp_036.txt.gz
Dewpoint
54 54 54 54 54 54 54 55 55 55 55 55 56 56 58 58 58 53 37 39 49 74 73 68 65 63 65 62 62 61 56 52 49 46 48 53 55 57 58 58 57 60 61 63 64
54 53 53 53 53 54 54 54 54 54 54 55 55 56 57 58 54 46 46 61 65 71 59 64 62 61 62 60 59 58 53 51 51 49 46 50 55 56 57 58 59 60 63 64 64
53 53 53 53 53 53 53 54 54 54 54 54 55 56 57 57 45 26 63 63 66 68 49 53 56 55 51 55 57 57 50 50 48 46 47 52 55 56 57 56 59 60 62 63 64
53 53 53 53 53 53 53 53 54 54 54 54 54 56 57 55 7 26 69 74 66 58 48 43 38 33 40 50 56 54 54 48 49 48 45 49 54 55 56 55 59 61 62 62 63
53 53 53 53 53 53 53 54 54 53 53 53 54 56 53 43 34 21 68 72 63 55 45 40 30 28 32 40 52 51 50 49 48 46 45 44 49 54 54 57 59 62 62 62 62
54 54 54 54 54 54 54 54 54 53 53 53 54 55 50 16 17 24 47 55 52 47 44 38 33 30 32 38 48 49 48 46 48 46 43 42 44 51 54 57 59 61 61 61 60
54 54 54 54 54 54 54 53 53 53 53 54 54 54 50 22 22 26 44 45 48 42 36 37 35 33 37 35 44 46 40 46 44 43 45 41 48 52 56 56 58 60 60 59 59
53 53 53 53 53 53 53 53 53 53 55 55 55 54 44 39 34 27 24 26 42 43 38 34 34 33 33 31 25 20 37 41 42 43 41 37 45 53 55 54 55 58 58 57 58
53 53 53 53 53 52 52 52 53 53 55 56 55 51 41 50 41 32 27 25 32 39 33 34 31 29 28 23 19 21 17 22 23 34 42 43 44 53 54 54 54 54 54 56 58
53 53 53 52 52 51 51 51 51 53 55 56 53 46 41 34 40 31 26 24 24 34 34 29 28 23 20 18 16 17 18 20 25 41 42 41 45 50 53 54 55 55 55 55 56
53 53 53 52 51 50 48 45 29 29 47 43 44 42 34 37 36 31 27 25 22 25 23 21 23 23 21 19 17 18 19 20 24 36 40 41 43 47 51 53 54 55 55 55 55
53 53 52 51 51 49 47 38 36 28 22 22 28 31 38 38 36 37 28 24 21 18 18 18 17 22 23 21 17 15 15 17 39 43 44 44 42 41 46 51 53 53 54 54 55
53 53 52 51 50 43 37 31 33 30 19 17 18 19 20 28 29 28 28 22 20 17 16 14 18 23 22 21 19 16 14 16 22 41 43 44 44 43 44 46 46 52 53 53 53
52 52 51 50 39 42 39 36 36 32 16 16 14 14 15 15 15 20 31 21 17 16 16 16 18 20 19 19 19 16 18 18 23 34 34 39 35 44 43 44 45 46 50 51 52
52 52 51 50 44 43 38 38 36 24 17 22 16 15 13 11 16 19 25 23 18 21 20 21 20 19 18 17 19 17 18 19 23 37 38 39 38 40 47 45 43 46 47 50 51
52 52 51 44 42 41 39 39 31 15 15 18 16 9 10 10 12 22 25 29 26 23 23 21 23 21 19 19 19 18 14 17 21 32 32 35 39 41 44 46 44 46 47 47 49
52 50 49 45 40 39 41 34 13 15 18 20 19 20 9 8 8 13 25 26 23 21 21 22 19 19 19 17 16 15 10 12 13 15 19 36 39 38 41 47 47 46 48 47 48
50 49 46 41 45 44 38 24 16 17 17 23 23 21 14 10 6 7 13 25 26 22 21 20 19 18 18 17 15 11 7 8 9 16 19 27 35 38 41 41 48 48 47 47 45
49 42 39 38 37 40 34 26 19 20 24 24 24 21 17 19 21 12 6 13 24 19 20 21 21 23 17 17 16 13 7 7 10 29 20 23 33 35 39 40 44 47 47 46 44
45 41 39 39 38 37 32 29 24 26 26 26 23 23 22 23 23 23 18 10 8 15 18 18 18 21 20 18 16 13 10 11 9 5 6 16 23 28 35 39 42 46 47 45 46
42 36 35 33 30 33 30 28 26 26 26 26 25 24 24 23 24 23 23 19 18 12 15 17 16 17 22 20 17 15 8 19 6 8 7 10 13 25 28 40 42 45 46 45 45
38 32 34 34 27 28 29 28 31 26 27 26 26 24 24 26 24 21 23 23 24 23 18 14 14 14 13 19 19 17 14 7 8 9 17 9 13 25 27 38 44 42 44 45 46
35 35 35 32 26 30 32 30 32 30 30 29 28 30 30 30 27 23 24 25 33 33 22 24 14 11 12 13 16 18 15 11 10 11 8 17 16 20 21 41 44 43 44 47 49
36 31 30 31 35 32 31 33 31 31 29 31 31 32 33 34 35 33 32 33 32 32 45 35 26 15 13 14 16 17 17 13 8 9 8 10 14 13 23 37 45 45 45 46 46
37 33 32 29 30 32 32 32 31 30 32 33 31 31 35 33 34 33 33 32 31 36 33 32 26 19 19 15 16 19 19 17 11 8 7 8 12 12 14 26 40 45 46 44 43
38 35 35 33 32 32 28 26 35 35 32 29 30 30 35 35 34 31 31 31 29 33 31 34 28 28 27 23 15 14 17 17 16 13 10 11 12 15 15 24 30 42 44 42 39
44 44 40 34 31 28 26 28 27 30 33 32 30 32 31 30 31 32 33 30 31 29 29 33 30 27 26 22 15 15 16 19 18 19 15 13 16 22 23 32 34 41 41 39 41

GFSSW_sfc_dewp_039.txt.gz
Dewpoint
54 54 54 54 54 54 54 55 55 55 55 55 55 56 57 58 57 55 33 37 51 76 75 69 65 65 64 62 64 62 56 52 51 51 52 57 56 58 59 58 58 60 61 63 65
54 54 53 53 53 54 54 54 54 54 54 55 55 55 56 57 54 48 47 62 67 74 67 65 63 63 63 58 59 59 53 49 50 49 52 56 56 56 57 57 59 60 61 64 65
53 53 53 53 53 53 53 54 54 54 54 54 54 55 56 57 40 18 66 63 70 70 65 65 63 63 57 58 57 57 51 50 50 50 52 55 55 57 56 56 59 59 61 63 64
53 53 53 53 53 53 53 53 53 53 53 54 54 54 56 54 8 20 73 69 69 61 61 58 61 58 52 56 56 53 54 52 48 48 51 55 56 56 55 56 59 60 62 63 63
53 53 53 53 53 52 53 53 53 53 53 53 54 54 52 42 25 18 70 68 64 49 47 44 54 49 35 44 54 54 52 51 50 47 48 55 55 55 56 58 60 61 63 63 63
53 54 54 54 54 53 54 54 54 53 53 54 54 54 47 9 14 29 52 57 55 47 39 40 38 34 32 33 47 51 52 49 49 48 48 54 54 55 56 60 60 61 62 63 63
54 54 54 54 54 54 53 53 53 53 53 54 54 52 50 16 19 25 45 47 52 46 42 40 36 32 29 33 47 46 47 49 47 46 46 45 49 54 56 60 60 60 61 62 63
54 54 54 54 54 53 53 52 52 53 54 56 56 52 38 39 37 29 30 24 45 44 34 40 38 33 32 33 29 28 35 33 30 44 43 43 42 52 57 58 60 60 60 61 62
54 54 54 54 53 52 52 52 53 53 56 56 53 50 31 47 45 41 28 23 32 42 40 37 34 31 31 29 21 19 22 25 26 43 40 41 45 54 56 57 59 60 59 60 60
54 53 53 53 52 52 51 52 52 54 56 55 54 43 40 29 42 34 29 26 29 36 37 33 30 27 24 22 22 20 18 20 21 40 39 40 44 54 56 56 58 59 59 60 59
53 53 53 52 52 50 49 43 30 30 37 40 42 39 34 34 39 35 27 24 24 30 31 29 26 25 24 22 20 20 19 20 22 23 41 38 47 53 54 54 57 58 58 58 57
53 53 52 52 50 51 43 31 32 31 29 27 27 25 30 35 30 31 25 22 22 21 25 22 25 27 26 23 20 18 17 16 23 39 40 40 45 52 53 53 53 54 56 56 56
52 52 52 51 50 42 39 34 36 35 25 21 21 20 20 26 29 29 26 23 22 20 19 22 21 23 24 22 19 18 16 17 17 38 44 43 42 48 53 53 54 54 54 55 55
53 52 51 51 37 43 33 37 37 36 18 18 15 16 20 28 28 29 32 23 20 19 18 17 18 19 22 22 22 19 20 19 19 28 31 42 38 43 47 49 51 54 55 55 55
52 52 51 50 42 40 32 38 39 25 19 25 16 16 16 15 15 24 30 23 19 19 16 17 16 16 18 18 22 21 21 19 20 22 28 33 35 39 42 44 45 48 53 54 55
52 51 50 45 43 42 41 41 29 15 17 20 17 13 13 12 10 21 24 26 22 19 20 16 22 15 15 20 20 21 20 19 21 23 25 24 36 36 45 42 42 44 48 52 53
50 49 48 45 39 40 42 32 14 15 20 21 22 23 22 9 10 18 18 23 22 18 17 19 15 21 20 18 20 18 15 14 11 16 15 18 34 32 39 45 44 43 45 48 52
49 48 45 41 42 44 37 23 14 18 16 25 25 24 20 23 15 17 22 22 24 22 18 20 20 19 20 20 18 17 15 15 10 15 12 23 26 24 36 40 46 46 45 46 49
48 43 41 40 39 40 32 23 18 20 25 25 25 22 22 24 24 24 19 23 25 23 20 21 21 23 21 19 18 16 14 15 8 26 15 21 29 36 38 40 41 46 46 45 47
44 40 39 40 40 37 31 27 25 27 25 26 24 25 23 24 23 23 24 21 18 26 22 22 20 22 20 18 18 17 12 9 9 8 7 10 20 25 36 37 40 45 47 46 48
39 35 35 34 34 34 29 29 28 27 27 25 25 25 24 23 25 23 23 24 30 29 24 19 19 19 22 20 15 15 15 15 10 9 7 7 9 24 30 37 39 42 46 47 47
35 30 33 35 26 29 30 31 33 28 29 26 27 26 26 28 28 24 22 24 33 33 29 26 15 17 18 19 21 17 14 13 10 7 12 7 10 23 22 25 38 41 43 47 48
33 33 38 37 31 29 29 31 33 31 31 29 29 31 32 30 26 32 33 33 32 31 36 38 27 12 12 19 16 18 18 13 11 9 9 13 12 17 22 32 37 41 44 46 49
35 31 32 33 35 31 31 29 29 34 31 32 31 33 34 34 35 33 32 34 31 29 42 35 29 22 13 13 16 15 18 17 11 10 11 11 14 18 22 23 33 45 45 47 48
35 33 31 28 31 32 33 31 33 32 36 32 29 30 35 30 32 33 32 31 31 36 30 33 30 27 25 25 24 17 15 15 13 14 12 13 11 12 18 26 29 36 46 46 48
38 36 36 34 33 30 29 29 32 31 33 35 33 30 31 32 32 31 31 30 30 30 26 32 31 30 27 26 26 21 17 16 16 16 13 11 13 16 16 19 22 27 42 46 46
44 43 40 36 34 29 27 28 28 29 32 37 31 29 28 29 32 31 33 32 32 29 27 29 32 30 27 26 25 19 17 16 17 18 18 13 13 16 15 19 19 22 31 43 45

GFSSW_sfc_dewp_042.txt.gz
Dewpoint
54 53 53 53 54 54 54 55 55 55 55 55 55 55 56 57 57 55 37 35 44 75 74 70 66 65 65 64 64 62 53 51 51 52 52 57 57 58 60 58 59 60 61 63 67
53 53 53 53 53 53 54 54 54 54 54 54 55 55 55 57 53 48 47 58 64 76 69 66 63 65 62 59 60 57 52 50 52 52 55 56 57 57 57 56 59 60 64 65 66
53 53 53 53 53 53 53 53 53 54 54 54 54 55 55 56 37 14 61 61 71 75 66 64 63 62 61 57 57 57 51 50 49 50 56 56 56 57 57 55 59 60 63 65 65
53 53 53 53 53 53 53 53 53 53 53 54 54 54 55 53 10 39 72 64 75 68 65 63 62 62 56 58 57 54 55 53 50 49 56 56 56 56 55 54 60 62 63 64 65
53 54 53 53 53 53 53 53 53 53 53 53 54 54 51 41 23 61 70 67 72 63 62 62 60 58 52 54 56 55 55 53 52 48 55 56 55 56 54 59 59 62 63 64 64
54 54 55 54 53 54 54 54 54 53 53 53 54 53 46 7 10 27 58 62 68 58 59 57 61 54 39 34 51 52 53 51 50 48 50 54 55 56 56 59 60 62 62 63 63
54 54 54 54 53 54 54 53 53 53 53 54 54 52 50 10 18 31 57 55 60 51 49 42 46 53 37 29 37 46 43 44 49 49 47 54 53 54 57 60 60 61 62 63 63
53 53 54 54 54 53 53 53 53 53 55 55 55 51 30 33 40 34 43 47 51 48 39 40 39 48 33 32 28 38 43 41 40 42 46 51 50 54 58 59 59 60 62 62 63
54 54 54 53 53 52 51 52 53 56 57 57 51 48 26 45 43 36 24 29 46 47 42 37 36 33 31 27 25 22 24 27 26 34 40 47 45 48 58 59 59 59 61 62 62
53 53 53 53 52 51 51 51 52 56 54 53 53 43 39 30 41 38 29 22 29 40 39 36 32 30 27 25 21 25 20 20 22 31 42 41 43 51 57 58 58 58 59 61 62
53 53 53 52 51 50 48 36 31 31 33 45 42 40 36 34 36 32 29 25 34 35 33 33 31 26 25 23 24 25 20 21 22 25 40 39 43 54 56 57 57 58 58 59 60
53 52 52 51 50 50 40 32 32 31 30 30 30 28 33 31 28 28 25 21 24 26 30 24 28 30 27 26 22 19 20 18 19 22 34 37 40 54 55 56 58 58 58 58 59
52 52 51 51 50 42 39 34 36 35 29 25 27 25 24 27 26 26 23 22 23 22 28 25 26 29 26 24 23 20 19 18 20 30 43 42 42 52 55 55 56 58 59 59 59
52 51 50 50 38 42 31 38 38 37 20 20 17 18 25 24 23 28 26 22 22 23 22 23 24 28 25 24 22 20 20 20 18 21 19 42 38 45 52 53 53 54 57 58 58
52 51 50 49 41 40 32 39 39 27 15 24 16 17 22 21 19 26 30 25 20 21 19 20 20 21 25 24 23 22 21 19 19 22 23 28 37 38 50 52 52 53 54 55 56
52 51 50 44 42 42 42 41 30 20 18 22 21 18 15 14 12 24 27 27 22 19 20 19 21 21 19 21 23 23 19 17 22 22 20 19 28 30 44 50 52 53 54 55 55
51 49 48 45 36 40 42 31 17 18 21 23 23 24 23 19 12 20 22 24 20 17 16 18 17 20 17 16 21 20 18 16 14 16 16 18 31 22 41 45 49 51 52 54 55
49 48 44 41 41 40 37 22 17 18 20 26 25 25 23 24 24 24 20 23 24 20 18 17 16 16 19 15 16 18 17 17 12 13 14 23 21 24 32 44 45 47 49 50 52
48 42 40 39 39 39 30 20 18 22 25 25 25 23 23 24 24 24 23 21 25 22 18 18 18 23 18 20 16 18 16 16 12 23 13 18 23 28 35 34 44 44 45 45 47
43 40 37 40 36 36 31 26 25 27 27 26 24 25 23 23 24 23 22 30 30 31 27 22 19 22 17 20 18 16 17 15 13 14 12 13 20 22 33 34 37 41 46 46 46
37 34 32 37 36 33 23 28 29 28 29 27 24 24 24 26 27 24 22 30 32 32 32 28 20 19 20 20 18 17 13 14 15 13 11 10 14 25 31 32 28 30 42 46 47
34 28 31 35 29 30 27 28 36 34 32 30 28 29 29 30 27 25 26 30 30 30 35 38 21 18 19 22 21 19 18 12 15 12 12 12 12 21 22 29 37 38 39 46 49
33 34 37 35 26 27 29 30 30 37 34 31 30 31 32 30 25 33 33 33 31 32 36 36 28 14 14 17 20 19 17 15 13 13 14 11 14 18 22 24 25 36 39 46 49
34 28 31 32 32 29 29 29 28 34 35 36 32 34 34 33 35 32 32 33 31 33 38 35 30 24 21 23 24 19 19 18 14 14 15 14 17 23 20 21 28 35 41 41 48
33 30 32 27 29 32 30 30 29 30 32 38 36 33 30 29 31 32 32 31 31 34 30 31 28 30 28 29 28 26 25 22 17 15 15 17 17 19 22 23 24 30 42 47 48
35 36 37 33 34 32 29 26 30 28 30 31 34 35 28 29 30 29 31 30 29 30 26 29 27 31 29 29 27 24 24 22 21 18 17 17 18 20 22 26 28 31 37 45 47
44 43 39 33 32 32 28 27 28 30 29 33 34 31 26 28 31 32 32 32 31 31 30 27 29 30 27 29 28 23 22 22 21 20 19 17 21 22 21 23 25 28 30 40 46

GFSSW_sfc_dewp_045.txt.gz
Dewpoint
54 54 54 54 54 54 54 54 54 54 55 55 55 55 56 57 56 54 35 33 43 74 69 67 65 65 66 65 64 60 56 49 49 50 51 57 56 57 59 58 58 60 60 61 65
54 54 54 54 54 54 54 54 54 54 54 54 55 55 55 56 52 43 46 56 63 74 64 63 60 63 60 62 62 60 55 48 50 52 53 56 56 57 57 55 58 61 61 64 65
54 54 54 54 54 54 54 54 54 54 54 54 54 55 55 54 37 15 58 60 69 71 64 61 61 59 57 60 59 58 51 50 48 50 53 56 56 57 56 54 57 60 62 63 64
53 53 54 54 54 54 54 54 54 54 54 54 54 54 55 53 9 38 72 65 71 64 63 61 61 57 56 55 57 52 54 52 51 50 52 55 56 56 55 52 55 61 63 63 63
53 53 53 53 53 53 54 54 54 54 54 54 54 53 51 37 15 53 65 64 70 63 59 58 59 57 54 57 55 53 53 54 53 51 49 55 56 55 55 58 59 61 63 63 63
53 54 54 54 54 54 54 54 54 53 54 54 54 52 45 9 8 42 52 63 63 60 56 57 57 58 55 53 55 52 54 52 49 48 52 54 55 56 56 60 60 61 61 62 62
53 53 54 54 53 54 54 53 53 53 53 54 54 51 45 13 30 35 56 60 61 55 54 54 58 56 47 35 47 43 42 40 44 47 48 54 54 55 57 60 60 60 61 62 62
53 54 54 53 53 53 52 52 54 57 55 54 55 50 29 30 32 28 54 56 63 56 49 55 58 55 41 33 29 36 40 36 41 46 47 51 44 54 58 58 58 59 60 61 62
53 53 53 53 52 51 51 52 56 58 57 56 51 49 22 46 29 22 48 45 55 54 47 49 48 45 36 39 31 29 28 33 35 42 44 49 43 49 57 57 58 59 60 60 61
53 53 52 52 51 50 51 49 55 56 54 53 49 42 34 26 35 29 29 46 49 48 42 36 40 38 31 32 24 27 27 27 31 31 38 46 43 46 57 57 58 58 59 60 60
53 53 52 51 50 50 46 38 31 33 32 43 43 38 38 32 39 33 25 37 37 42 34 34 29 28 29 30 27 25 27 30 30 29 35 36 37 42 55 56 57 58 59 59 59
53 52 52 51 50 50 40 31 30 32 31 32 30 32 37 34 28 31 20 30 27 28 32 31 27 26 27 27 26 24 23 28 27 23 26 28 34 42 52 56 57 57 58 58 58
52 52 52 51 50 42 39 34 38 37 32 28 29 27 26 28 28 28 18 17 23 20 26 23 21 26 27 27 25 22 21 24 26 23 35 35 33 46 52 56 57 58 58 58 59
52 51 51 50 38 40 31 38 40 39 23 19 20 22 23 26 25 27 25 18 21 20 21 21 23 24 25 24 25 20 20 19 25 26 25 38 28 45 49 54 56 57 58 57 58
51 51 50 49 42 38 34 40 40 36 2 22 16 20 23 24 18 25 26 22 18 21 25 22 23 26 26 23 27 21 20 22 21 26 24 25 28 31 48 50 53 55 57 57 57
51 50 50 43 43 41 41 40 36 19 9 22 19 17 21 21 17 27 25 27 23 24 22 20 23 25 27 26 26 25 23 22 23 22 22 25 25 27 40 49 51 53 55 57 57
50 49 47 43 34 38 40 33 20 17 20 24 24 25 24 22 15 22 25 24 22 21 22 21 19 24 24 25 26 23 20 18 18 19 19 24 23 27 31 41 46 51 54 55 57
49 47 42 41 40 39 37 21 19 18 24 25 25 25 23 24 23 23 24 23 25 20 18 18 17 19 21 22 21 24 17 12 16 12 13 24 23 25 29 29 43 44 49 53 56
48 41 37 38 38 38 31 10 17 25 26 24 25 24 24 24 25 24 23 23 24 23 21 18 17 19 19 21 21 22 20 15 12 18 14 16 23 26 31 30 33 45 47 50 54
43 38 34 36 37 37 26 22 26 29 31 25 24 24 24 24 25 23 26 30 27 31 32 24 21 20 17 18 20 20 21 16 17 16 13 13 20 19 32 31 35 39 45 48 51
39 32 30 36 34 31 23 26 29 32 34 29 25 24 25 27 27 24 27 30 30 31 36 31 24 23 20 19 17 17 19 17 16 15 10 7 9 27 33 36 34 35 42 44 46
38 25 33 36 25 29 24 27 34 33 35 31 30 30 28 28 26 27 29 31 29 34 34 35 24 24 22 21 20 18 20 20 17 24 16 13 10 23 29 33 36 36 38 41 45
37 34 36 33 26 27 29 28 28 31 33 36 32 32 32 29 26 31 32 32 29 33 32 33 29 23 23 22 22 20 20 19 18 17 26 13 11 24 27 29 32 36 38 44 49
38 28 30 32 33 30 29 27 26 29 33 37 38 33 32 31 33 29 29 31 29 32 38 34 31 29 21 25 28 26 22 21 18 20 19 20 18 22 23 26 31 33 36 39 48
40 32 34 27 28 30 32 29 27 27 28 34 36 36 33 30 27 29 30 29 27 34 29 31 26 27 27 26 27 28 26 24 23 23 22 21 25 25 26 30 33 36 39 41 45
38 35 37 33 32 29 29 27 27 27 28 25 33 34 32 32 29 28 30 30 27 31 29 30 24 30 23 24 24 25 25 25 24 24 23 22 23 27 29 31 33 34 36 40 42
45 44 39 34 33 29 29 27 30 28 28 31 34 29 27 26 29 29 29 29 29 30 29 29 26 25 21 23 24 22 24 25 25 25 24 24 27 29 29 32 37 40 42 42 44

GFSSW_sfc_dewp_048.txt.gz
Dewpoint
54 54 54 54 55 55 55 55 55 55 55 55 55 55 56 56 56 51 33 36 43 65 68 57 56 59 62 61 62 61 53 45 44 46 49 55 54 55 55 56 57 58 59 62 64
54 54 54 54 54 54 54 54 55 55 55 55 55 55 55 56 45 33 47 61 60 68 51 56 55 57 58 57 58 58 51 45 48 49 50 54 53 55 53 54 55 58 60 63 64
54 54 54 54 54 54 54 54 54 54 55 55 55 55 55 54 36 14 60 62 68 69 45 54 52 56 51 55 56 56 49 47 47 49 51 53 53 55 53 51 55 57 60 62 63
53 53 53 53 53 53 53 54 54 54 54 54 54 54 55 47 13 33 70 63 71 51 49 53 53 52 48 52 53 52 53 49 48 49 49 51 53 54 54 49 54 58 61 61 62
53 53 53 53 53 53 54 54 54 53 54 54 54 54 50 36 19 41 65 62 63 50 48 52 51 47 44 48 50 52 51 51 50 49 48 50 52 53 54 53 55 59 61 61 61
52 53 54 54 54 54 54 53 54 53 54 54 54 53 42 26 12 13 41 48 52 50 47 51 49 45 45 49 49 47 49 50 48 46 47 51 52 54 55 56 56 58 59 60 60
53 54 54 54 54 54 53 53 52 55 57 55 54 50 42 29 19 20 39 44 51 49 43 48 48 47 44 46 47 47 46 46 43 43 46 51 51 52 56 57 57 58 59 59 60
53 54 54 54 53 53 52 53 54 59 56 55 55 48 37 30 28 33 38 44 50 47 40 42 47 48 42 35 32 35 35 35 40 42 45 48 43 51 56 57 57 58 58 59 60
53 53 54 53 53 52 52 52 57 57 56 56 50 45 31 40 20 24 39 47 49 45 42 43 46 44 45 40 30 29 32 34 39 42 43 46 43 47 55 56 57 57 57 57 59
53 53 53 52 52 51 51 52 56 56 53 52 46 41 34 26 26 15 42 41 50 48 44 46 45 39 40 39 28 28 28 32 37 39 40 43 42 42 51 53 55 57 57 57 57
53 52 52 52 51 51 45 33 35 41 29 37 38 33 33 30 32 15 36 39 48 43 32 38 34 29 26 29 27 28 29 30 34 37 36 38 38 39 42 51 52 56 57 57 56
52 52 52 51 51 51 39 29 32 32 28 26 27 27 38 37 32 19 32 34 40 34 27 27 28 26 25 21 24 26 26 28 32 32 32 35 35 36 37 49 52 54 57 57 57
52 52 51 50 50 41 34 34 36 35 28 23 26 25 24 28 30 27 28 26 32 30 27 23 21 23 23 26 26 27 26 26 29 31 29 30 32 34 39 45 50 52 55 57 57
52 51 50 50 41 36 30 34 37 36 24 14 19 24 24 28 27 30 19 23 24 27 26 23 20 21 21 22 23 23 25 24 24 27 27 31 29 36 36 43 48 50 53 55 57
52 51 50 50 38 32 34 36 37 37 6 18 19 23 23 24 25 26 28 22 19 19 24 24 22 19 21 21 20 21 21 22 23 23 25 27 27 30 36 38 45 49 52 53 55
51 50 49 41 36 32 34 36 37 22 7 18 16 17 19 23 22 25 28 18 15 18 20 18 19 18 20 20 18 19 19 20 22 20 20 25 25 27 30 39 40 46 50 53 53
50 49 45 38 32 34 34 33 16 9 14 23 23 23 22 19 22 23 25 25 23 19 18 19 18 20 20 21 22 19 18 15 15 15 18 23 24 28 29 31 38 40 45 51 54
49 48 42 36 34 35 33 20 9 11 22 24 23 23 23 23 21 19 23 24 25 21 19 19 17 18 21 21 22 20 17 11 19 13 14 22 22 24 29 30 31 39 40 50 53
48 34 32 31 35 37 27 7 1 24 28 26 22 23 22 23 24 22 21 23 25 24 22 21 20 18 20 22 21 22 20 12 9 13 13 13 21 24 26 28 30 32 36 39 47
39 32 28 32 34 34 19 18 21 24 27 27 24 24 24 25 25 22 21 28 26 25 28 26 24 19 18 21 20 20 21 13 11 17 16 11 17 17 26 28 30 30 31 37 40
35 26 29 31 31 21 15 17 20 23 25 25 25 25 25 25 27 24 26 29 28 28 31 27 25 23 20 20 19 18 17 18 11 12 13 13 11 19 24 28 29 29 31 35 38
32 19 30 31 21 22 19 23 29 23 26 28 26 24 27 27 27 26 28 31 28 31 31 30 27 25 20 19 18 18 19 20 17 23 16 13 10 14 20 20 27 28 31 34 38
31 29 31 29 20 22 24 23 23 23 26 31 36 33 30 28 28 28 31 31 28 30 33 34 26 25 25 20 20 18 19 16 17 15 26 16 14 25 27 27 28 30 32 37 39
32 24 25 28 28 25 26 24 23 24 26 26 37 36 34 27 28 27 27 28 26 27 38 33 30 29 22 26 23 23 19 18 15 19 19 19 21 20 21 23 28 32 33 35 40
34 27 31 24 26 27 27 26 24 22 26 26 33 36 34 30 25 25 26 27 25 31 28 28 30 31 30 28 27 26 20 19 21 22 22 22 23 25 25 25 29 31 32 35 39
32 31 35 30 32 27 25 26 23 25 25 25 27 33 34 33 34 31 29 28 25 28 27 28 29 30 30 26 25 25 26 26 23 21 22 23 25 27 27 29 31 32 31 31 32
42 40 40 33 29 27 23 24 27 27 27 26 25 25 24 28 29 28 27 27 27 28 27 27 24 27 26 25 25 25 26 26 27 27 27 26 29 30 31 31 33 36 35 35 35

GFSSW_sfc_dewp_051.txt.gz
Dewpoint
54 54 54 54 54 54 54 55 55 55 55 56 56 56 56 57 57 49 37 39 44 67 65 47 46 55 58 57 58 58 54 47 41 46 43 47 46 50 52 54 55 56 60 63 65
54 54 53 53 54 53 54 54 54 54 55 55 56 56 56 56 47 34 46 64 64 66 47 45 42 50 53 54 55 55 51 50 45 52 45 46 43 46 49 51 54 56 60 63 64
53 53 53 53 53 53 53 54 54 54 54 55 55 55 56 54 40 21 67 63 65 61 33 41 42 46 48 50 51 51 56 58 42 44 51 43 45 46 47 49 52 56 60 62 63
53 53 53 53 53 53 53 54 54 53 54 54 55 55 55 48 21 45 68 65 65 35 30 36 42 44 46 46 48 46 50 46 44 47 46 48 46 45 46 45 51 56 60 61 62
53 53 54 54 53 54 54 54 54 53 53 54 54 55 51 39 29 38 68 64 44 34 30 40 42 42 44 43 44 45 47 47 47 47 46 46 47 47 46 46 51 56 60 60 61
54 54 54 54 54 55 54 54 54 53 56 57 55 54 45 35 28 26 35 46 43 42 32 40 41 43 43 41 42 43 45 47 47 46 45 44 46 51 50 51 52 56 58 59 60
54 54 54 54 54 54 54 54 53 56 59 59 56 50 40 36 25 12 30 39 45 42 36 39 41 43 42 41 44 44 43 47 47 45 43 45 44 46 52 52 54 54 57 58 59
53 54 54 53 53 53 53 53 54 58 56 56 55 48 40 36 38 30 29 35 42 43 39 39 41 40 42 43 38 42 43 42 44 43 42 43 44 46 54 53 54 54 54 57 58
53 53 53 53 53 52 52 52 54 56 55 55 51 46 38 40 29 29 25 31 40 41 42 38 41 40 40 39 34 33 34 34 40 40 40 43 50 56 53 53 54 55 53 54 57
53 53 53 52 52 51 51 52 54 56 54 51 48 42 38 31 29 24 27 31 39 39 39 36 34 36 37 38 32 27 27 31 35 38 39 40 45 53 50 51 53 55 55 54 55
53 53 52 52 51 51 47 29 33 44 42 36 37 33 33 31 29 19 30 35 39 39 35 35 34 33 31 38 36 29 26 29 34 38 38 40 42 45 47 48 50 54 56 54 54
53 53 52 51 51 51 37 28 30 30 27 23 20 19 24 35 31 20 33 32 39 36 37 34 33 33 31 30 36 33 28 27 32 39 38 38 38 41 40 45 47 51 54 56 55
53 52 51 51 50 39 29 27 29 31 25 18 15 15 15 23 32 29 19 31 37 36 35 29 30 30 27 25 31 34 28 28 29 33 36 34 35 37 37 38 46 48 53 55 56
53 52 51 50 41 29 25 27 29 30 23 11 16 16 18 17 22 31 18 29 34 36 33 25 22 23 24 20 21 21 24 25 25 29 30 33 29 35 36 36 42 47 50 52 55
52 51 50 49 39 29 27 26 29 31 11 13 16 23 20 17 16 25 23 27 25 29 31 24 20 18 21 21 20 20 21 25 26 25 28 30 29 30 36 36 38 43 46 49 53
51 50 50 36 33 25 26 25 30 22 9 15 16 18 18 18 18 23 26 22 27 24 27 26 23 20 18 18 18 20 19 21 25 24 22 27 28 28 30 37 37 41 43 47 51
50 49 46 36 26 25 26 24 15 7 8 21 23 23 22 20 20 21 26 21 22 22 22 22 23 21 20 18 19 18 15 15 18 19 20 23 25 30 29 30 34 39 42 46 49
49 47 44 30 26 27 28 19 12 4 10 23 23 23 22 22 21 20 24 25 21 20 18 18 18 20 18 19 19 18 14 13 20 15 16 22 22 24 27 28 31 36 39 43 49
48 32 28 25 26 28 25 10 3 17 19 19 19 19 18 21 23 21 21 23 24 20 19 19 20 19 18 19 19 19 17 12 11 12 11 14 22 23 25 26 30 32 37 40 45
42 31 29 23 26 29 21 17 10 15 16 17 15 18 21 25 25 23 22 21 22 22 20 23 24 20 18 19 19 20 19 12 12 21 17 13 19 20 27 28 29 30 32 38 44
40 24 27 24 27 22 10 11 16 15 15 15 15 16 19 27 29 28 25 27 28 26 26 24 25 25 23 20 20 19 19 17 11 13 13 14 14 19 25 28 27 29 31 35 39
32 24 27 27 20 18 15 18 25 15 15 17 20 21 22 21 24 29 28 31 28 29 30 26 26 26 22 20 21 20 20 21 20 25 13 12 12 15 18 18 25 29 31 32 37
33 28 28 26 18 18 20 18 16 17 16 22 25 29 29 28 33 34 36 32 27 29 32 32 28 27 27 20 21 21 20 16 19 15 25 13 16 27 22 25 24 28 29 35 38
34 27 26 25 23 21 21 21 17 18 20 22 26 30 31 27 27 33 34 33 28 27 39 37 31 31 24 26 22 22 20 18 14 20 18 19 20 24 24 26 30 31 32 34 39
36 33 31 27 26 25 25 22 18 21 22 21 26 32 30 30 28 33 36 33 29 33 31 30 33 32 29 27 25 21 19 18 19 20 20 19 23 25 25 25 31 32 35 35 37
41 40 34 32 32 27 26 23 21 21 22 21 23 28 29 31 31 32 33 32 30 30 30 31 31 33 31 28 29 26 23 19 18 19 19 20 22 26 27 26 28 30 32 31 35
47 45 42 36 30 30 25 24 22 22 20 25 26 24 20 27 26 26 27 26 26 27 28 30 28 32 31 31 29 27 27 26 24 21 21 21 26 28 28 30 32 34 36 35 35

GFSSW_sfc_dewp_054.txt.gz
Dewpoint
54 54 54 54 54 54 54 54 55 55 55 55 56 56 57 58 57 51 39 35 42 65 62 42 36 47 56 59 56 54 52 50 48 45 48 52 46 49 52 56 58 59 61 62 62
54 53 53 53 53 54 54 54 54 55 55 55 55 56 56 57 50 41 47 61 67 65 31 35 34 43 52 54 53 52 51 58 55 48 46 49 45 47 48 51 55 59 62 63 63
53 53 53 53 53 53 54 54 54 54 54 54 55 55 56 55 43 30 67 59 66 60 28 34 35 38 47 50 50 51 56 57 53 50 49 50 43 45 47 48 57 60 62 62 63
53 53 53 53 53 53 53 54 54 54 54 54 55 55 55 49 29 34 69 69 66 37 26 28 36 35 43 44 47 47 56 55 52 53 48 49 52 42 46 49 56 60 61 62 62
52 53 54 53 53 53 54 54 54 54 55 56 56 55 52 42 35 36 69 66 47 29 24 26 31 36 37 41 44 44 54 54 55 53 53 53 49 44 44 49 55 59 60 61 62
54 54 54 54 54 54 54 54 54 54 56 58 57 55 46 38 38 34 36 49 35 28 23 24 26 37 37 40 42 43 43 47 46 44 50 53 47 45 43 47 54 58 59 60 61
54 54 54 54 54 54 54 54 53 53 58 58 58 51 40 36 35 26 28 41 39 33 24 25 27 36 38 40 41 40 41 42 46 45 45 43 49 50 55 48 51 56 58 59 61
54 54 54 54 54 53 53 53 53 53 59 56 58 48 39 39 40 36 16 27 35 38 30 29 33 36 37 41 39 37 40 42 41 46 46 43 50 56 51 51 51 54 56 58 59
54 54 54 54 53 53 52 52 53 55 56 55 52 45 38 47 37 36 34 23 32 40 39 34 35 36 37 38 38 38 39 40 42 43 43 40 51 57 57 60 52 53 54 55 58
54 54 53 53 52 52 51 52 53 56 55 52 50 45 41 32 32 35 35 24 29 36 38 37 34 34 34 34 35 36 34 38 38 42 43 39 47 51 58 61 58 52 53 55 55
53 53 53 52 51 51 47 28 22 42 25 32 40 35 29 33 28 27 29 24 27 35 34 36 32 33 34 35 36 35 29 32 33 34 41 37 50 51 56 56 59 52 53 52 54
53 53 52 51 51 50 44 20 22 24 22 21 20 19 25 27 28 28 25 24 26 32 34 34 31 31 31 32 34 34 32 26 28 36 41 40 48 53 53 57 58 53 54 53 53
53 52 51 51 50 42 24 21 21 22 20 15 13 14 12 14 22 29 22 25 26 30 33 31 31 29 27 28 28 34 34 30 25 39 40 39 40 50 55 57 54 52 56 54 55
52 52 50 50 40 33 22 21 19 22 19 15 12 11 10 8 12 23 24 28 30 30 34 32 31 29 28 28 28 26 33 33 28 37 36 38 38 44 39 40 44 48 52 52 55
51 51 50 49 39 31 20 19 19 24 16 13 14 20 18 7 9 12 27 25 29 30 33 33 31 29 28 28 27 26 27 32 30 26 29 35 33 30 37 37 37 43 49 50 54
51 51 50 37 33 29 19 20 23 19 11 18 23 23 23 17 11 11 16 26 26 29 33 33 33 29 24 24 24 23 21 24 26 23 25 27 32 34 32 39 37 39 44 50 50
50 49 47 39 31 20 21 22 14 8 4 13 18 19 19 21 22 14 17 25 20 27 28 30 32 26 20 18 21 19 16 17 17 22 23 25 24 32 33 36 37 40 43 46 51
48 47 45 36 28 21 22 21 15 6 2 10 14 14 14 19 20 21 19 23 22 23 25 23 25 29 22 19 18 19 16 17 22 19 20 24 25 28 33 33 36 39 42 43 47
47 38 35 27 20 22 24 18 8 8 10 11 11 10 13 16 18 29 26 18 24 20 25 24 23 24 26 21 19 17 17 15 13 16 16 19 24 25 29 30 31 29 39 43 45
42 38 36 27 23 25 23 20 11 12 12 10 6 6 6 10 14 23 29 24 20 23 21 24 24 21 21 22 19 19 18 14 14 19 20 15 24 24 30 32 31 29 30 38 44
38 31 27 27 25 24 19 12 14 14 12 10 9 9 10 9 25 23 28 29 36 29 26 21 24 22 22 23 19 17 18 17 13 15 15 15 16 24 34 33 32 29 34 35 42
37 31 32 28 22 19 15 16 24 13 12 13 17 14 16 20 25 27 28 37 37 31 27 28 21 23 21 21 21 19 19 20 22 25 18 18 15 24 25 30 30 33 35 35 40
35 33 32 28 21 20 20 17 16 14 18 17 20 20 21 23 24 30 36 41 39 35 31 32 29 24 23 23 22 21 20 17 19 18 28 18 16 29 25 27 31 31 33 43 45
35 31 32 30 28 27 26 21 17 16 20 28 26 20 21 22 23 26 34 36 36 35 46 36 31 30 23 28 26 24 20 19 16 23 20 20 20 25 26 27 28 36 37 39 47
32 33 33 32 30 30 29 24 19 22 29 33 29 26 24 23 24 27 34 33 34 40 33 30 33 32 29 25 26 20 19 20 21 23 23 22 26 29 32 31 34 42 43 45 47
35 40 37 36 35 34 33 31 26 22 20 19 17 31 26 22 25 25 28 31 33 33 29 32 32 33 33 31 29 28 20 20 20 19 19 20 23 27 32 37 36 40 39 43 43
41 41 41 38 35 34 31 30 29 30 28 22 24 23 22 19 23 24 21 24 29 27 27 30 30 32 31 32 30 28 28 24 22 22 20 22 30 33 33 36 38 43 41 38 37

GFSSW_sfc_dewp_057.txt.gz
Dewpoint
53 53 53 53 54 54 54 54 55 55 55 55 56 56 57 58 57 51 47 42 44 61 69 52 47 45 54 62 62 61 56 50 54 55 52 53 54 56 58 59 60 60 63 62 63
53 53 53 53 53 53 53 54 54 54 55 55 55 55 56 57 52 46 50 59 60 64 43 28 40 34 41 55 58 58 50 55 55 55 54 52 53 54 56 59 60 61 63 63 63
53 53 53 53 53 53 53 53 54 54 54 55 55 55 55 55 48 41 62 61 61 67 38 30 28 32 36 49 52 53 52 57 53 54 54 48 49 49 55 58 60 60 61 62 63
53 53 54 53 53 53 53 54 54 54 54 55 56 56 55 52 34 32 67 68 62 53 37 30 26 31 34 44 50 49 55 53 51 52 50 49 51 47 53 60 61 61 61 62 62
54 55 55 55 55 55 55 55 54 54 54 56 57 55 53 45 41 44 68 70 54 46 33 25 25 31 31 37 45 45 54 51 51 51 52 53 49 48 59 62 62 62 62 62 62
55 55 55 55 55 55 55 54 55 53 54 56 57 55 50 40 39 40 51 54 49 38 31 25 26 28 34 33 39 42 52 50 50 52 53 52 51 50 59 61 61 61 62 62 62
55 55 54 54 54 54 54 54 54 53 53 57 58 53 44 35 35 36 49 44 39 34 26 24 25 24 33 35 35 38 40 51 50 52 53 53 53 54 58 59 60 61 61 62 62
55 54 54 54 53 53 53 53 53 53 54 57 57 53 44 41 41 38 37 44 35 31 27 24 24 23 23 36 37 37 39 41 43 49 51 53 54 57 55 59 58 60 61 61 62
54 53 53 53 53 52 52 52 55 55 55 56 54 50 41 47 40 39 38 26 37 36 31 29 23 23 24 33 33 37 37 38 40 44 45 48 54 55 56 59 57 58 59 60 61
53 53 52 52 52 51 51 52 54 55 56 52 50 47 45 32 35 37 37 35 27 31 36 31 28 25 29 32 31 36 36 37 40 41 43 50 51 54 55 58 58 57 59 59 60
53 53 52 52 51 50 48 40 21 34 24 19 21 31 23 36 29 37 35 35 28 28 35 36 35 30 30 33 35 37 36 35 36 41 42 44 50 53 56 55 56 56 58 58 58
53 52 52 51 51 49 46 23 18 19 16 18 18 19 19 20 22 26 32 32 26 25 32 34 34 34 32 33 33 33 34 35 33 34 40 48 50 53 53 56 55 55 59 59 56
52 52 51 51 50 45 34 19 18 17 17 19 17 14 15 15 15 20 25 29 24 23 30 32 34 35 32 32 32 32 32 33 33 31 39 47 48 50 52 56 57 58 59 58 55
52 51 51 50 41 34 32 21 18 19 20 19 14 20 17 13 10 15 23 25 26 21 24 32 33 33 32 30 30 30 32 34 34 33 37 37 40 50 52 53 53 56 57 55 53
51 51 50 50 41 36 33 23 18 22 16 19 16 21 17 14 13 7 15 21 22 23 25 27 32 31 31 29 27 26 29 29 32 33 34 37 36 48 50 48 51 54 56 54 55
50 50 50 43 40 36 28 21 22 20 16 5 12 12 12 13 17 22 17 19 22 24 26 28 33 33 31 29 28 28 28 27 27 30 29 28 35 36 43 47 49 54 56 57 55
49 48 48 43 35 33 32 21 20 15 8 6 10 10 8 9 12 15 18 19 15 22 23 28 29 31 32 30 29 28 26 22 21 25 28 26 29 35 36 40 48 52 55 56 53
48 47 47 40 38 34 23 21 20 14 8 10 10 7 3 2 3 7 14 20 27 22 21 24 26 31 33 31 28 26 24 21 18 18 22 22 21 27 32 36 37 47 53 53 53
47 42 39 37 37 28 25 22 19 12 12 11 9 6 4 4 8 10 20 19 28 34 22 20 25 31 32 32 26 21 21 19 15 21 20 21 23 26 27 28 31 37 47 50 52
43 41 39 37 29 29 24 25 21 13 13 10 7 8 8 7 9 16 19 23 25 38 39 29 18 23 27 32 30 19 20 17 14 15 16 18 22 24 25 25 28 27 39 44 50
41 36 34 34 30 28 21 21 18 15 14 10 9 10 12 10 16 16 18 22 31 37 38 34 28 21 21 28 28 22 19 16 16 18 16 19 19 23 27 26 26 29 34 42 46
37 30 34 34 28 27 23 26 27 18 14 15 17 18 17 20 16 17 21 23 33 36 36 34 31 26 20 21 25 24 18 19 15 16 18 17 16 30 26 28 26 31 30 38 44
36 34 35 33 28 30 30 28 24 17 21 22 21 22 28 26 19 20 27 31 35 35 34 34 32 27 24 21 21 23 18 18 20 21 19 14 15 24 28 28 27 33 35 34 45
37 29 32 34 32 31 29 30 29 28 24 23 24 29 31 30 21 21 30 34 35 35 43 43 34 34 26 25 23 24 21 17 16 18 18 20 19 28 30 31 34 34 39 44 43
36 31 34 29 31 32 31 30 31 30 31 29 29 26 31 28 25 25 29 28 29 40 41 33 28 30 30 31 29 27 23 19 16 16 21 21 26 29 31 36 41 44 45 44 46
34 40 38 37 35 32 31 30 29 33 30 27 25 25 29 28 28 29 29 26 26 34 37 31 27 31 33 32 30 29 29 20 19 18 18 21 18 35 37 36 40 41 42 41 46
45 43 41 38 35 33 31 32 32 31 32 30 28 28 26 26 29 30 20 22 22 31 32 29 25 28 30 33 32 31 31 30 20 21 20 20 23 37 36 41 41 43 41 42 45

GFSSW_sfc_dewp_060.txt.gz
Dewpoint
53 53 53 54 54 54 54 54 55 55 55 55 55 55 56 57 57 53 49 45 46 57 71 68 62 56 61 62 64 63 60 54 54 55 55 57 56 61 61 60 61 61 60 58 64
53 53 53 53 53 53 54 54 54 55 55 55 55 55 55 56 53 49 48 57 60 61 54 57 55 50 48 58 60 61 58 57 55 56 55 55 57 59 59 60 61 61 59 61 64
53 53 53 53 53 53 54 54 54 54 55 55 55 56 55 55 49 44 58 60 63 64 41 35 43 36 34 40 55 57 57 56 55 54 56 54 54 59 60 60 61 60 61 62 62
53 53 54 53 53 53 54 54 54 54 54 55 55 57 54 53 30 35 68 64 64 55 39 31 30 31 30 34 43 50 53 54 53 52 53 51 52 59 59 60 62 61 62 62 63
54 54 55 55 54 55 55 55 54 54 54 54 55 56 53 47 40 41 67 68 56 50 40 32 28 26 29 33 35 47 50 53 53 52 51 52 52 58 59 61 62 62 62 62 62
54 54 54 54 54 54 54 54 54 54 53 54 56 56 50 37 36 41 53 59 51 45 40 32 26 26 30 30 34 42 44 51 50 47 52 53 56 60 60 61 61 61 62 62 62
54 54 54 54 54 54 54 53 53 54 55 53 56 53 48 34 33 35 53 50 49 42 35 33 26 26 27 33 32 33 33 42 50 47 53 53 53 59 62 60 60 60 61 62 62
54 54 54 54 53 53 53 52 53 56 55 54 58 52 46 44 43 41 39 45 48 40 30 32 26 25 24 24 23 34 33 32 45 50 53 55 51 59 62 60 59 60 61 62 62
54 54 53 53 53 52 52 52 53 55 56 57 53 50 44 49 45 41 39 42 40 36 32 26 24 22 24 23 22 32 32 35 36 48 53 54 53 55 61 61 60 60 61 61 61
53 53 53 53 52 52 51 52 52 57 55 55 52 47 41 30 30 31 39 39 36 33 30 26 25 22 20 24 19 30 36 37 37 46 52 52 51 53 56 60 60 61 61 61 61
53 53 52 52 51 51 49 36 16 18 32 16 16 44 30 24 21 26 35 36 32 33 32 31 26 23 20 22 26 34 36 36 38 47 52 52 51 53 54 57 59 60 60 61 60
53 52 52 51 50 50 46 24 17 17 14 16 16 16 17 20 17 18 25 34 34 28 32 35 30 29 30 29 29 32 33 34 37 37 42 50 51 53 53 54 57 59 60 60 61
52 52 51 50 50 40 34 31 26 20 15 17 18 17 16 17 16 16 22 26 32 28 26 31 34 35 35 33 30 31 31 32 34 35 46 49 51 51 52 55 57 56 58 59 59
51 51 50 49 36 38 34 32 33 20 18 19 15 18 14 15 12 15 17 23 28 27 23 26 31 34 35 33 31 30 32 33 32 34 36 46 46 50 52 53 54 55 54 56 57
51 50 48 49 43 38 32 35 31 23 4 13 12 14 12 11 14 11 17 20 21 26 23 22 28 32 33 34 32 31 34 32 32 32 33 37 43 47 51 50 51 51 54 56 58
51 49 49 44 44 41 38 34 23 18 15 9 11 9 4 4 5 10 16 19 22 21 24 24 24 30 32 33 34 32 29 28 29 27 26 29 34 39 48 48 48 49 52 55 57
49 48 48 45 30 34 35 22 16 13 13 10 10 8 4 4 5 12 16 20 32 30 17 21 22 25 28 32 32 31 26 24 24 24 24 27 30 33 48 49 48 49 50 53 57
48 47 46 44 43 39 27 22 17 16 11 12 10 7 5 8 7 13 16 17 34 36 36 23 19 23 29 30 30 29 26 25 22 22 23 27 27 29 41 49 49 50 50 52 55
48 40 41 38 39 34 22 20 20 12 12 10 9 7 8 11 11 16 17 20 27 36 33 34 26 29 28 29 31 30 26 26 21 24 19 23 24 26 27 35 38 48 50 51 55
44 41 39 35 34 27 21 24 21 19 14 11 8 10 10 12 15 16 17 20 26 33 35 36 32 31 26 26 31 31 27 22 20 21 18 18 21 22 24 25 27 45 48 52 55
39 36 36 34 32 26 21 22 25 21 20 13 14 14 16 19 17 16 17 18 29 32 33 35 33 31 30 21 24 31 28 21 21 18 17 16 17 22 25 27 27 37 50 52 55
39 31 34 34 30 31 29 29 32 27 26 22 21 22 22 24 21 17 17 23 31 35 31 35 35 32 29 27 23 29 28 21 19 17 18 18 17 22 25 28 28 28 46 53 55
38 35 35 34 29 30 30 29 30 29 31 27 22 23 29 26 22 21 24 28 32 33 34 38 37 32 27 24 23 20 22 20 17 18 16 15 16 20 22 28 29 27 32 48 53
38 29 33 33 32 30 31 30 29 31 33 33 32 30 28 26 26 26 26 29 33 31 39 42 37 34 30 29 31 28 29 22 18 16 16 16 15 16 17 24 34 29 33 43 51
37 31 34 30 32 35 33 31 29 29 36 34 30 30 29 27 26 25 28 28 28 34 40 40 33 31 28 27 28 30 29 30 19 18 16 16 21 20 20 24 37 35 38 43 50
35 37 37 36 36 33 32 30 31 30 30 29 30 30 29 26 26 25 27 27 27 35 37 38 32 30 26 27 30 32 32 30 27 18 20 20 21 26 25 35 40 41 46 45 51
41 41 41 37 36 35 31 33 32 33 32 32 32 32 31 30 32 28 28 27 26 33 34 35 32 30 26 30 31 30 31 33 29 19 20 17 20 34 35 42 47 42 42 43 47

GFSSW_sfc_dewp_063.txt.gz
Dewpoint
54 54 54 54 54 54 54 54 55 55 55 55 55 55 55 55 56 53 46 45 49 56 64 59 66 61 64 64 65 64 59 53 53 56 54 57 58 61 62 60 61 61 59 60 62
53 53 54 53 53 53 54 54 54 55 55 55 55 55 56 55 52 50 49 56 59 62 66 64 59 55 60 60 61 61 57 57 56 55 55 56 58 60 59 60 60 57 59 61 62
53 53 53 53 53 53 53 54 54 54 55 55 55 55 56 55 48 39 57 56 61 63 64 59 53 48 42 50 57 60 58 58 56 55 55 55 56 59 60 60 60 56 58 62 63
53 53 53 53 53 53 54 54 54 54 54 54 55 55 54 52 18 40 68 59 63 52 45 42 42 35 34 38 47 52 56 59 56 54 55 54 56 59 60 60 61 57 62 63 63
53 53 54 54 54 54 54 54 54 54 54 54 54 55 52 44 35 35 67 60 58 46 38 32 30 31 30 32 37 45 48 51 54 53 52 53 52 58 59 62 59 58 62 62 63
54 55 55 55 55 55 55 54 54 53 54 54 54 55 49 32 29 39 59 55 54 43 33 31 28 27 28 30 36 39 41 44 48 49 51 53 58 59 61 62 59 59 61 62 63
54 54 54 54 54 54 54 54 53 54 57 55 55 52 48 35 38 41 48 52 52 41 36 31 28 26 26 30 32 31 30 33 37 49 55 55 54 59 61 61 60 60 60 62 63
54 54 54 53 53 53 53 53 54 56 55 55 56 51 46 45 47 46 39 45 49 44 32 35 28 26 25 26 23 32 31 30 33 49 52 53 50 60 61 61 60 61 61 61 62
53 53 53 53 52 52 52 53 53 57 57 57 52 49 45 49 43 40 39 43 47 42 35 33 26 23 24 22 21 26 29 32 34 50 53 53 53 61 61 60 60 60 61 61 61
53 52 52 52 52 51 52 53 52 57 55 54 53 45 39 31 23 18 32 42 39 36 32 27 23 21 21 21 23 21 32 34 33 42 52 51 53 60 60 60 60 60 60 61 61
52 52 52 51 51 51 50 23 21 20 23 16 16 33 22 21 19 23 27 38 34 31 27 27 22 19 18 22 24 31 34 33 36 40 50 50 51 56 61 60 59 59 60 60 61
52 52 51 51 50 51 45 22 24 26 17 17 17 16 16 18 17 18 23 36 33 31 33 29 23 22 22 22 21 22 24 28 35 48 49 50 49 53 59 60 60 60 60 60 61
52 51 50 49 50 41 36 30 30 29 18 17 18 17 16 18 18 15 20 24 33 31 31 32 32 28 27 25 23 24 25 28 33 46 49 50 52 50 55 57 60 60 61 61 60
51 50 49 49 35 38 31 30 35 24 16 16 12 13 9 16 14 14 16 15 26 31 29 29 31 32 30 31 29 28 31 31 32 33 36 49 42 50 51 53 53 56 60 61 61
51 50 49 50 39 33 28 36 35 23 6 14 10 13 6 4 7 11 15 20 20 23 26 26 26 27 32 32 34 30 33 32 33 32 33 42 43 47 50 51 52 54 57 60 61
51 50 50 45 43 41 38 34 22 16 10 11 12 8 8 7 9 14 25 34 34 31 22 25 26 26 27 33 34 36 32 32 31 30 28 30 40 35 48 50 50 53 55 56 59
50 49 48 45 32 39 35 23 13 9 13 11 9 8 7 10 13 16 34 34 34 27 32 34 23 24 27 30 33 34 28 28 25 25 26 27 30 30 46 48 50 50 53 55 56
49 48 45 44 42 41 27 21 9 14 12 13 10 8 10 11 12 16 17 25 34 35 34 32 23 23 26 26 30 31 31 27 23 23 25 26 26 28 39 49 50 51 52 52 54
48 42 40 37 34 31 23 18 20 19 15 12 9 7 11 13 13 16 19 23 33 34 31 33 32 34 33 32 28 29 30 30 25 28 19 24 27 29 32 38 48 50 49 49 53
44 40 39 36 34 26 23 23 22 24 23 14 11 12 11 17 15 15 17 25 30 32 34 35 30 34 33 32 27 28 29 27 25 25 22 22 21 25 28 28 47 49 49 49 50
39 33 35 35 33 29 23 25 28 29 31 20 17 16 19 20 18 16 17 22 31 32 33 33 33 32 33 29 25 28 28 26 27 25 24 22 24 23 26 29 30 42 48 49 50
37 27 35 34 30 30 28 29 32 30 32 29 23 23 22 23 21 17 17 21 34 34 32 37 34 32 32 34 35 34 28 30 26 24 20 21 24 23 23 26 28 28 35 43 50
36 35 36 33 28 28 31 31 30 29 32 32 30 32 29 25 19 22 25 29 33 32 33 34 36 29 28 29 31 29 29 28 25 22 20 19 23 20 20 22 26 28 34 49 50
37 30 33 33 33 30 32 31 29 30 34 35 34 34 31 26 26 24 25 29 32 31 41 39 34 30 28 31 31 29 28 27 29 21 26 20 22 21 19 20 23 25 31 34 51
35 31 33 29 31 31 33 31 30 32 36 36 35 36 34 27 24 24 28 26 28 38 40 36 32 33 33 32 31 29 28 27 27 29 18 23 18 19 19 20 23 32 36 34 34
35 34 34 35 35 33 31 29 32 31 31 30 34 33 31 28 26 26 25 26 25 33 34 35 29 32 30 29 27 27 28 28 30 31 30 18 18 22 41 51 52 48 41 35 43
40 41 41 36 35 34 32 36 35 37 36 33 34 34 33 32 32 31 30 27 26 31 32 33 34 31 26 26 27 28 30 36 37 38 36 22 33 42 53 55 56 57 55 45 46

GFSSW_sfc_dewp_066.txt.gz
Dewpoint
53 53 54 54 54 54 54 55 55 55 55 55 55 55 55 55 55 53 45 44 48 58 61 70 67 65 65 64 65 64 58 53 53 55 54 59 59 60 62 60 60 59 60 61 64
53 54 54 54 54 54 54 54 55 55 55 55 55 55 56 55 51 49 52 55 59 62 60 66 63 62 61 61 61 61 57 55 55 56 54 57 59 60 60 60 58 59 61 63 66
54 54 54 54 54 54 54 54 54 54 55 55 55 55 55 53 45 34 55 57 60 63 57 61 59 53 54 57 59 60 58 59 57 57 56 57 59 60 59 59 58 59 61 63 65
54 54 53 53 54 54 54 54 54 54 54 54 54 55 54 51 10 40 64 59 61 62 59 53 55 41 43 42 53 54 56 59 59 57 55 54 59 59 60 60 60 60 61 63 65
53 53 53 53 53 54 54 54 54 54 54 54 54 54 51 41 33 35 61 58 59 51 53 42 50 35 40 40 40 51 50 52 57 56 55 54 57 59 59 60 59 60 61 62 65
54 54 54 54 54 54 55 55 54 54 56 55 54 54 48 24 31 48 55 56 56 45 46 35 46 33 33 33 39 40 45 45 46 47 51 52 57 58 61 58 58 60 61 63 64
54 54 54 54 54 53 54 53 53 55 56 57 55 52 47 30 40 45 55 54 53 39 39 32 33 30 29 29 31 34 32 31 33 43 53 57 56 58 60 57 59 60 62 63 64
54 53 53 53 53 53 53 53 54 55 55 56 56 50 44 46 47 47 40 51 51 44 33 33 28 26 27 27 23 29 30 30 33 34 53 52 48 60 60 57 58 61 61 62 63
53 53 53 52 52 52 52 53 54 57 57 57 51 47 39 49 35 33 39 44 49 46 41 32 29 24 24 23 23 23 29 30 32 40 53 52 51 60 61 59 57 59 60 61 62
53 52 52 52 51 51 52 52 59 57 56 54 52 40 32 20 22 21 24 46 44 42 37 29 26 23 22 23 23 22 26 32 34 38 52 52 52 59 60 60 59 59 59 60 61
53 52 51 51 51 51 49 31 25 23 24 19 17 21 21 21 20 19 35 37 34 34 28 26 23 21 21 22 25 25 33 34 35 35 50 50 51 59 60 60 60 60 60 60 60
52 52 51 51 51 51 41 25 28 30 24 20 18 19 17 17 15 14 27 37 33 30 28 26 22 22 20 21 23 23 24 23 30 36 46 46 49 57 59 59 60 60 60 60 60
52 51 51 51 51 40 36 26 31 23 19 17 18 19 16 17 16 11 16 19 34 31 30 22 24 24 20 21 19 19 21 23 32 38 49 50 50 53 59 60 60 60 60 60 60
52 51 51 50 34 38 25 35 36 28 12 11 11 12 6 14 13 13 19 16 23 33 31 31 30 23 23 23 20 18 22 22 29 32 38 49 42 50 53 59 60 60 59 60 60
52 51 50 49 40 31 27 38 35 21 1 13 10 12 10 5 10 11 31 28 21 23 29 29 29 31 26 22 23 19 26 26 30 32 32 39 39 40 50 53 57 59 60 60 60
51 51 50 44 41 38 39 37 22 14 6 11 12 10 10 10 15 17 34 36 35 32 28 25 27 27 28 31 30 34 32 32 32 32 30 31 42 41 48 50 52 55 59 60 61
50 50 48 45 34 37 39 22 10 5 13 11 9 9 11 10 14 18 33 32 33 24 32 32 28 24 26 27 33 34 31 29 27 27 28 31 31 35 42 50 50 52 54 57 60
49 48 43 43 41 38 25 18 10 15 14 13 10 9 11 12 13 18 21 29 33 33 32 32 21 29 33 28 28 32 31 30 26 24 26 29 29 31 34 37 50 51 52 54 58
48 42 39 37 35 28 21 19 20 20 24 19 11 8 11 16 15 15 19 32 33 32 29 32 29 32 33 33 31 29 30 32 27 28 22 26 27 30 33 34 47 50 52 54 56
43 37 36 35 34 26 22 23 24 29 30 22 11 13 12 17 15 13 18 30 31 31 34 35 19 31 33 33 32 29 30 28 27 28 25 24 23 28 31 30 34 49 50 52 54
38 30 33 36 34 30 24 27 28 30 31 26 20 17 19 19 18 15 15 29 31 31 34 31 31 25 32 29 28 30 25 27 29 28 27 25 27 27 32 33 31 41 49 51 52
36 26 35 34 27 30 28 30 32 30 32 31 27 24 22 23 20 17 17 22 34 33 32 35 31 30 31 32 33 34 32 29 26 26 23 27 27 30 28 28 32 34 52 51 51
36 34 37 34 27 28 31 31 31 29 33 34 33 34 30 25 22 22 24 30 35 33 33 32 30 26 21 29 31 30 30 29 28 26 26 24 27 30 29 30 28 29 34 46 52
35 29 32 33 32 29 30 29 30 33 35 35 35 35 35 31 26 24 24 29 31 32 38 37 28 27 24 29 32 28 28 29 27 27 26 26 28 28 26 26 29 29 33 35 51
35 31 32 29 32 33 31 31 31 30 33 36 34 36 35 32 30 25 27 25 26 34 39 34 26 29 30 31 32 31 29 26 27 27 27 27 29 29 26 26 34 46 50 42 38
34 33 35 33 33 32 30 30 31 32 33 30 32 34 33 31 29 26 28 26 25 33 33 34 24 29 28 30 30 28 26 27 27 28 28 29 30 38 52 56 56 56 58 58 49
40 41 41 37 35 34 33 35 33 36 35 35 36 34 32 33 34 33 32 30 26 30 31 33 30 29 25 27 26 26 27 29 35 35 38 33 37 46 54 51 49 50 54 57 61

GFSSW_sfc_dewp_069.txt.gz
Dewpoint
55 55 55 55 55 55 55 55 55 55 56 56 56 56 56 56 55 52 44 39 46 57 67 69 66 65 64 63 65 65 59 53 51 53 54 58 58 60 61 59 59 59 59 60 65
55 54 54 54 54 55 55 55 55 55 55 55 55 55 55 55 51 47 49 54 57 63 67 64 61 62 58 59 61 61 58 55 54 55 54 57 58 60 60 59 59 59 60 63 65
54 54 54 54 54 54 55 55 55 55 55 55 55 55 55 53 43 25 52 60 59 63 64 62 60 56 51 56 57 58 57 58 56 56 55 57 59 60 59 59 59 59 61 63 64
53 53 53 53 53 54 54 55 55 55 55 55 55 54 54 51 4 31 63 66 61 56 60 57 56 47 43 49 53 56 58 59 57 57 56 56 58 58 59 58 60 60 61 62 63
53 53 53 53 53 54 54 54 54 55 55 56 55 54 51 37 28 48 60 60 56 55 54 48 49 42 34 40 45 52 53 52 56 54 52 54 56 56 59 61 60 61 61 62 62
54 54 54 54 54 54 53 53 54 54 56 57 55 55 47 20 38 53 53 55 52 55 49 48 45 42 36 38 36 41 46 48 48 44 49 49 53 58 60 60 60 61 61 61 62
54 54 54 54 53 53 53 53 53 55 57 57 55 50 44 26 39 45 54 54 58 52 45 46 47 37 35 29 33 40 38 37 37 39 42 52 54 55 60 60 60 60 61 61 62
54 53 53 53 54 53 53 53 54 55 56 56 56 50 38 43 46 47 49 51 55 43 43 35 37 34 29 28 25 25 30 36 39 40 41 53 49 61 59 59 59 60 60 61 62
53 53 53 53 53 53 53 54 57 57 57 56 53 48 26 47 28 26 40 46 48 44 38 36 31 30 26 25 22 28 14 30 37 37 45 53 50 60 59 59 59 60 60 60 62
53 53 53 53 53 52 52 54 59 57 56 55 51 40 25 16 19 19 24 47 44 38 33 30 30 25 25 23 12 19 19 30 36 39 45 51 51 59 59 59 60 60 60 61 61
53 53 52 52 52 52 48 36 28 25 28 20 19 19 16 17 19 18 39 42 40 32 25 29 26 24 19 22 21 26 27 24 35 40 41 44 50 57 60 58 59 59 60 60 60
53 53 52 52 52 51 39 29 33 34 27 22 21 20 19 17 12 13 30 37 37 29 28 26 20 21 22 22 22 23 26 29 32 34 41 41 43 53 60 60 59 58 60 60 60
52 52 52 51 51 40 33 30 36 29 22 18 18 17 13 17 13 11 27 28 36 32 26 24 24 24 21 20 21 20 21 27 27 32 37 44 44 51 58 60 60 60 60 60 60
52 52 51 51 39 37 27 33 38 33 15 12 10 9 10 10 11 13 32 25 27 34 29 27 25 24 21 19 20 19 21 24 26 27 33 45 38 50 54 58 59 60 60 60 60
52 52 51 50 40 32 34 38 33 22 -1 12 12 12 11 10 14 13 35 29 21 33 32 30 29 25 23 19 20 17 18 18 21 25 28 31 42 41 52 54 57 58 59 60 60
52 51 51 45 41 36 37 36 25 13 2 11 12 10 11 11 14 21 31 33 35 30 27 31 29 30 26 26 23 20 26 21 19 18 23 29 32 38 43 49 53 57 59 59 60
51 50 48 44 33 36 36 25 14 6 14 12 11 10 11 11 13 21 29 28 29 24 27 28 25 23 28 28 29 26 23 25 22 19 20 29 30 35 39 47 46 53 58 60 60
49 47 44 42 37 37 28 22 10 15 18 19 13 10 11 14 13 18 23 25 26 28 30 27 21 26 31 26 26 29 28 20 22 17 15 29 31 34 37 39 47 50 53 57 60
48 40 38 35 36 32 26 18 19 21 26 22 16 11 11 14 14 15 23 28 25 25 25 28 24 29 33 33 30 29 29 27 25 27 21 22 31 34 35 36 37 40 49 53 56
43 37 34 36 35 29 23 24 27 30 29 25 15 15 12 15 15 12 17 30 25 27 33 31 13 24 31 32 32 30 30 29 29 23 24 24 27 28 36 35 36 40 44 48 53
38 32 34 36 35 31 26 27 28 30 31 28 21 19 19 18 18 14 14 27 28 24 30 26 21 8 23 28 27 29 27 28 29 28 23 24 24 31 34 38 37 36 44 48 52
39 28 36 35 28 30 28 31 33 29 34 32 29 26 23 23 19 17 15 19 31 27 22 32 28 17 10 27 31 30 29 29 26 31 30 26 25 31 34 33 34 37 38 45 51
39 37 35 35 28 29 31 30 31 31 33 32 33 33 33 27 22 22 22 30 32 28 27 33 31 13 -0 24 30 30 30 29 28 28 31 28 27 35 34 35 36 35 35 43 53
37 30 33 35 34 31 30 30 29 34 35 33 34 34 31 30 30 26 25 27 28 29 35 36 31 26 11 23 27 28 29 29 27 26 26 28 31 33 34 35 38 38 38 38 44
37 34 34 32 32 31 32 31 29 30 32 33 33 33 32 29 27 29 26 25 25 36 38 36 25 24 20 21 22 22 23 25 28 29 28 27 31 33 37 41 52 53 55 55 55
36 38 37 35 34 32 33 32 31 31 33 30 31 32 33 31 29 28 28 28 27 31 35 37 24 28 21 19 25 24 22 23 26 26 28 30 32 37 44 54 52 52 53 55 57
43 42 42 37 35 34 34 36 35 35 37 35 34 34 32 31 33 33 33 33 32 30 34 33 27 24 13 24 27 21 25 24 24 35 35 33 35 44 48 52 52 53 53 55 57

GFSSW_sfc_dewp_072.txt.gz
Dewpoint
55 55 54 55 55 55 55 56 56 56 56 56 56 56 56 56 55 51 38 37 44 58 63 61 62 61 60 58 61 62 59 52 50 52 53 58 58 59 60 59 59 59 59 61 65
54 54 54 54 54 55 55 55 56 56 56 56 56 56 55 55 47 41 53 50 55 62 58 58 58 59 55 55 56 56 55 53 52 53 53 56 57 59 58 58 58 58 59 63 66
54 53 54 54 54 54 55 55 55 55 56 56 56 55 55 53 40 28 55 58 58 62 54 55 56 55 48 49 52 52 53 55 54 55 55 55 57 58 57 57 58 58 60 63 64
53 53 53 53 54 54 55 55 55 55 55 56 55 54 55 48 15 32 62 64 61 57 53 52 52 47 41 43 45 47 51 56 54 55 54 55 56 56 57 57 59 60 61 62 62
53 54 54 53 54 54 54 54 55 55 55 56 55 54 51 36 21 47 59 65 53 50 52 50 47 42 34 35 39 44 47 51 54 55 53 54 55 55 56 59 59 60 60 61 61
54 54 54 55 54 54 54 54 54 54 55 57 56 55 44 22 37 44 50 53 44 42 49 44 42 37 30 30 32 32 38 44 49 50 51 52 52 55 57 60 60 60 60 60 60
54 54 54 54 53 54 54 54 55 55 57 57 56 50 39 25 33 40 49 47 48 43 43 40 39 35 27 28 29 28 31 33 37 47 46 50 49 53 60 60 60 60 60 59 60
54 54 54 54 54 53 53 54 56 56 57 57 57 49 31 37 40 40 47 49 49 49 41 40 38 35 27 25 19 19 24 26 32 44 46 50 47 56 59 59 59 60 59 60 60
54 54 54 54 54 54 53 54 57 57 57 57 52 45 23 42 21 23 37 44 52 41 44 37 35 32 27 21 14 16 11 19 38 44 46 50 49 59 59 58 59 60 59 59 60
53 53 54 53 53 53 53 53 58 57 54 52 47 39 17 14 17 19 23 43 47 42 34 34 29 26 25 17 11 11 10 12 34 43 47 49 50 57 58 58 59 59 60 60 60
53 53 53 53 53 52 46 39 37 27 25 20 17 15 13 16 18 25 36 42 39 41 30 25 24 20 19 20 17 17 13 14 26 41 45 46 49 55 58 57 58 58 59 59 59
53 53 53 52 52 52 39 28 33 34 26 19 18 16 15 15 15 25 40 34 34 31 26 23 20 21 19 18 19 17 20 19 25 37 43 44 45 49 57 57 58 58 60 58 59
53 53 52 52 52 43 31 32 34 35 24 17 14 10 10 12 10 16 33 35 31 29 28 25 22 19 19 19 19 19 17 18 21 32 40 43 44 44 50 56 56 58 59 59 59
53 53 52 51 43 35 30 35 35 36 15 13 10 10 10 11 12 24 31 34 33 27 26 28 26 25 20 19 19 16 16 16 21 28 32 40 36 44 45 53 55 57 58 58 58
53 52 51 51 38 32 34 35 32 29 6 12 11 12 11 11 12 15 31 31 27 32 29 26 27 27 25 23 21 18 16 17 16 22 28 37 38 38 45 49 53 55 57 57 58
52 52 51 44 40 34 35 34 27 17 5 11 12 11 11 11 12 17 22 30 31 27 33 30 28 28 27 26 23 20 17 18 17 13 19 29 33 35 44 48 52 54 56 57 57
51 50 47 40 34 35 35 28 17 6 13 12 11 11 11 11 12 16 20 19 22 23 24 28 29 30 28 24 25 22 16 18 13 9 7 18 26 34 37 46 48 51 55 57 58
49 49 43 37 35 35 34 23 18 14 16 18 15 14 12 13 12 13 16 15 19 20 21 20 20 27 27 26 26 24 23 15 20 9 5 12 19 27 36 39 44 45 48 54 56
49 39 35 36 35 35 30 19 21 21 23 21 17 14 13 13 14 14 17 19 20 19 18 22 20 28 30 28 26 27 24 23 16 20 18 9 16 27 32 35 41 41 45 48 54
40 37 35 35 35 31 26 25 27 28 27 24 18 18 16 15 17 15 16 23 19 21 21 21 16 22 28 31 31 29 28 24 24 24 23 19 19 17 30 37 38 39 39 43 47
38 32 35 35 34 31 26 27 27 29 29 27 23 21 20 19 19 18 16 20 24 19 23 19 14 14 20 26 24 27 28 28 25 25 23 20 18 24 29 34 36 36 38 39 40
35 30 36 36 30 29 28 29 31 28 30 29 28 26 24 23 21 19 17 18 26 22 17 22 17 14 8 28 27 28 29 26 26 30 28 25 19 27 28 29 35 36 37 37 41
34 34 36 34 28 27 30 28 30 29 30 28 28 30 29 25 23 21 20 23 26 23 22 26 17 16 13 7 17 26 28 29 27 26 31 27 26 32 33 35 35 34 36 38 42
35 33 34 33 32 29 29 29 28 31 30 30 30 30 28 25 27 25 24 23 27 25 35 30 18 19 9 17 22 26 28 30 28 27 27 28 31 31 31 33 39 45 48 46 45
36 34 35 30 30 31 31 30 28 28 29 30 31 30 30 27 25 23 26 25 24 29 30 28 25 23 19 16 16 17 18 20 27 30 28 27 29 33 35 38 46 50 50 51 52
37 37 34 33 33 31 32 31 31 30 32 28 29 31 30 30 28 26 25 27 27 27 28 29 25 24 22 18 12 12 14 16 17 25 30 30 31 33 37 41 44 50 52 52 53
41 41 38 35 33 31 32 33 33 34 32 33 31 30 28 28 30 29 29 28 29 28 28 31 27 23 17 14 15 13 13 15 20 23 27 29 32 34 41 43 50 52 53 54 55

GFSSW_sfc_dewp_075.txt.gz
Dewpoint
55 55 55 55 55 55 56 56 57 57 57 57 57 57 56 56 56 51 37 40 44 59 59 44 52 53 55 54 55 55 55 54 52 50 56 56 57 59 65 57 58 58 59 61 61
54 54 54 55 55 55 55 56 56 56 56 56 57 57 56 55 48 39 52 52 50 60 50 47 50 52 52 51 52 52 48 55 56 57 61 54 55 58 55 55 57 57 59 61 61
54 54 55 55 55 55 55 56 56 56 56 56 56 56 56 54 44 35 60 53 56 56 50 50 51 50 48 46 49 49 48 62 59 53 56 55 57 57 53 53 56 57 61 61 60
54 54 54 54 55 55 55 55 56 55 56 56 56 56 55 50 25 44 61 63 63 50 52 48 48 47 43 42 44 45 47 48 57 53 54 57 57 52 58 64 57 59 62 61 60
54 54 54 54 55 55 55 55 55 55 55 56 57 56 52 39 24 39 61 63 57 45 51 47 46 45 39 35 37 39 43 45 54 54 54 55 55 56 55 56 57 60 61 61 60
55 55 55 55 55 55 55 55 55 56 56 56 57 55 47 28 30 34 45 56 44 42 47 46 43 43 35 30 31 34 38 42 48 50 52 52 53 52 55 57 58 59 60 60 59
55 55 55 55 55 55 54 54 57 57 57 58 58 52 38 28 27 34 44 44 40 41 44 45 40 40 32 26 26 29 29 32 39 45 47 51 51 51 57 57 58 58 59 59 59
55 55 55 55 55 54 54 54 57 57 57 58 57 50 32 30 32 36 43 43 42 39 42 43 38 36 31 24 20 23 24 26 30 35 42 47 47 51 57 57 57 58 58 59 59
54 55 55 55 54 54 54 54 58 57 57 57 55 46 24 37 25 23 41 42 43 44 42 39 36 33 30 23 19 14 14 21 26 30 39 45 48 61 56 56 57 58 57 58 59
54 54 54 54 54 53 53 53 58 57 56 50 45 37 16 14 17 20 27 38 45 39 42 36 32 27 27 23 13 9 9 14 24 32 40 43 49 62 60 55 57 58 58 58 58
54 54 54 53 53 52 47 43 44 41 30 18 15 14 13 17 22 23 27 39 44 37 33 35 27 22 23 23 16 11 9 10 18 34 40 42 46 59 55 54 56 57 58 57 58
54 54 53 53 52 52 46 27 28 30 24 17 14 14 14 15 17 28 34 33 35 36 32 25 23 23 20 19 17 14 14 12 12 19 38 41 43 51 53 54 55 56 58 57 58
54 53 53 52 52 43 30 31 31 30 25 18 15 10 10 12 12 20 34 30 29 30 30 26 21 21 19 17 17 17 16 16 16 19 29 39 41 49 60 57 55 55 58 57 57
53 53 52 51 45 32 31 32 30 30 21 14 11 10 11 11 12 19 26 34 29 24 25 25 22 22 19 19 18 17 16 15 14 16 27 36 34 41 56 61 53 54 56 56 55
53 52 51 50 43 32 32 32 28 29 12 11 9 12 10 10 13 15 22 26 27 27 24 21 24 24 25 21 19 20 17 15 14 16 21 28 31 32 43 48 50 52 54 56 55
51 51 51 46 41 33 32 32 27 15 10 9 10 9 9 9 10 14 18 22 25 25 25 27 21 21 23 25 24 23 19 18 16 12 12 23 27 31 36 43 49 51 52 55 55
50 50 48 40 34 33 33 30 18 8 14 10 9 8 9 9 9 12 15 17 17 20 19 22 27 25 24 25 26 25 21 17 14 12 10 11 19 34 34 43 45 49 52 54 55
49 48 46 36 35 34 33 27 21 13 14 16 13 13 10 11 10 10 12 11 16 13 12 16 17 23 26 25 24 25 20 18 20 11 6 10 14 24 33 41 48 49 51 53 55
49 40 37 36 34 34 31 23 23 23 22 19 17 14 11 12 12 14 13 12 18 19 16 12 15 22 23 27 25 23 22 20 16 15 11 7 12 15 24 31 45 49 49 52 54
44 36 35 34 34 32 28 27 27 26 25 22 19 18 17 15 16 16 16 19 18 17 19 17 20 21 23 27 27 25 25 21 21 22 19 16 16 10 21 28 34 39 44 47 52
44 33 36 34 33 32 27 27 27 28 28 26 24 22 21 20 20 19 18 19 20 20 18 16 17 15 18 26 25 25 25 27 23 22 20 18 19 23 22 29 32 34 41 43 45
36 32 35 35 30 29 28 29 32 27 28 27 27 26 24 23 22 21 19 19 23 22 21 20 16 15 11 12 16 20 24 24 26 29 24 22 20 23 22 22 30 36 38 40 41
35 34 34 33 27 27 30 27 29 27 27 26 26 26 26 24 23 21 20 20 22 23 22 25 20 16 14 10 12 20 24 27 22 24 30 23 23 32 30 30 32 34 36 39 41
36 32 32 31 30 29 29 28 27 29 27 28 28 27 25 23 23 23 23 23 26 23 36 30 23 22 13 16 18 18 15 24 25 24 24 26 27 31 32 33 40 45 48 48 48
35 32 34 29 29 31 31 29 26 27 27 28 29 26 28 24 22 21 23 21 23 30 27 25 24 23 21 18 17 16 19 23 28 30 28 27 28 32 34 34 45 48 48 49 49
36 35 33 32 32 30 31 30 28 28 30 28 28 26 26 25 24 23 22 22 22 26 33 27 28 28 24 23 18 17 15 16 19 22 25 30 31 34 37 40 40 41 49 50 51
39 40 35 34 31 28 31 31 32 31 30 30 30 27 24 24 26 26 25 24 22 24 25 31 33 28 25 21 18 17 17 13 15 18 20 25 32 35 35 38 48 52 51 52 52

GFSSW_sfc_dewp_081.txt.gz
Dewpoint
55 56 56 56 56 56 57 57 57 57 57 57 57 58 58 59 58 54 45 44 46 60 64 42 41 43 46 58 60 56 52 53 57 56 55 59 63 63 65 63 60 60 61 63 63
55 55 56 56 56 56 57 57 57 57 57 57 57 57 58 58 52 47 53 63 64 63 33 33 36 45 44 49 53 53 50 53 60 61 60 63 64 61 61 63 61 60 62 63 63
55 55 55 56 56 56 56 57 57 57 57 57 57 57 58 56 50 44 62 65 65 59 36 28 33 41 45 47 49 50 49 58 58 60 59 59 60 62 59 61 61 59 61 61 62
55 55 55 56 56 56 56 56 56 56 57 57 57 57 57 53 39 45 66 65 64 43 33 27 29 37 43 44 47 46 48 53 58 59 61 61 62 62 63 62 61 60 60 60 60
55 55 55 55 55 56 56 56 55 56 58 58 57 57 54 48 41 54 68 66 54 34 28 28 36 43 43 44 44 44 43 47 57 59 61 63 62 61 60 63 62 60 61 60 59
55 56 56 55 55 55 56 56 55 55 59 59 57 57 48 39 31 53 54 55 40 30 32 31 45 47 43 42 40 39 41 39 57 58 59 60 61 60 61 63 61 60 60 59 58
55 55 56 56 55 55 55 55 55 55 59 59 58 54 43 42 36 27 33 52 47 35 32 38 44 47 42 41 40 28 28 28 40 49 58 63 57 56 60 63 60 60 60 58 58
55 55 55 55 55 55 55 54 54 55 60 58 58 52 47 42 28 27 29 36 48 38 32 35 46 47 40 39 37 29 21 24 28 34 46 59 55 61 63 63 62 58 58 58 58
55 55 55 55 55 54 54 54 54 55 59 58 55 52 46 40 26 27 34 36 43 39 32 31 36 41 39 32 32 31 18 19 23 26 34 46 58 63 65 64 61 58 58 58 57
55 54 54 54 54 53 53 54 53 54 58 54 50 47 43 18 18 19 30 35 38 34 33 35 39 38 35 29 28 28 18 15 16 23 29 35 58 62 63 63 64 60 58 58 57
54 54 54 53 53 52 50 40 43 48 46 45 37 40 12 18 22 19 22 29 35 36 34 36 35 33 31 30 28 27 24 19 16 15 26 33 58 60 61 58 62 63 62 57 57
54 53 53 53 52 52 50 39 28 27 24 25 29 10 12 12 16 24 18 25 37 35 38 37 35 34 33 30 28 24 22 22 19 16 20 51 55 56 57 55 59 57 56 61 57
53 53 52 52 52 50 37 33 29 27 23 19 15 10 10 10 12 27 28 31 34 35 32 27 32 34 31 29 22 21 21 19 19 16 16 48 51 51 53 55 55 60 60 60 60
53 53 52 51 47 40 37 33 28 25 24 19 14 12 8 9 10 18 20 26 28 27 30 30 29 25 26 27 25 18 21 19 16 15 15 18 38 50 51 55 58 59 62 62 63
53 52 51 50 45 39 33 30 27 26 21 16 11 12 9 9 15 15 18 20 23 27 26 24 24 26 26 24 21 20 22 20 19 15 14 13 14 48 51 52 55 59 57 61 62
52 52 51 47 47 44 40 32 32 22 19 10 9 8 7 6 9 16 17 19 20 21 21 22 24 24 22 23 22 23 20 20 20 18 13 13 15 41 51 50 49 58 59 62 60
51 50 49 43 40 38 33 34 26 18 15 10 7 5 7 7 8 10 13 16 15 16 18 17 18 20 21 22 21 23 28 21 18 18 16 14 12 13 53 53 51 55 57 55 58
50 49 49 38 40 39 35 33 27 23 20 15 11 10 9 10 9 9 12 10 10 17 10 10 9 15 17 23 21 21 21 22 18 19 17 16 13 15 28 54 52 53 53 52 57
49 46 43 40 39 38 35 30 27 25 24 21 20 18 15 11 13 15 15 12 19 19 18 18 16 17 14 13 22 21 21 22 20 20 20 19 19 17 18 29 50 47 52 54 57
47 45 43 35 35 35 34 33 27 26 25 24 23 22 20 15 18 17 16 21 19 21 20 19 16 16 15 16 19 23 24 22 21 22 21 21 21 23 18 15 48 52 54 60 62
48 44 39 34 35 36 32 30 26 26 26 25 26 25 25 23 23 21 20 21 22 22 23 24 23 20 19 16 16 18 22 22 23 23 19 20 21 23 35 26 42 50 54 59 63
45 39 34 37 37 37 29 30 31 25 27 25 27 25 24 24 24 22 20 22 23 23 27 25 23 22 21 20 18 16 12 27 26 25 27 28 24 39 44 47 39 49 52 56 60
44 39 35 33 30 29 30 26 26 25 25 25 25 26 25 24 24 23 23 24 23 27 27 23 24 21 21 17 21 22 21 20 24 22 24 27 28 41 43 43 50 52 55 57 59
45 34 37 33 30 29 31 27 26 25 24 26 25 26 25 24 24 22 20 18 19 28 34 27 19 19 19 20 21 21 21 23 20 17 23 24 27 41 43 44 51 54 55 57 58
46 33 36 32 32 31 32 30 27 26 26 27 30 23 25 25 23 24 23 22 21 35 27 25 22 22 22 21 21 21 20 23 23 19 16 19 25 38 45 52 52 54 55 57 58
41 39 37 35 34 32 33 32 27 27 28 25 26 23 27 25 26 24 24 24 25 25 24 29 26 31 26 25 23 21 21 22 22 21 17 19 30 39 49 51 51 52 54 52 54
46 44 42 36 31 29 31 31 30 31 29 27 26 26 28 28 28 27 27 27 25 25 24 26 34 28 24 24 22 23 23 23 22 22 22 18 38 39 47 51 52 51 52 50 52

GFSSW_sfc_dewp_084.txt.gz
Dewpoint
56 56 56 56 56 56 57 57 57 57 57 57 57 57 58 59 58 55 47 41 46 59 63 52 52 43 45 56 59 60 55 52 54 55 57 61 62 66 65 61 59 63 62 62 63
56 56 56 56 56 56 56 57 57 57 57 57 57 57 57 59 54 50 52 56 60 63 35 35 38 43 43 46 51 57 51 53 59 60 59 60 60 62 62 62 62 63 62 63 62
55 55 55 56 56 56 56 56 57 56 56 57 57 57 57 57 50 48 60 61 66 62 35 30 35 43 44 46 48 50 52 60 59 60 60 59 62 61 61 60 62 61 61 62 62
55 55 55 56 56 56 56 56 56 56 56 57 57 57 57 54 38 45 66 64 67 43 34 30 27 30 43 44 46 46 49 57 59 59 58 59 63 60 62 63 64 63 62 62 61
55 55 55 55 55 55 55 56 56 56 56 59 57 56 55 47 45 49 68 66 57 39 31 29 29 32 40 43 45 45 46 49 57 57 59 61 62 63 62 64 65 63 63 62 61
54 55 55 55 55 55 55 55 55 55 56 60 57 57 47 32 39 58 58 58 48 33 29 29 33 39 44 42 43 43 42 43 57 58 60 60 61 60 59 66 63 62 61 61 61
54 55 55 55 55 54 54 54 54 55 55 60 58 54 46 38 43 57 54 50 44 30 31 29 30 38 47 43 43 42 31 27 56 59 60 61 59 58 63 65 61 61 60 59 60
55 54 54 54 54 54 54 54 54 54 55 59 58 53 46 49 44 37 49 45 45 33 32 34 37 40 47 46 34 34 26 21 42 56 59 57 55 61 64 64 61 61 59 59 59
55 55 55 54 54 54 54 53 54 55 56 58 54 51 47 51 26 27 27 29 48 44 35 32 32 32 39 33 31 32 30 25 20 53 59 58 57 61 64 62 60 61 60 58 58
54 54 54 54 54 53 53 53 53 53 57 56 52 46 43 31 23 20 23 32 43 41 35 31 32 36 37 31 28 30 28 19 18 18 57 55 58 59 62 63 61 60 60 59 57
54 54 54 54 53 52 50 42 29 34 49 47 43 41 25 21 21 20 25 27 35 34 33 36 35 35 37 33 30 29 27 26 26 24 19 50 59 59 59 62 60 61 60 60 58
54 54 54 53 53 52 49 35 28 27 24 30 37 36 37 12 13 21 18 23 36 34 36 37 34 36 35 32 30 30 27 24 23 24 20 56 59 60 60 62 58 58 61 60 58
54 53 53 52 52 48 38 32 33 33 25 22 20 22 12 10 11 25 22 24 35 35 35 35 35 37 36 32 31 27 24 23 21 21 50 54 55 59 61 61 62 61 61 60 58
54 53 52 51 43 41 37 35 30 26 22 22 18 12 8 9 11 21 24 24 30 34 35 33 32 28 34 31 30 26 25 22 20 18 14 39 32 51 55 55 57 61 60 61 60
53 53 52 51 43 39 36 41 31 26 17 21 14 12 9 8 14 16 20 20 23 24 22 22 27 27 26 26 28 27 26 22 24 20 15 16 21 43 51 52 54 56 59 60 60
53 52 51 47 46 43 43 38 30 19 18 12 11 9 7 7 11 17 19 18 23 20 20 19 23 23 23 25 25 24 23 23 21 19 16 15 13 33 49 50 51 52 58 59 60
52 51 50 47 37 40 39 33 23 17 19 15 8 7 7 6 8 10 14 14 14 17 13 15 15 16 18 19 23 23 22 21 19 16 16 21 15 16 49 50 51 52 55 57 58
50 50 49 45 41 39 35 30 24 24 23 23 21 13 11 9 11 11 12 13 18 18 16 16 11 15 16 16 20 21 21 21 18 18 17 19 16 17 28 50 51 54 56 52 57
50 45 44 40 42 38 32 28 25 25 25 24 22 17 18 12 13 11 21 20 21 20 16 16 15 19 20 19 18 21 20 21 20 27 20 21 23 26 44 43 50 50 56 55 59
46 44 43 42 39 34 30 29 25 25 25 25 25 24 23 22 20 18 20 22 22 25 22 23 16 20 21 18 20 17 17 22 21 20 20 22 22 24 43 47 51 51 54 58 57
46 41 40 33 34 33 27 29 25 25 26 24 25 23 23 23 22 20 21 22 23 25 25 25 21 20 20 20 21 18 20 20 24 23 20 19 22 43 45 50 51 52 51 56 57
45 29 31 36 32 32 26 27 30 24 26 26 26 24 23 23 22 21 21 22 26 27 25 24 23 21 22 23 23 19 21 22 23 25 26 23 26 42 48 51 52 55 52 54 58
43 42 35 31 27 27 27 26 24 24 25 25 24 24 24 21 21 21 24 25 27 26 22 21 21 19 17 21 21 20 20 20 23 22 22 24 27 47 50 52 52 54 59 61 61
42 29 32 33 31 29 27 27 24 26 26 27 25 24 24 23 21 19 21 23 27 27 36 27 19 19 18 19 20 21 23 23 22 20 21 19 21 46 50 52 53 53 54 56 57
41 33 32 30 30 31 30 28 25 25 27 27 24 24 24 22 22 23 23 23 25 34 27 24 21 26 27 25 25 23 22 23 22 21 21 20 20 48 50 51 52 54 54 55 54
34 34 35 31 30 30 33 30 29 29 28 26 24 25 27 25 25 24 25 24 23 24 23 30 25 27 23 24 24 21 21 23 23 27 31 29 33 46 50 50 51 52 54 54 54
45 44 37 34 30 30 30 30 30 32 29 26 26 25 27 27 27 27 30 27 26 27 22 26 28 25 21 25 21 16 23 29 31 39 39 39 41 41 50 50 49 50 52 54 54

GFSSW_sfc_dewp_087.txt.gz
Dewpoint
55 56 56 56 56 56 56 57 57 57 57 57 57 57 57 58 57 55 47 38 44 58 69 65 59 51 53 55 58 60 56 52 54 56 58 62 61 63 64 60 61 63 61 63 66
55 55 55 56 56 56 56 56 57 57 56 56 57 57 57 57 54 50 51 54 57 64 43 53 46 42 42 46 53 57 55 54 58 59 60 62 61 62 62 60 61 61 62 63 67
55 55 55 55 56 56 56 56 56 56 56 56 56 56 57 57 49 47 59 59 60 62 34 37 39 44 43 45 48 52 53 57 60 60 60 60 60 64 64 60 60 60 61 64 65
55 55 55 55 55 55 55 55 56 56 56 56 57 56 57 53 33 45 64 62 66 57 35 29 27 35 42 44 46 46 49 57 60 60 58 58 60 60 62 63 64 62 62 63 64
55 55 55 55 55 55 55 55 55 55 55 57 59 56 54 43 41 53 64 64 61 37 33 27 26 29 35 40 45 45 46 54 59 59 58 61 60 60 63 65 65 63 62 61 62
55 54 55 55 55 55 54 54 54 55 55 57 58 57 46 24 32 60 59 58 48 33 30 29 28 32 37 42 43 44 45 44 58 57 59 59 60 61 62 66 65 62 61 61 61
54 54 54 54 54 54 54 54 54 54 55 56 59 55 46 31 49 57 56 50 46 33 30 29 31 40 45 45 44 44 42 42 56 59 58 62 58 57 64 64 65 63 62 61 61
54 54 54 54 54 54 54 53 54 54 55 57 59 53 44 44 44 53 53 49 44 34 31 30 34 38 43 46 39 34 29 22 52 60 60 59 54 60 63 64 63 62 62 62 61
54 54 54 54 54 54 54 53 54 55 56 59 54 50 45 51 33 34 52 34 40 36 32 32 34 32 36 38 32 32 33 28 44 58 58 58 56 59 63 62 61 61 61 60 61
54 54 54 54 54 53 53 53 53 56 57 56 53 42 38 30 28 23 33 35 46 41 35 33 33 33 37 34 31 32 29 26 24 54 57 56 57 59 62 63 61 61 59 59 60
54 54 54 54 53 53 50 42 29 29 50 39 44 39 40 27 21 19 24 33 35 34 31 31 35 35 36 35 33 30 29 29 28 26 40 56 55 58 60 62 60 61 59 59 59
54 54 54 53 53 52 49 33 28 31 24 34 41 43 42 37 15 20 19 28 35 32 34 36 34 35 37 36 33 32 31 28 27 26 22 47 56 57 60 60 61 61 60 59 58
54 54 53 53 52 47 39 33 35 34 23 23 22 21 22 22 12 21 21 22 35 34 35 35 36 38 36 35 33 30 30 28 26 30 56 54 55 57 58 61 63 60 60 60 60
54 54 53 51 40 40 37 37 40 26 22 22 18 17 10 10 18 28 26 27 31 34 35 35 35 35 32 34 32 30 29 27 24 20 16 42 42 53 57 58 60 61 59 61 60
54 53 52 51 42 39 37 41 36 25 16 24 15 13 8 9 13 15 20 21 23 24 25 28 28 30 27 28 32 30 31 26 23 19 17 17 22 40 56 56 57 59 60 61 61
53 53 51 47 44 43 43 38 27 18 16 13 11 8 6 7 12 18 17 18 21 19 20 20 23 24 23 26 28 28 24 23 21 19 15 16 14 23 53 54 54 56 57 60 60
52 51 50 47 34 39 37 31 22 20 24 22 12 7 6 7 10 12 17 18 17 15 11 13 15 17 16 18 22 23 22 20 17 15 15 17 16 19 39 52 55 54 55 58 60
51 50 49 47 42 37 34 27 23 25 24 25 24 17 10 11 18 21 20 19 23 18 17 13 10 16 19 18 17 20 21 21 16 17 17 20 16 30 46 48 51 51 53 56 58
50 44 44 42 46 38 30 25 25 25 24 24 24 22 22 23 14 21 21 21 24 24 17 16 16 21 21 20 20 18 19 26 20 23 20 21 23 34 49 51 52 52 53 52 55
46 44 42 42 39 33 27 28 25 26 26 26 24 24 22 22 20 20 21 22 22 25 24 25 16 21 22 20 21 19 20 20 21 18 17 21 26 40 49 51 54 57 57 55 55
45 34 35 35 35 30 26 27 25 25 27 25 24 23 23 23 21 20 21 22 24 25 23 27 20 18 21 21 21 21 20 22 24 22 19 19 37 46 50 51 53 55 58 56 56
43 30 35 34 29 29 26 26 30 24 26 25 24 24 22 22 21 21 21 22 26 26 21 22 22 19 21 22 22 23 21 22 21 20 24 23 37 47 50 50 52 53 54 57 59
42 41 38 31 25 26 27 26 25 26 26 25 23 24 24 21 19 22 23 26 25 22 18 23 20 13 12 17 22 20 23 24 23 23 20 22 30 49 51 52 51 51 53 55 57
36 29 32 33 31 28 27 26 25 27 25 25 23 24 23 22 23 21 21 25 29 32 38 27 20 17 11 18 22 23 23 23 23 21 21 21 22 48 49 51 53 53 51 53 55
36 33 33 29 30 31 30 28 27 26 27 26 27 27 24 24 23 24 24 23 24 31 28 22 21 24 24 24 24 23 22 22 22 22 21 24 41 42 48 50 52 55 55 53 52
36 37 35 31 31 30 32 31 30 29 27 25 25 28 27 25 25 25 26 26 23 24 27 28 27 25 21 25 22 19 27 26 28 35 30 33 41 40 48 46 47 50 54 54 53
45 44 34 34 30 30 30 30 32 32 31 28 26 25 26 27 27 28 27 27 28 27 22 26 27 22 18 25 18 18 25 35 37 38 39 38 38 40 45 44 45 46 47 51 53

GFSSW_sfc_dewp_090.txt.gz
Dewpoint
55 56 56 56 56 56 56 56 56 56 56 56 56 56 56 56 56 55 45 36 44 61 63 64 59 52 54 57 58 60 56 52 54 56 58 62 61 63 65 61 62 63 61 63 68
55 55 56 55 56 56 56 56 56 56 56 56 55 55 55 56 52 49 50 54 57 67 63 57 52 44 45 51 57 57 54 54 58 59 59 62 61 63 62 60 61 62 64 67 68
55 55 55 55 55 55 55 55 56 56 56 55 56 56 55 56 45 43 58 57 60 63 53 46 44 42 43 46 49 55 54 55 60 60 61 61 60 64 63 60 61 62 64 66 66
55 55 55 55 55 55 55 55 55 55 55 55 56 57 56 51 37 48 63 60 62 56 33 34 40 42 43 43 46 47 52 56 60 62 60 59 62 59 62 63 62 63 65 66 65
53 54 54 54 54 54 54 55 54 55 55 56 57 56 53 40 36 58 62 61 59 49 32 28 31 35 40 43 45 46 46 52 59 59 59 60 61 61 62 64 64 63 65 65 65
53 54 54 54 54 54 54 54 54 54 55 55 57 57 45 20 36 60 59 59 45 34 33 27 30 32 36 40 43 45 45 46 58 58 59 59 59 60 63 65 63 62 63 64 64
53 54 54 54 54 54 54 54 54 54 54 55 58 54 45 24 53 57 57 54 44 33 30 30 32 34 43 46 46 44 41 46 56 58 58 60 59 59 64 65 62 62 62 63 63
54 53 54 54 54 54 53 53 54 54 55 56 59 52 34 40 53 55 51 46 45 35 31 29 34 37 41 44 37 33 29 24 54 58 59 60 53 59 64 64 62 62 61 61 61
53 53 54 54 54 53 52 53 55 55 56 58 53 48 42 53 45 48 49 45 37 33 33 30 32 34 36 36 33 33 31 24 52 59 59 60 55 61 64 63 63 61 61 61 61
54 54 54 54 54 52 52 53 57 58 57 56 54 42 37 32 31 38 51 44 42 35 35 32 35 33 36 36 34 32 28 29 27 53 57 58 56 61 63 63 63 62 61 61 60
54 54 54 54 54 52 50 43 29 29 51 36 44 37 37 38 25 20 33 37 39 37 32 31 33 32 35 37 33 30 29 29 29 48 55 55 55 58 62 62 62 62 61 61 61
54 54 54 54 53 53 47 33 34 31 27 33 42 43 42 39 23 19 29 34 35 32 35 35 33 36 37 37 32 32 30 29 28 32 33 37 49 58 60 62 62 61 60 60 60
54 54 53 53 52 47 38 34 39 34 23 22 27 27 21 33 19 18 21 30 35 34 34 34 35 37 36 35 32 32 31 28 27 32 54 53 49 55 59 60 62 62 61 60 60
54 53 52 51 41 40 36 42 41 29 21 21 19 18 13 12 20 25 27 29 34 34 36 35 36 36 34 35 34 33 31 30 28 21 17 40 23 49 56 57 59 62 60 61 60
53 52 51 50 44 37 37 41 38 25 13 22 16 12 8 9 18 15 20 23 25 33 33 32 31 33 31 30 33 32 30 28 26 20 19 23 17 25 54 55 56 58 61 60 61
53 52 51 47 44 41 41 37 27 17 16 18 13 8 6 6 13 18 20 21 21 19 19 22 22 25 28 27 32 29 24 22 21 18 15 18 15 18 49 50 55 56 59 61 60
52 51 49 47 33 40 36 29 22 21 25 23 22 19 6 7 14 18 22 22 19 12 11 13 15 17 18 18 20 23 21 19 17 16 15 17 17 38 43 49 51 52 54 59 62
51 49 49 47 45 40 32 26 22 25 24 25 24 22 20 18 20 22 21 22 24 18 17 11 12 17 20 18 17 24 23 20 14 16 16 22 17 36 51 53 55 57 57 55 59
50 44 43 43 46 38 28 24 24 24 25 24 24 22 21 22 18 21 21 21 24 24 16 14 15 21 21 21 20 20 16 20 20 22 20 22 33 39 50 51 53 54 56 58 56
46 42 36 38 38 30 26 27 24 26 26 25 23 24 21 22 20 20 20 22 23 23 24 24 15 19 22 22 22 20 22 19 20 17 17 22 38 43 47 49 52 53 55 58 58
42 29 32 35 33 29 25 27 24 25 26 24 23 22 22 22 20 20 20 20 25 25 22 26 19 17 21 22 21 21 20 22 24 21 19 25 38 47 49 50 50 52 55 58 61
38 29 35 33 27 28 25 25 30 25 26 24 24 23 22 21 21 20 20 24 26 23 17 25 20 18 19 22 23 23 23 22 24 20 23 30 36 50 51 52 52 51 54 57 58
38 36 35 30 25 26 27 25 26 25 25 23 24 24 23 22 20 22 23 26 30 24 17 22 18 11 18 19 22 23 23 24 22 22 21 31 35 50 50 51 53 53 51 53 57
33 28 30 32 31 27 27 26 25 27 26 27 28 25 23 23 24 21 22 25 25 34 38 28 20 9 15 19 23 23 23 22 22 20 21 22 33 43 46 49 50 53 53 52 53
34 32 32 29 30 31 29 28 27 26 26 26 28 27 24 22 24 24 24 23 24 31 29 22 21 23 24 24 24 23 21 20 23 22 22 24 40 41 47 45 46 48 52 52 52
39 36 33 31 30 29 31 29 29 28 27 24 27 27 26 25 25 24 25 26 26 24 25 27 29 24 20 24 21 26 31 30 35 38 31 40 38 45 44 43 44 45 46 50 52
45 42 33 34 30 28 29 30 31 30 30 27 26 26 25 26 27 31 28 26 28 26 22 25 26 19 17 24 20 16 26 37 37 38 38 37 38 40 42 42 43 43 43 44 47

GFSSW_sfc_dewp_093.txt.gz
Dewpoint
55 55 55 55 55 56 56 56 56 56 56 56 56 55 54 54 55 53 39 35 41 60 66 64 54 58 57 63 60 60 56 53 53 55 59 61 61 64 66 62 62 61 59 60 64
55 55 55 54 55 55 55 55 56 56 56 56 56 55 54 54 52 44 45 52 56 66 57 51 47 48 44 55 59 58 55 54 57 58 59 61 61 64 62 61 62 62 63 64 64
54 53 54 54 55 55 55 55 55 55 55 56 56 56 54 55 44 39 57 57 59 64 55 47 45 41 39 49 54 57 55 55 59 60 61 60 61 64 63 60 61 62 62 62 62
54 54 54 54 54 55 55 55 55 55 55 55 55 57 56 53 30 46 61 62 68 51 47 42 41 39 41 46 52 49 50 55 59 60 60 58 61 60 61 62 62 63 61 61 61
54 54 54 54 54 54 55 55 54 55 55 55 55 56 54 35 25 60 61 64 55 42 39 38 37 42 39 45 48 50 48 48 57 60 59 61 61 58 61 63 63 63 62 61 61
54 53 54 54 54 54 54 54 54 54 54 55 55 57 44 15 43 57 55 57 47 35 32 36 36 39 39 43 45 46 47 46 57 59 58 58 60 60 61 64 63 62 61 61 63
53 53 53 54 54 54 54 53 53 54 54 54 55 54 41 17 53 55 54 49 42 34 32 30 36 35 40 43 45 44 41 46 50 56 58 59 57 58 62 64 62 62 62 62 63
53 53 53 54 53 53 53 52 53 54 54 55 57 53 29 40 57 53 48 45 37 33 31 31 32 38 40 42 37 34 32 31 55 55 56 59 52 59 64 63 62 62 62 62 63
53 54 54 53 53 53 52 53 56 56 56 58 55 51 40 53 47 48 46 40 39 35 34 29 29 35 35 38 35 34 35 26 52 56 57 58 53 61 63 62 62 62 62 62 63
55 55 54 53 53 52 52 53 57 59 57 57 54 44 40 34 38 49 48 40 36 34 32 27 28 34 37 37 38 35 27 28 40 55 58 55 55 60 63 62 62 62 61 61 61
55 55 53 53 52 52 50 48 32 35 52 35 38 36 34 36 31 42 44 42 34 34 28 28 28 32 38 39 36 32 30 29 29 49 55 49 51 56 62 62 62 61 62 60 61
55 53 53 52 52 52 47 35 36 34 28 32 39 40 39 38 18 32 42 37 39 30 33 28 29 35 38 38 33 33 32 30 29 39 49 37 40 55 59 61 63 62 61 61 61
54 54 53 52 52 48 38 36 39 35 26 22 27 27 23 32 18 22 34 37 39 34 31 26 32 37 36 37 35 34 33 30 26 28 50 51 48 55 59 61 62 63 62 62 62
53 53 53 51 44 42 37 40 39 33 21 20 19 17 21 21 17 21 26 36 36 32 34 32 37 36 36 35 36 35 33 30 29 26 20 46 24 51 55 58 61 62 62 61 62
54 53 52 50 43 37 39 39 32 27 10 19 16 14 8 16 21 17 22 25 34 35 36 33 35 36 35 35 35 33 33 32 29 26 22 37 22 38 56 54 53 59 62 62 61
52 52 51 46 45 40 39 36 29 20 14 19 17 11 7 9 15 20 23 23 23 28 28 20 20 26 30 29 32 31 27 24 24 22 19 20 17 40 45 50 52 54 55 61 62
52 51 49 45 34 41 39 32 24 20 26 24 23 20 14 17 20 22 24 24 20 27 28 17 17 18 21 19 28 29 25 21 20 18 17 21 30 47 51 53 54 55 57 58 59
51 50 50 47 46 44 35 29 25 24 24 25 25 22 17 20 21 22 23 22 24 19 15 17 15 19 21 21 20 26 23 21 21 18 17 23 35 47 51 53 55 57 58 59 59
50 46 43 38 44 42 31 25 24 25 25 25 24 21 21 20 20 22 23 22 24 24 19 18 17 20 22 23 23 23 23 21 21 22 17 21 38 46 49 51 53 55 57 58 61
47 40 36 38 39 33 28 27 25 25 25 25 23 24 21 21 20 21 22 21 23 23 24 23 18 20 21 22 23 23 23 21 23 23 19 33 39 42 48 50 52 53 56 58 60
39 34 35 35 34 31 26 25 24 25 25 24 23 23 23 21 22 21 20 20 24 23 25 23 20 20 22 23 23 23 22 26 25 24 20 25 38 48 51 52 50 51 53 57 60
36 30 36 33 29 29 25 26 30 24 25 24 25 24 22 23 21 20 21 26 29 21 19 25 19 20 20 23 24 23 24 23 24 28 27 30 38 52 52 52 53 50 51 54 58
37 35 36 33 25 26 27 25 26 24 26 25 24 24 25 23 22 22 24 26 32 29 22 21 18 19 20 20 23 22 21 23 23 24 30 24 37 50 50 49 50 51 51 52 54
36 30 33 34 32 28 27 27 25 27 25 29 28 25 25 25 26 25 24 24 27 32 37 26 21 17 14 22 23 21 17 21 22 23 25 28 42 47 46 47 48 50 51 52 53
37 32 33 30 30 31 30 29 27 26 26 29 29 27 25 23 24 24 24 23 24 31 29 24 21 23 23 22 20 18 18 17 22 24 25 37 43 46 45 45 45 47 48 50 52
40 36 34 32 32 31 32 30 28 27 26 27 28 27 27 26 26 25 24 25 24 26 28 29 25 24 21 22 23 25 28 25 28 34 38 41 43 45 44 43 44 45 46 46 48
46 42 37 35 31 27 30 30 30 30 29 27 28 27 26 27 28 28 27 28 28 26 26 28 27 22 18 23 22 16 27 33 37 39 38 38 40 43 41 41 41 41 42 43 45

GFSSW_sfc_dewp_096.txt.gz
Dewpoint
55 55 55 55 55 55 56 56 56 56 56 56 56 55 54 54 55 50 31 35 38 61 67 58 53 58 61 59 61 60 55 50 52 53 57 60 60 63 65 60 61 59 57 57 59
54 54 54 55 55 55 55 55 55 55 55 55 55 55 55 54 46 34 49 51 54 65 57 47 45 53 52 55 57 56 52 52 55 56 58 59 60 62 62 61 61 60 57 58 59
54 54 54 54 55 55 55 55 55 55 55 55 55 55 55 54 40 31 59 57 61 65 52 41 41 40 34 45 54 55 53 54 57 58 58 58 61 62 61 59 61 60 59 58 58
54 54 55 55 55 55 55 55 55 55 55 55 54 56 56 50 26 47 59 60 63 53 47 42 37 33 30 34 52 52 53 53 57 60 59 57 60 59 61 62 61 62 59 58 57
54 54 54 54 54 55 55 54 55 54 54 55 54 56 53 37 26 57 62 66 54 48 41 38 34 29 30 39 51 50 48 48 54 58 57 59 58 59 61 62 62 60 58 57 56
54 54 54 54 54 54 54 54 54 53 54 55 54 57 43 20 44 50 53 50 43 41 35 34 30 32 29 40 50 51 49 45 51 54 56 58 58 57 62 63 61 58 57 56 56
54 54 53 54 54 54 54 53 53 53 54 55 55 52 38 23 50 45 52 45 40 36 33 31 30 31 32 40 46 46 43 41 46 52 53 57 57 57 63 63 60 57 55 55 57
54 53 54 54 54 53 53 53 54 55 54 55 57 49 21 45 50 44 44 42 38 34 31 32 33 35 35 43 44 43 39 38 46 49 54 56 53 58 64 63 60 56 55 57 59
53 54 54 54 53 53 52 53 57 57 56 57 54 50 32 52 44 40 38 35 32 32 33 31 32 35 39 37 41 41 37 35 45 48 53 56 55 59 63 62 61 59 56 57 60
55 54 54 53 53 52 52 53 58 58 56 54 51 44 41 36 41 41 43 38 35 29 29 27 29 31 34 34 34 38 36 31 41 50 54 53 55 59 60 60 60 61 60 59 59
54 55 54 53 52 52 51 49 41 46 47 32 32 32 31 31 40 41 39 39 32 28 25 24 25 24 30 33 36 37 34 33 39 51 51 49 47 56 60 59 60 60 61 59 59
55 55 54 52 52 52 48 34 35 35 25 29 31 33 32 28 27 38 38 34 26 21 25 21 23 26 33 37 38 36 32 31 31 45 47 34 35 46 57 58 60 60 60 60 60
55 54 53 52 52 49 38 35 37 36 25 20 24 24 23 28 23 34 37 35 28 24 24 19 21 32 37 38 35 37 34 31 30 32 36 42 46 52 55 57 60 62 61 61 60
55 53 53 52 46 41 37 39 36 35 17 16 19 18 22 20 18 27 33 35 33 25 25 22 30 34 38 36 35 31 36 32 27 26 32 41 35 47 53 57 60 61 61 62 61
54 53 51 50 42 37 38 36 32 30 10 18 15 18 15 14 19 23 31 31 32 26 27 26 33 35 35 36 36 33 35 34 28 26 25 33 30 46 51 51 53 60 61 62 62
53 52 51 46 43 37 37 36 30 22 16 17 12 9 11 20 19 20 24 26 32 31 29 31 34 36 35 36 36 34 33 32 29 24 22 30 28 42 46 52 53 55 57 61 62
52 51 50 43 36 41 41 33 23 18 23 17 15 10 16 21 23 23 23 25 27 30 28 28 29 24 25 33 35 31 26 24 25 21 18 23 23 48 50 53 54 56 57 57 58
51 50 49 44 41 43 37 29 23 23 22 23 19 11 16 18 22 20 21 25 23 24 25 20 22 24 22 25 30 29 24 20 24 18 16 23 31 47 50 52 56 57 58 60 60
50 45 38 35 43 39 31 24 25 25 24 23 18 11 16 18 18 21 22 23 23 23 23 21 19 19 21 22 24 28 26 22 19 20 16 25 45 47 48 50 54 55 58 59 62
46 38 35 34 39 33 28 28 26 25 24 24 16 21 14 17 18 19 21 22 21 22 24 23 21 19 20 21 23 26 26 21 21 23 21 22 38 43 48 50 52 54 56 59 61
41 32 34 34 35 31 26 26 25 25 25 25 23 22 20 20 18 19 19 22 23 21 24 20 22 20 22 23 24 23 23 25 21 22 19 23 35 49 50 52 51 52 54 57 59
35 29 34 35 28 31 26 26 30 23 26 24 25 24 23 22 21 20 22 25 25 21 21 24 19 20 20 22 23 24 26 28 23 27 23 24 43 52 51 52 52 52 52 53 56
34 31 33 32 23 23 27 23 24 21 26 25 24 25 25 24 24 22 23 25 25 24 24 22 21 18 19 18 23 22 24 24 25 24 28 20 42 51 50 50 52 51 52 52 53
34 27 30 31 31 26 26 25 24 25 25 27 26 25 26 25 26 25 22 22 26 25 34 25 22 22 16 22 23 21 17 21 22 22 24 26 46 48 49 49 50 51 52 52 52
35 29 34 27 29 29 29 27 24 23 24 27 28 25 25 26 25 25 23 23 23 30 25 24 24 24 21 19 18 18 16 15 21 27 26 37 44 47 47 48 49 50 51 50 51
35 32 31 32 33 30 30 27 23 23 23 25 26 24 26 26 27 25 25 26 25 25 27 26 26 24 20 17 16 16 20 19 19 26 32 44 44 46 46 46 46 47 48 49 48
45 39 35 32 27 21 26 26 26 24 25 26 26 25 26 27 28 27 26 25 27 27 24 25 25 24 18 18 16 12 18 21 24 31 34 40 44 45 44 44 45 44 44 44 45

GFSSW_sfc_dewp_099.txt.gz
Dewpoint
55 55 55 55 55 55 56 56 56 56 56 56 56 56 55 55 55 47 31 40 41 64 68 54 54 51 55 55 55 59 58 52 51 54 58 62 61 62 63 58 59 59 55 55 57
55 55 55 55 55 55 56 55 55 56 56 56 56 56 56 55 44 31 52 58 58 68 59 50 47 49 51 52 53 55 58 52 54 56 57 60 60 62 60 59 59 58 54 56 57
55 55 55 55 55 56 56 56 55 55 55 56 56 56 57 54 40 32 63 62 61 65 52 44 41 47 45 47 51 54 55 53 56 58 56 58 59 62 61 59 59 55 55 56 57
55 55 55 55 55 55 56 56 55 55 55 55 56 56 57 51 31 51 60 62 63 55 50 38 35 38 32 35 48 50 52 53 56 56 56 57 59 60 61 60 61 57 56 56 56
55 54 54 54 54 55 55 55 54 54 54 55 56 56 54 38 32 56 60 59 46 52 45 37 33 32 27 29 43 50 48 48 54 56 56 58 57 61 61 61 61 60 56 55 54
54 54 54 54 54 54 54 54 54 54 54 55 56 56 47 28 40 48 43 39 40 47 40 36 32 30 27 29 43 48 47 46 51 54 56 55 58 60 63 62 61 58 54 54 53
54 54 54 54 54 54 54 54 54 54 54 55 56 52 40 28 43 45 42 35 40 40 35 32 28 28 29 33 43 48 47 43 48 52 55 57 56 59 63 61 58 56 54 53 53
53 54 54 54 54 54 53 54 55 55 54 55 56 49 30 36 42 42 40 35 36 37 32 30 29 28 30 36 43 45 44 39 44 48 53 56 54 62 63 60 56 55 53 53 54
55 54 54 54 54 54 53 54 57 58 56 56 54 48 31 53 39 39 37 34 32 32 31 29 28 27 31 35 37 44 38 37 41 47 52 57 56 63 61 60 56 54 53 53 55
55 55 54 55 53 53 53 54 57 57 55 53 50 44 40 33 35 36 35 29 29 30 30 28 25 25 29 33 31 38 36 35 40 44 52 56 55 61 61 61 57 54 53 54 56
56 55 53 54 52 52 51 51 48 46 44 37 26 32 27 30 36 35 37 34 27 27 26 23 20 20 25 26 28 33 34 33 40 46 50 55 57 59 61 60 60 58 55 54 55
56 55 54 54 53 53 50 37 32 32 27 31 29 31 28 33 31 32 33 33 31 21 25 20 18 19 23 27 30 35 32 32 42 47 54 55 51 60 58 58 59 60 60 59 59
55 53 54 53 53 48 39 32 33 31 25 19 25 25 26 25 25 30 31 29 24 21 20 21 17 20 25 27 33 36 32 32 34 45 41 39 47 52 54 55 59 60 61 60 60
55 54 53 52 44 36 34 35 32 32 22 19 20 20 20 23 23 32 31 31 23 18 20 22 18 22 29 32 33 30 31 30 32 34 36 43 44 54 51 58 59 61 62 61 61
54 53 53 51 44 34 36 33 31 31 17 15 15 18 19 18 19 26 31 31 30 20 24 21 19 25 31 32 30 28 33 32 29 29 39 41 42 52 49 51 58 59 61 62 61
53 53 52 48 44 34 33 33 31 22 18 14 13 13 13 13 18 25 28 29 31 28 23 22 23 30 31 32 31 34 32 34 31 26 26 40 39 45 53 50 55 58 60 61 60
53 52 50 45 35 34 35 34 22 17 21 16 9 8 7 15 17 21 23 23 29 27 26 28 27 31 32 32 34 34 32 27 26 23 21 33 38 50 50 53 56 57 58 59 61
51 50 48 40 38 37 37 31 26 29 18 18 13 7 13 20 19 20 22 21 26 27 22 24 27 28 33 32 31 32 27 22 25 18 16 21 37 46 50 55 56 57 59 60 60
50 44 41 36 37 38 34 27 28 22 21 16 13 11 18 16 20 21 21 22 23 25 26 22 21 24 25 28 27 30 26 21 18 18 14 30 45 46 49 52 55 56 58 59 62
45 36 36 33 35 34 30 27 25 23 22 19 13 13 15 16 15 16 20 24 23 24 24 25 23 22 23 25 25 26 26 21 20 24 19 32 41 41 49 50 53 54 56 58 61
43 31 33 32 32 31 26 25 24 24 23 22 22 15 17 15 14 18 19 22 23 22 24 21 23 22 22 25 23 24 25 25 21 20 20 25 40 48 51 51 52 53 54 56 58
30 27 32 29 29 25 24 25 28 22 25 23 23 18 18 17 16 16 19 24 23 21 22 23 20 21 20 23 24 24 24 24 23 26 22 22 45 50 50 51 53 53 52 54 56
33 25 27 27 24 20 25 21 22 20 23 24 23 24 23 20 21 19 22 24 23 22 25 22 17 21 21 19 21 23 24 24 22 21 29 21 47 51 50 52 52 52 52 52 53
32 27 24 26 23 22 22 21 21 20 21 24 25 26 25 24 25 23 21 22 23 21 38 33 17 22 19 22 20 21 22 23 22 23 24 27 47 49 49 51 52 52 52 52 53
31 23 32 25 23 23 25 22 19 19 20 24 25 24 25 26 24 24 22 22 21 29 27 24 23 21 21 18 18 20 18 16 21 24 23 41 46 48 50 50 51 52 52 52 52
35 29 24 26 28 26 27 24 18 18 21 20 23 21 23 26 26 25 25 26 25 25 27 27 25 26 21 17 16 16 15 16 16 19 26 44 46 49 50 51 51 50 50 50 49
38 32 34 30 23 19 23 23 20 20 23 23 21 21 24 26 26 26 25 26 27 29 27 29 25 27 22 18 17 16 18 17 19 19 25 41 46 49 48 48 49 49 48 48 48

GFSSW_sfc_dewp_102.txt.gz
Dewpoint
56 56 56 56 56 56 56 56 56 56 57 57 57 57 57 57 57 47 28 39 42 66 66 42 43 46 50 52 56 59 59 54 52 55 59 61 60 62 63 57 58 59 54 55 56
55 55 55 55 56 56 56 56 56 56 56 56 56 57 57 58 47 36 49 63 64 66 51 45 48 50 47 50 52 59 59 56 54 56 59 60 59 60 59 57 57 52 54 55 55
55 55 55 55 55 55 55 55 56 56 56 56 56 57 57 56 43 27 62 64 64 62 49 48 47 45 46 47 48 60 58 57 57 57 59 59 60 63 61 58 57 53 54 55 54
55 55 55 55 55 55 55 55 55 55 55 55 56 57 57 49 40 46 65 65 64 35 51 46 41 40 45 43 44 55 55 54 56 57 58 58 60 62 64 60 56 54 54 54 53
55 54 55 55 55 55 55 55 55 55 55 55 55 56 52 41 32 55 62 60 32 34 49 44 35 36 38 33 36 49 50 54 54 57 58 59 58 62 64 60 58 55 54 54 52
54 54 54 54 55 55 55 55 54 54 55 55 55 56 46 37 39 48 40 33 21 40 48 40 32 33 30 28 30 44 52 50 55 55 56 56 59 58 63 61 60 56 54 53 51
54 54 54 55 55 55 54 54 54 54 55 55 55 52 44 34 39 43 37 27 26 43 43 37 33 30 28 28 31 47 45 45 55 54 55 57 57 59 64 62 60 55 53 52 51
54 54 55 54 54 54 54 54 55 57 56 55 56 48 41 33 38 41 37 27 33 42 38 33 32 27 27 29 35 41 44 43 52 54 55 54 55 61 64 62 58 54 52 52 52
54 54 55 55 54 53 54 54 57 58 57 55 52 47 38 49 37 38 33 28 32 36 34 28 28 26 26 27 32 41 39 40 44 51 56 55 58 62 63 62 55 53 51 51 52
56 56 56 55 53 53 54 54 57 56 55 49 50 43 41 33 34 37 35 31 31 31 30 27 26 24 24 28 28 35 37 40 42 49 56 56 58 61 62 63 56 53 52 52 53
56 56 55 54 55 54 52 51 48 48 45 39 35 37 35 30 33 33 31 28 27 29 27 28 21 19 21 25 32 33 35 39 41 53 53 53 57 58 60 62 55 52 52 52 54
55 55 55 54 54 53 50 44 30 31 28 35 29 28 26 30 31 30 34 28 23 23 26 22 17 18 19 24 25 27 34 37 50 53 54 54 54 57 60 60 59 54 53 55 57
54 55 55 54 53 49 43 36 29 27 24 25 24 27 26 31 31 28 31 31 28 22 19 21 16 17 16 19 22 25 30 36 54 48 50 52 53 53 59 59 62 58 55 56 59
55 54 54 53 44 38 34 31 27 26 25 19 17 20 23 24 22 28 27 29 24 23 17 20 19 15 17 19 24 27 35 40 47 45 45 50 48 51 57 60 62 61 61 58 58
55 54 54 53 42 36 34 28 28 26 22 17 16 20 20 20 21 28 27 27 28 17 19 17 19 16 19 22 26 30 31 33 31 34 44 44 42 51 56 56 60 62 60 60 59
55 54 53 47 44 36 30 28 27 21 20 13 14 15 16 17 18 26 26 29 29 28 17 21 19 19 22 28 30 30 31 32 31 27 34 41 39 50 54 58 55 59 59 60 60
53 52 51 44 36 32 31 30 20 16 22 15 12 11 12 13 16 22 24 26 27 28 25 21 20 20 25 28 31 27 31 30 28 25 23 38 38 51 56 57 60 59 61 62 63
52 51 48 42 38 35 35 32 32 36 23 20 12 7 8 9 16 18 24 22 24 26 23 19 23 22 28 30 29 30 31 28 27 23 21 37 44 50 55 58 60 59 60 62 65
51 43 41 42 40 35 33 40 38 34 29 13 13 9 8 26 23 17 20 21 19 26 31 22 23 27 29 31 34 29 29 27 23 22 18 42 50 52 53 55 56 56 58 60 62
46 36 38 30 29 32 32 35 33 23 18 16 15 13 20 27 23 19 21 29 26 25 27 27 27 27 25 27 28 29 28 25 26 26 24 42 45 47 51 53 54 55 56 58 60
43 35 33 28 27 26 37 37 21 21 20 20 30 19 19 23 17 16 24 24 23 23 25 24 28 24 24 23 24 26 25 26 23 23 22 38 46 49 51 52 53 54 55 56 58
35 30 33 27 25 26 31 23 29 20 19 19 33 34 23 22 21 22 23 24 23 23 23 25 22 25 21 21 21 21 24 25 25 29 26 43 46 52 51 52 53 53 53 54 57
39 31 23 21 25 22 23 18 20 19 21 21 20 20 20 21 23 26 24 22 21 21 28 28 22 22 21 20 23 24 24 22 22 23 31 33 45 52 52 52 53 53 53 53 55
39 26 22 20 23 20 20 19 18 16 19 22 24 23 20 23 21 21 20 20 20 19 43 36 19 24 25 26 21 21 22 23 22 23 23 42 48 49 50 51 52 53 53 53 53
39 23 28 25 21 22 22 19 16 16 14 20 24 23 22 24 24 22 20 20 21 29 25 22 23 21 22 23 18 20 17 20 22 25 30 46 47 50 50 52 52 53 53 52 52
35 31 19 24 25 25 24 22 15 13 21 17 19 20 21 25 29 30 26 25 22 25 24 26 26 24 23 18 18 17 18 17 16 17 42 44 47 51 52 52 52 51 50 50 49
36 29 32 28 21 17 23 22 18 17 20 20 19 18 17 26 26 26 25 25 26 28 27 28 28 26 22 20 17 16 17 17 17 19 26 43 47 50 50 50 51 51 49 49 49

GFSSW_sfc_dewp_105.txt.gz
Dewpoint
55 55 55 55 56 56 56 56 56 57 57 57 57 57 58 58 58 52 37 38 44 59 65 43 37 36 42 52 57 64 59 56 56 56 58 61 61 63 65 56 56 55 55 56 59
55 55 55 55 55 55 55 56 56 56 56 57 56 57 57 58 52 41 48 60 65 64 36 41 37 41 42 46 49 60 57 57 59 58 60 61 61 62 60 57 58 54 55 56 59
55 55 55 55 55 55 55 55 56 56 56 56 56 57 58 57 48 33 62 60 65 62 31 45 42 45 48 46 49 56 57 56 56 60 60 58 61 63 61 55 53 53 54 55 59
54 54 54 55 55 55 55 55 55 56 55 56 56 56 58 53 42 45 69 63 66 42 30 40 48 45 43 43 48 57 58 60 59 60 58 60 61 63 62 64 57 54 54 54 58
54 54 54 54 54 55 55 55 55 55 55 55 56 56 54 46 34 52 66 65 44 29 28 46 48 41 39 43 43 51 54 61 58 61 62 61 61 63 62 64 56 55 55 54 54
54 54 54 54 54 55 55 55 54 54 54 55 55 56 52 36 48 53 45 44 28 21 34 46 47 37 35 38 30 46 58 62 58 60 60 60 62 60 63 65 55 54 54 53 53
54 54 54 54 54 54 54 54 54 54 55 55 55 53 44 37 43 45 38 31 22 22 44 48 48 32 32 29 28 48 50 57 56 56 57 59 57 58 64 64 58 53 53 53 52
54 54 55 54 54 54 53 55 55 55 56 56 55 51 42 37 34 41 38 30 23 30 42 45 38 33 27 28 27 30 50 54 56 55 57 56 55 60 64 64 64 57 53 53 53
54 54 54 55 55 55 54 54 55 58 59 56 53 50 42 47 34 38 37 26 24 33 40 41 32 28 27 26 25 32 35 48 52 55 56 56 56 60 63 64 64 58 53 51 52
55 55 55 56 55 55 54 54 55 57 56 50 45 45 42 37 34 35 36 28 30 34 35 31 26 25 25 24 24 31 36 50 51 54 55 57 58 58 61 63 63 56 52 51 52
54 54 55 55 55 54 51 51 49 49 50 40 40 42 36 37 33 35 35 31 30 31 29 27 24 23 22 24 25 29 36 44 49 55 56 56 57 55 61 63 63 55 51 51 52
54 53 54 55 54 54 51 44 45 29 32 41 37 37 36 30 31 32 32 28 27 26 28 27 25 24 21 21 23 24 30 51 57 58 56 57 57 58 60 62 63 60 52 53 54
56 54 53 54 53 50 45 42 41 28 25 23 34 28 26 30 30 29 30 30 22 24 24 24 23 23 17 17 18 23 24 49 52 54 59 54 54 56 59 61 62 61 60 54 55
55 55 55 53 50 41 37 40 39 27 25 25 26 22 27 28 29 30 31 31 26 21 20 20 23 19 15 16 16 19 34 51 51 50 49 52 46 53 55 57 59 60 63 58 57
55 55 54 53 49 39 37 28 26 28 23 21 17 21 23 22 23 26 29 28 27 22 24 20 17 19 14 16 17 21 48 50 48 48 48 48 47 51 55 54 57 60 60 60 58
55 54 53 50 48 41 37 37 30 24 23 15 16 18 19 20 20 26 27 27 27 26 25 19 18 18 19 17 19 27 28 42 49 51 47 47 45 51 54 55 57 58 58 62 59
53 53 51 46 39 37 35 34 26 21 33 15 13 13 14 16 17 27 27 24 25 26 28 22 16 20 19 22 27 29 27 30 33 44 39 44 44 49 56 55 57 57 58 64 63
52 51 50 46 40 40 37 38 35 34 33 29 18 13 11 13 15 22 24 23 27 26 26 22 18 20 23 24 26 31 26 32 34 28 25 37 47 53 56 60 61 62 64 64 65
51 48 45 42 45 43 39 39 38 34 30 27 17 14 10 22 27 25 21 23 24 25 28 28 21 23 25 27 33 31 30 29 33 28 26 48 53 55 56 57 58 60 62 62 63
49 42 37 37 41 40 37 38 39 37 31 18 24 24 25 28 28 28 28 29 27 26 33 33 26 28 28 30 31 31 30 26 28 26 26 46 48 50 53 54 55 56 58 61 63
48 37 38 37 30 35 34 35 35 30 20 26 28 28 28 27 29 33 34 29 28 24 24 30 30 30 27 28 28 28 27 30 27 29 24 41 46 55 53 53 53 54 56 58 61
41 36 37 35 29 33 34 33 32 18 24 27 33 32 31 28 29 36 28 28 23 23 26 30 27 30 27 25 23 24 24 27 28 26 35 44 47 57 55 53 53 53 54 57 60
42 41 35 25 26 30 35 20 19 20 22 24 27 31 31 28 28 30 30 25 21 24 27 28 29 26 27 30 22 22 24 24 22 23 26 31 47 57 55 54 53 52 53 56 57
44 40 34 31 29 28 25 24 19 16 18 21 26 25 28 30 31 28 25 20 21 21 48 41 22 30 28 29 29 23 22 23 28 23 42 47 49 51 51 52 53 52 52 53 55
48 37 36 33 28 26 28 24 19 19 20 26 32 25 24 30 32 34 28 22 22 37 32 25 28 26 24 26 25 19 18 21 23 33 37 47 47 50 51 51 52 53 52 52 53
47 36 35 31 30 26 31 26 17 15 25 22 25 20 23 34 36 34 30 28 26 28 27 29 27 27 26 22 20 18 18 19 20 44 47 48 49 51 52 52 52 51 50 49 48
48 46 44 36 27 26 28 26 19 24 26 20 22 27 26 25 28 28 34 32 30 31 31 30 32 31 24 28 24 19 19 19 19 20 46 46 49 51 51 51 51 50 48 48 48

GFSSW_sfc_dewp_108.txt.gz
Dewpoint
55 55 55 55 55 54 55 55 55 56 56 57 57 57 57 58 58 54 36 32 43 63 65 47 54 40 36 44 58 64 58 54 54 55 60 62 58 63 65 55 56 56 57 59 63
54 55 55 54 54 55 55 55 55 56 56 56 56 56 57 58 55 47 48 55 61 64 45 35 39 36 38 42 45 59 55 55 58 60 60 62 60 61 58 55 56 55 60 62 63
54 54 54 54 54 54 54 55 55 55 55 55 56 56 57 58 50 38 61 62 62 66 31 30 42 39 40 45 50 56 54 56 54 57 59 60 61 62 57 59 54 56 59 61 62
54 54 54 54 54 54 54 54 55 54 54 55 56 56 57 54 41 45 67 63 67 50 32 29 37 44 46 46 49 54 57 59 60 61 60 61 62 61 61 60 56 56 59 61 61
54 54 54 54 54 54 54 54 54 54 54 54 55 56 54 47 37 47 69 64 58 36 28 30 45 46 44 43 44 56 57 58 60 61 61 62 61 61 60 59 57 56 60 61 60
54 54 54 54 54 54 54 54 54 54 54 54 55 56 51 30 44 56 53 45 31 23 24 36 48 48 41 38 38 40 59 59 61 61 61 60 60 60 60 61 58 54 54 59 60
54 54 54 54 54 54 54 54 53 54 54 54 55 53 48 36 45 51 42 37 29 19 37 30 41 48 38 30 33 59 59 56 60 61 60 60 58 57 63 64 55 53 54 55 59
55 54 54 54 54 54 54 55 54 55 56 54 55 51 38 42 40 43 41 33 27 19 24 43 46 45 31 28 29 50 56 55 58 58 60 57 54 60 64 62 57 53 54 54 60
54 54 54 54 55 56 55 55 55 56 59 56 51 47 36 48 36 33 38 29 25 23 27 33 41 34 27 26 24 28 47 52 54 59 57 57 55 61 64 63 61 58 54 54 58
54 54 53 55 55 55 54 54 54 56 54 51 48 44 44 37 32 36 38 28 24 26 32 36 29 25 25 24 22 24 38 51 54 56 56 56 56 61 63 62 60 59 60 55 56
54 54 53 53 55 54 51 50 48 48 51 37 40 45 41 39 37 35 37 27 31 32 32 30 24 22 23 24 24 25 33 49 54 57 56 56 56 60 62 61 58 61 61 54 56
55 54 53 53 54 53 50 43 45 36 29 45 39 43 40 39 31 33 34 29 29 28 30 27 24 25 25 24 23 23 27 48 56 56 57 56 56 58 61 60 60 61 60 53 57
56 54 54 54 53 48 46 43 43 36 26 24 40 35 33 33 31 32 31 28 26 26 27 26 26 27 26 23 20 18 25 50 53 56 57 55 54 56 60 60 62 63 62 61 56
55 55 54 53 49 44 41 41 41 36 22 24 26 28 28 31 30 31 30 30 27 22 23 24 26 25 24 22 17 15 21 47 51 50 46 54 46 53 56 58 61 62 62 62 55
55 55 54 52 46 36 35 36 38 27 21 26 25 26 26 25 27 30 32 31 29 25 22 21 21 20 20 20 17 17 50 51 49 50 48 50 47 47 55 56 58 61 61 62 60
54 54 53 49 48 42 40 40 29 21 20 23 20 20 21 23 22 27 29 29 29 27 26 25 26 19 18 19 17 47 49 49 51 49 44 47 47 50 52 54 57 60 61 62 61
53 52 51 48 35 39 39 35 26 18 33 26 18 18 17 18 20 27 26 24 23 29 25 28 29 21 18 18 23 31 40 35 40 40 38 46 48 49 54 56 57 59 61 62 61
51 51 50 49 45 41 40 36 32 33 33 32 25 19 13 14 16 26 26 24 24 26 26 24 24 20 21 20 20 27 28 33 32 34 38 41 45 52 55 58 58 59 63 63 64
51 46 46 46 47 42 38 33 32 35 32 29 24 21 13 26 26 28 31 23 24 26 23 26 26 27 27 25 25 26 30 31 35 31 37 49 53 56 57 57 60 60 62 63 64
47 43 37 38 44 40 34 35 35 38 34 29 24 27 25 28 31 30 34 32 27 25 26 31 24 27 29 29 31 31 30 25 27 26 28 45 49 50 54 56 58 58 60 62 64
47 30 34 35 39 32 28 34 37 38 36 27 28 27 29 28 33 35 35 33 25 22 27 35 28 26 30 27 28 28 28 27 26 27 25 39 46 56 55 55 55 56 59 61 63
45 32 35 32 27 27 24 31 33 20 24 29 32 31 29 31 33 33 32 34 35 25 25 31 28 28 28 30 26 27 27 29 26 24 38 43 48 55 55 55 54 55 56 61 62
40 38 41 24 18 21 32 23 19 18 18 22 29 30 30 28 28 33 31 33 33 26 22 29 24 28 27 26 27 21 25 28 25 28 39 40 47 56 54 53 54 55 58 59 60
43 37 31 25 25 28 23 19 17 15 19 20 25 26 27 27 28 30 29 24 22 22 49 37 26 31 28 28 29 26 21 24 24 32 42 45 50 53 53 52 52 54 57 58 59
46 40 29 28 24 22 20 20 18 15 20 17 20 22 22 29 31 32 31 28 22 37 29 29 27 29 30 26 23 24 18 18 24 34 32 48 48 51 52 52 52 53 55 56 57
42 38 39 32 22 20 27 18 19 20 20 20 26 25 31 30 32 32 32 29 29 25 30 26 27 31 28 26 26 20 19 26 44 47 48 49 49 51 52 52 52 51 53 53 54
50 44 42 40 33 23 24 20 25 23 23 26 29 27 26 25 30 33 31 31 35 31 28 30 29 28 26 27 24 19 21 19 31 48 49 47 49 51 51 51 51 50 48 48 52

GFSSW_sfc_dewp_111.txt.gz
Dewpoint
54 55 55 55 54 54 55 55 55 55 56 55 55 56 57 57 58 56 40 29 39 62 68 61 56 46 38 43 56 65 57 54 55 57 59 59 57 61 59 56 57 58 58 60 66
54 54 54 54 54 54 54 54 54 54 55 55 55 56 56 57 54 50 47 51 57 68 44 41 45 40 35 40 48 59 54 56 58 60 59 61 59 59 56 55 57 57 60 65 66
54 54 54 54 54 54 54 54 54 54 54 54 54 56 56 57 45 33 57 58 64 63 37 32 40 37 37 43 45 58 53 57 57 60 60 60 60 60 56 56 56 57 61 64 65
54 54 54 54 54 54 54 54 54 54 54 54 54 56 57 52 22 44 65 63 64 58 37 28 31 39 42 45 49 53 55 56 60 60 58 60 60 59 59 61 59 61 63 63 63
54 54 54 54 54 54 54 54 54 54 53 54 54 55 53 43 29 33 69 63 61 41 28 30 39 45 44 44 50 52 56 59 61 60 61 62 61 60 60 61 61 62 62 62 62
55 55 54 55 54 54 54 54 53 53 53 53 53 55 49 12 27 55 56 56 48 30 27 35 44 47 46 42 41 45 58 60 61 61 62 61 61 61 60 62 59 60 61 61 62
54 55 54 55 54 54 54 53 53 53 54 53 54 53 48 24 47 51 48 43 31 23 23 28 42 47 46 40 34 59 57 58 60 61 60 60 57 56 60 57 59 59 60 61 61
54 54 54 54 54 54 54 55 55 54 54 53 55 50 36 36 40 44 41 34 30 21 28 34 39 47 45 41 46 56 55 53 59 59 60 57 54 59 64 61 57 58 59 59 60
55 54 54 53 53 55 55 55 55 55 56 56 49 46 33 46 39 35 41 32 25 23 23 26 39 41 30 26 24 29 44 51 52 58 59 56 55 60 63 59 57 54 56 59 59
55 54 53 52 52 54 54 54 54 56 54 52 49 43 41 37 33 34 40 29 23 23 29 32 33 26 25 24 22 26 42 50 51 55 57 56 55 61 62 59 57 58 54 57 60
54 54 54 53 52 54 50 51 48 46 50 32 35 43 41 39 38 36 37 27 31 33 32 32 24 23 25 25 25 25 25 42 56 56 57 56 56 59 61 59 60 60 60 58 60
56 54 53 53 53 52 49 39 42 38 34 44 40 42 42 40 36 33 34 27 30 29 30 28 24 25 25 25 24 23 24 51 56 57 57 57 56 59 61 61 61 60 61 57 59
56 55 54 54 52 48 44 41 41 42 32 27 42 37 33 34 33 31 33 30 28 27 28 27 27 27 25 26 24 20 20 37 53 56 56 56 55 57 59 61 60 61 62 61 57
55 55 54 53 45 44 40 40 41 37 22 22 26 30 30 32 31 33 32 28 26 25 25 26 28 27 25 25 22 19 20 30 54 51 47 54 46 54 57 58 58 59 61 61 59
55 55 54 51 41 36 32 39 39 27 20 26 26 27 27 29 29 30 32 30 28 22 21 21 22 23 24 23 20 20 30 26 51 48 48 50 47 46 56 56 57 58 58 62 60
54 54 52 49 47 44 44 39 27 21 23 28 24 20 24 24 22 30 30 29 30 29 27 25 26 24 22 20 20 49 49 49 49 47 41 47 46 48 53 55 56 57 60 63 61
53 52 51 48 33 41 40 36 26 19 30 27 26 18 21 21 22 27 27 27 23 22 23 27 28 27 22 20 28 48 42 40 40 39 39 45 48 48 53 56 58 58 61 63 63
52 51 49 49 45 40 38 34 29 32 32 32 28 20 18 17 20 26 25 25 25 26 25 24 23 22 21 19 18 45 36 35 32 36 37 47 44 50 56 58 59 61 60 63 64
50 45 46 45 48 42 35 31 29 34 32 30 24 25 27 29 29 30 29 28 25 26 23 24 26 29 24 24 25 28 30 32 34 34 36 45 52 55 57 58 59 61 62 63 64
46 43 36 45 44 38 33 32 34 37 35 30 24 27 26 30 30 31 31 33 26 25 27 28 25 27 29 30 31 27 30 27 28 28 28 43 46 50 54 55 57 58 60 61 63
44 32 31 44 38 36 30 30 34 37 36 28 29 26 28 29 33 33 33 32 27 26 29 34 28 26 29 27 28 29 27 27 26 27 30 37 44 55 55 56 56 58 59 61 63
42 28 35 37 31 28 24 31 32 19 31 30 31 30 29 30 31 31 31 32 34 28 23 30 28 27 27 29 29 28 30 27 26 25 41 41 46 56 56 56 56 57 60 62 63
39 36 40 31 26 23 24 24 18 17 20 25 28 30 29 28 26 32 32 32 32 28 19 27 24 27 26 30 27 25 22 29 25 33 39 38 46 55 55 55 56 57 60 61 61
40 32 30 27 25 23 29 21 17 16 16 20 25 26 27 27 30 28 29 28 27 20 47 35 27 30 28 23 25 25 27 21 25 34 42 45 50 53 52 53 55 57 59 59 59
44 39 31 28 23 20 21 19 16 19 21 23 28 31 26 27 30 31 31 27 21 35 31 28 25 28 36 31 26 25 22 23 22 30 32 46 49 52 52 52 55 57 58 57 57
40 38 39 35 29 23 24 19 20 18 20 24 24 25 27 30 35 29 32 28 27 28 28 27 27 30 31 37 25 21 23 25 45 48 48 48 48 52 52 53 55 56 56 56 56
48 45 41 38 32 21 22 20 26 23 25 28 27 25 23 23 27 32 32 31 31 25 29 30 27 28 26 33 27 25 23 23 43 48 48 46 49 52 51 52 53 54 54 55 54

GFSSW_sfc_dewp_114.txt.gz
Dewpoint
54 54 55 55 54 54 54 55 54 54 54 54 54 54 56 56 57 54 36 30 39 57 64 59 51 46 45 49 60 64 57 55 56 57 57 59 57 60 59 56 58 59 60 63 67
54 54 54 54 54 54 54 54 54 54 54 54 54 54 55 56 52 48 47 51 56 69 57 48 47 39 34 39 51 60 54 56 59 60 58 60 58 57 56 57 58 60 63 67 69
54 54 54 54 54 54 54 54 54 54 54 54 54 54 55 56 44 18 54 56 61 62 43 42 42 35 38 42 44 58 54 58 58 60 59 60 58 58 57 57 56 60 64 66 67
54 54 54 54 54 54 54 54 54 53 53 53 53 54 56 52 2 46 60 60 63 54 31 33 37 38 42 43 46 55 55 56 57 61 60 60 59 58 59 60 58 62 65 65 65
54 54 54 54 54 54 54 54 54 53 53 53 53 54 51 40 24 33 67 61 60 46 31 29 42 44 42 45 50 53 52 58 61 60 60 60 60 60 59 61 60 63 64 64 64
54 54 53 53 53 54 54 54 53 52 53 53 52 55 46 11 18 57 58 57 52 33 28 35 41 46 46 45 44 47 57 61 61 60 62 59 62 61 61 61 61 62 63 63 63
54 54 54 53 53 53 53 53 53 53 53 53 53 53 46 12 39 54 54 50 39 26 25 29 46 47 47 43 45 58 57 60 61 62 61 61 60 58 61 60 61 61 62 62 63
54 54 53 53 53 53 53 54 54 53 52 53 54 50 29 32 40 45 37 32 29 21 28 27 44 46 46 41 47 56 54 53 59 60 61 59 55 60 61 61 60 60 61 61 62
54 54 53 53 52 52 54 54 54 54 54 55 48 44 29 46 40 36 38 31 27 23 20 29 41 41 31 26 31 39 47 51 55 60 59 57 54 59 61 60 60 61 60 60 61
54 54 53 53 52 52 54 54 56 56 54 53 50 42 39 36 38 34 41 26 23 22 26 29 31 28 25 25 23 32 43 47 49 56 58 56 55 58 59 59 60 61 60 60 60
55 54 53 53 52 52 49 51 44 41 48 28 30 39 39 40 37 36 39 33 29 29 32 32 27 28 25 25 26 24 24 33 56 57 57 56 56 58 60 59 59 60 58 59 60
56 54 53 53 52 52 48 37 37 40 33 44 42 40 41 40 34 35 33 27 29 31 31 27 24 25 26 26 24 25 24 49 56 58 56 57 56 59 60 59 58 60 62 58 60
55 55 55 53 52 48 44 38 40 41 33 29 42 38 34 36 33 32 34 30 28 27 29 28 28 26 25 24 23 22 20 48 52 56 57 56 55 57 60 61 60 62 62 63 61
55 55 54 52 44 44 40 43 41 38 23 23 26 32 32 33 31 33 34 29 26 26 27 27 29 27 26 25 24 21 21 35 54 49 46 53 45 54 58 59 60 60 61 63 63
55 55 53 51 42 37 31 38 39 27 19 27 25 29 30 30 30 31 32 30 23 24 24 25 22 26 26 25 23 22 36 35 52 47 46 47 43 46 57 56 58 58 60 63 61
54 54 52 49 48 44 44 40 26 22 22 28 23 21 27 25 23 30 29 29 31 27 26 25 27 24 24 24 23 49 47 48 47 46 39 43 42 45 53 55 58 58 59 62 63
53 52 50 49 32 41 40 34 24 22 29 26 26 20 25 23 24 28 28 26 24 24 27 26 26 28 25 22 35 47 44 39 38 39 39 42 46 45 54 56 58 58 58 60 64
51 51 50 49 47 41 37 33 26 31 31 32 27 19 23 23 24 27 26 25 25 25 26 24 22 26 22 24 25 43 39 37 32 35 36 47 43 47 57 58 58 58 57 60 64
50 44 45 45 49 42 35 29 27 32 33 31 25 26 27 30 29 30 28 24 25 25 22 26 24 28 25 21 32 39 38 36 34 34 39 44 50 55 57 59 59 58 59 61 63
46 42 36 45 47 38 33 32 33 34 35 29 25 27 26 30 30 29 30 31 24 25 26 27 25 27 28 30 31 32 34 29 30 28 27 43 45 46 54 56 59 60 60 61 63
42 31 31 45 40 36 29 28 32 34 37 26 27 26 27 29 32 31 32 31 29 28 28 30 28 26 28 28 29 28 28 27 28 30 31 36 41 54 54 56 56 58 60 61 63
38 31 36 37 31 29 26 28 31 19 34 29 29 28 28 30 30 30 29 30 34 29 23 30 28 26 27 29 30 27 30 27 27 28 38 38 41 55 57 56 56 58 60 61 62
38 35 41 34 30 27 24 25 15 17 18 26 28 27 29 28 25 31 32 32 33 26 19 24 26 25 25 28 26 25 27 27 26 38 39 32 38 55 57 56 58 58 59 61 61
39 27 30 27 26 22 27 21 13 21 23 24 27 26 26 28 31 29 29 28 26 26 45 35 29 27 27 24 25 24 25 25 26 31 38 38 47 53 54 54 57 59 60 60 60
40 37 35 30 26 21 22 17 19 19 23 26 26 28 27 30 27 29 30 26 22 37 29 26 27 32 32 29 28 26 23 26 23 28 30 40 46 51 53 54 57 59 58 58 58
39 37 40 36 35 21 24 19 18 21 25 24 24 25 27 30 34 29 29 27 28 27 30 27 28 32 30 33 29 22 24 30 47 48 47 48 46 53 53 55 57 58 57 56 56
47 45 39 36 23 23 21 21 23 27 26 28 27 24 22 22 23 28 34 30 27 27 29 28 28 28 26 30 27 26 25 27 37 48 48 45 47 53 52 55 56 57 57 56 56

GFSSW_sfc_dewp_117.txt.gz
Dewpoint
54 54 54 53 53 54 54 53 54 54 54 54 54 54 54 55 56 53 30 31 37 60 64 56 48 47 56 57 63 62 58 56 56 55 57 58 57 58 58 55 57 59 58 61 66
55 55 55 54 53 53 54 54 54 54 54 53 54 53 54 55 51 42 43 49 54 64 51 42 37 38 38 44 55 59 57 57 60 60 57 58 57 57 54 56 59 60 63 65 66
55 55 54 54 54 54 54 54 54 54 53 53 53 53 55 54 38 9 52 55 59 65 48 40 39 34 39 43 50 58 54 58 58 59 58 57 56 56 56 55 57 59 62 65 64
54 54 54 54 54 54 54 54 54 53 53 53 53 53 55 53 3 49 58 60 65 43 41 40 35 37 42 47 47 53 55 57 58 60 58 58 56 55 59 59 57 60 62 62 61
54 54 54 53 53 53 54 54 53 53 53 53 53 53 53 35 13 26 59 61 60 39 36 36 33 40 44 44 47 49 50 55 58 60 59 59 57 58 60 58 60 62 62 62 62
54 54 54 53 54 53 53 53 53 52 53 53 53 54 47 4 27 56 56 57 51 34 29 36 35 45 45 45 48 48 55 59 60 60 60 59 59 60 60 60 61 61 62 62 63
54 54 53 53 53 53 53 52 52 53 52 52 53 53 42 15 38 56 51 47 44 30 27 34 41 46 47 40 51 57 57 60 60 60 60 60 59 58 60 61 61 61 62 62 63
54 54 53 53 52 52 52 53 53 53 52 52 54 52 22 24 42 47 38 36 27 24 26 27 42 46 46 42 51 55 56 55 60 60 61 59 53 58 61 60 61 61 61 62 63
54 54 54 53 52 51 52 53 53 53 53 54 51 46 15 47 38 41 33 30 34 26 23 25 35 41 34 35 48 49 50 51 57 59 60 59 55 60 61 61 61 60 60 61 63
54 54 53 53 52 51 52 54 57 55 53 53 50 42 39 31 37 37 37 28 26 24 23 29 35 38 30 26 36 46 40 46 50 57 58 56 56 59 60 61 60 61 61 61 61
56 55 53 53 53 52 50 53 45 45 47 31 28 35 36 39 35 35 30 25 24 23 28 33 38 39 35 28 28 30 26 39 54 57 56 55 56 58 61 61 61 61 59 60 60
56 56 54 54 53 51 49 38 37 38 34 41 40 37 37 37 33 35 34 23 18 19 32 34 38 35 28 26 26 25 25 52 56 58 56 56 55 58 60 60 60 61 60 60 60
55 55 54 52 51 49 43 37 40 38 35 30 40 38 33 35 33 34 33 27 20 31 32 37 35 27 27 25 25 24 24 49 50 56 56 55 56 57 59 60 60 62 62 61 60
55 55 53 52 45 44 40 40 40 39 26 24 26 32 34 33 32 35 33 30 28 31 30 35 28 25 25 24 25 25 23 40 53 49 45 54 45 55 57 58 59 61 62 61 62
55 53 52 51 43 39 33 40 39 31 18 29 26 31 31 30 31 33 35 30 28 28 29 28 27 27 27 26 26 26 29 32 45 49 46 50 44 48 56 57 58 59 61 62 62
54 53 52 49 49 43 43 37 29 24 22 26 22 26 27 26 28 30 32 30 28 27 28 26 26 25 25 26 26 47 42 46 49 48 37 41 42 46 54 56 58 59 59 62 62
53 51 50 48 33 42 40 34 27 24 29 28 27 24 26 23 26 30 30 27 25 26 27 27 26 27 26 25 33 48 40 41 42 41 35 44 45 43 53 55 58 59 59 60 63
51 50 50 49 47 43 39 36 27 31 29 32 24 26 25 26 27 27 29 27 26 26 25 21 16 25 27 27 26 41 35 27 29 33 32 48 43 45 55 57 58 60 60 61 62
50 45 45 44 48 44 37 31 29 31 32 30 26 25 27 29 27 29 28 27 26 27 26 26 25 28 27 24 30 37 36 33 35 38 36 44 47 53 56 57 57 59 60 60 62
49 42 36 45 46 40 35 32 33 32 35 29 26 27 26 29 29 29 29 29 23 25 27 28 25 27 28 29 30 35 34 27 33 34 30 43 45 45 53 55 57 58 58 59 62
42 35 38 45 41 39 31 29 31 30 35 27 27 27 29 29 31 30 30 29 27 27 29 29 29 28 30 30 29 29 30 31 30 32 27 34 42 55 54 56 58 57 57 59 61
37 32 39 40 32 32 27 27 29 23 28 29 29 29 29 30 29 30 27 30 33 28 24 29 28 27 27 30 29 28 29 31 28 33 37 36 38 55 56 56 58 59 60 60 60
39 37 40 37 30 32 27 23 18 18 21 26 27 29 30 29 29 30 31 31 32 25 25 29 28 22 25 26 27 26 26 25 29 39 39 28 35 56 57 56 57 58 60 62 63
40 31 33 32 29 26 27 19 18 22 25 29 29 28 29 30 33 30 28 27 26 34 42 39 30 29 18 27 27 25 25 26 24 30 34 34 44 54 55 56 57 59 60 61 61
41 37 36 29 31 26 25 20 20 19 26 28 29 29 28 29 29 30 29 25 24 34 31 30 31 31 29 27 25 25 27 38 29 28 32 37 44 49 55 56 57 60 60 60 60
42 40 40 38 36 24 27 23 20 23 26 25 25 23 29 29 30 30 30 31 28 30 30 31 33 32 30 31 32 24 26 34 40 41 41 42 44 52 56 57 58 58 58 59 59
49 47 41 35 26 23 24 23 25 27 28 28 26 26 24 23 24 25 30 29 27 31 32 33 32 31 27 31 31 26 27 30 42 47 47 42 48 54 55 56 57 57 58 58 58

GFSSW_sfc_dewp_123.txt.gz
Dewpoint
56 56 56 55 54 54 54 54 54 54 54 55 55 55 55 55 56 48 25 38 41 63 65 51 47 52 62 58 59 59 59 55 50 51 54 56 56 56 57 54 53 54 54 57 58
56 56 55 54 54 55 54 54 54 54 54 54 54 54 55 55 45 30 52 59 57 66 52 44 38 54 58 56 57 56 59 55 59 54 54 56 56 55 54 54 54 52 56 59 58
56 55 55 55 54 54 55 54 54 54 54 54 54 54 55 54 40 16 62 62 59 62 44 40 36 54 51 51 53 53 56 57 57 56 55 56 56 54 52 52 52 56 56 58 56
55 56 55 54 54 54 54 54 54 54 54 54 54 54 55 49 23 45 61 64 61 47 44 37 30 43 45 48 51 51 53 55 55 57 56 55 55 53 54 52 53 56 56 56 55
55 55 56 54 54 54 54 54 54 53 53 53 54 54 52 35 25 50 62 58 40 45 41 38 31 31 41 50 52 51 53 54 54 56 58 56 57 58 54 52 54 54 55 54 53
54 55 55 54 54 54 54 53 53 53 53 54 54 54 46 24 26 45 35 31 27 40 36 34 30 28 40 49 50 51 53 54 57 58 59 57 56 55 57 53 53 53 53 52 51
54 54 55 54 53 53 53 52 52 53 54 54 54 50 40 23 29 47 38 30 29 35 31 30 30 28 47 48 47 49 50 54 58 57 57 58 56 55 59 52 52 52 53 52 52
55 54 54 54 53 52 52 52 52 54 54 54 54 47 34 21 45 47 38 36 33 33 30 30 32 35 46 47 45 43 50 52 57 59 58 57 53 57 58 54 52 52 52 52 54
55 55 54 54 53 52 52 52 54 54 55 54 52 45 22 39 42 39 35 32 29 28 30 29 30 41 45 41 45 45 43 51 56 58 58 55 55 58 56 53 52 52 52 53 55
56 56 55 54 54 53 53 54 56 55 54 48 43 36 32 20 34 32 31 31 24 21 22 22 26 39 42 39 41 43 42 49 51 56 56 54 56 56 58 53 56 57 54 54 54
56 56 55 54 54 53 52 53 51 49 43 36 22 31 14 29 33 27 22 16 14 18 17 19 22 35 38 39 44 39 44 53 53 54 54 55 57 57 59 60 60 62 57 55 54
56 56 55 54 52 52 50 39 33 34 31 29 28 31 30 32 27 29 23 19 16 14 17 17 20 27 36 36 35 39 43 47 57 53 54 54 56 56 59 60 60 60 60 60 58
56 54 53 53 52 49 42 37 35 35 32 26 24 28 29 30 26 27 25 22 17 13 15 17 20 25 35 37 32 33 35 44 47 51 51 53 56 58 57 59 56 60 57 60 61
56 54 54 52 47 39 35 37 35 36 28 22 24 29 30 26 25 27 24 19 17 11 16 18 19 30 35 34 32 32 32 49 54 47 47 50 50 57 59 58 56 55 59 62 64
54 53 53 52 46 35 34 35 35 37 22 24 26 31 30 24 25 26 24 17 11 11 18 19 21 27 32 31 33 34 33 33 42 44 43 45 50 53 57 57 57 56 55 59 59
54 53 52 49 46 37 35 35 36 28 21 23 27 28 28 28 27 24 21 27 20 18 21 24 28 28 27 28 30 32 31 30 33 34 32 40 36 52 55 56 58 56 55 57 54
53 52 51 46 35 35 35 34 32 24 23 21 23 26 26 25 27 22 24 25 20 23 25 27 27 26 25 26 29 30 29 29 31 31 29 30 32 47 53 52 57 57 57 56 55
51 51 50 42 37 36 34 33 30 20 22 22 21 23 25 24 25 24 26 20 21 21 18 23 22 24 24 24 23 26 28 27 31 27 26 35 34 45 49 50 54 58 58 57 55
51 47 39 35 37 37 35 33 25 23 21 19 20 25 23 25 24 25 24 20 21 20 20 20 20 20 19 21 21 22 26 27 26 31 26 33 39 47 47 50 52 54 58 59 58
49 29 28 32 34 33 35 29 25 26 24 21 22 28 22 22 23 23 25 23 21 21 25 22 21 19 19 18 18 20 23 22 25 29 27 37 43 45 47 48 51 52 56 58 61
46 27 33 34 35 36 31 24 23 25 26 24 24 25 29 24 24 24 22 24 24 24 25 23 22 22 19 20 18 18 20 25 20 23 23 28 37 48 48 48 51 52 55 58 61
38 27 36 39 35 29 22 22 28 21 23 22 24 23 24 21 25 25 23 23 25 26 23 25 22 26 22 21 18 22 18 22 22 25 22 20 38 41 48 48 51 53 56 58 61
38 31 35 35 30 21 23 18 18 18 22 22 22 24 24 23 26 31 27 28 27 26 30 28 24 23 26 24 25 25 23 16 15 18 25 22 34 50 50 50 53 54 56 60 63
36 27 30 33 29 22 22 18 14 14 20 23 23 24 23 23 25 25 25 24 25 27 47 36 24 28 29 32 29 24 20 21 21 20 21 21 43 47 48 52 56 56 58 60 63
38 25 30 24 25 26 24 15 11 17 21 23 24 23 25 26 23 25 26 25 26 35 31 28 28 27 26 26 24 26 22 21 21 22 21 21 30 40 45 53 57 60 61 61 61
42 34 30 32 29 27 28 19 13 15 18 19 21 19 22 27 29 26 25 25 24 26 26 27 26 27 27 22 22 20 21 23 23 23 22 22 29 47 60 57 59 60 61 62 62
45 43 40 32 28 25 21 18 19 22 20 19 18 18 18 23 24 26 25 29 27 29 27 27 23 26 24 20 22 21 21 21 24 28 29 29 46 49 48 56 59 61 61 61 62